MPMG - Transparência

Contra-cheque - Remuneração de todos os servidores ativos - Pós Resolução CNMP 200/2019

Período: 2020 - Outubro

Ordem Matrícula Nome Cargo Efetivo Lotação Rendimentos Descontos Rendimento Líquido Total *14 Data de Referência
Remuneração básica Remuneração eventual ou Temporária Outras Remunerações Temporárias *7 Verbas Indenizatórias *8 Total de Rendimentos Brutos *9 Obrigatórios Legais Outros Descontos Eventuais Total de descontos *13
Remuneração do Cargo Efetivo *1 Outras Verbas Remuneratórias *2 Função de Confiança ou Cargo em Comissão *3 Gratificação Natalina *4 Férias 1/3 Constitucional *5 Abono de Permanência *6 Contribuição Previdenciária *10 Imposto de Renda *11 Retenção por Teto Constitucional *12
1 498900 ABDON MARCIO BARBOSA DA SILVA OFICIAL DO MP ABRE CAMPO - COMARCA; ABRE CAMPO-PJ-01PJ 5.562,64 556,26 0,00 0,00 0,00 0,00 0,00 1.550,00 7.668,90 673,08 523,97 0,00 0,00 1.197,05 6.471,85 31/10/2020
2 177800 ADALBERTO MENEZES FARIA SAMORA OFICIAL DO MP BELO HORIZONTE - COMARCA; DIR ESTRUTURA E PROCESSOS ORGANIZACIONAIS 14.790,66 5.916,26 0,00 0,00 0,00 0,00 0,00 1.550,00 22.256,92 2.277,76 4.094,38 0,00 0,00 6.372,14 15.884,78 31/10/2020
3 306400 ADALBERTO MOREIRA GONCALVES ANALISTA DO MP BELO HORIZONTE - COMARCA; BH-24PJ JUIZO REG BARREIRO-SECRETARIA 15.272,02 4.581,61 0,00 0,00 0,00 0,00 0,00 1.550,00 21.403,63 2.183,90 3.989,82 0,00 0,00 6.173,72 15.229,91 31/10/2020
4 179300 ADENISE AUXILIADORA SOUZA SAD OFICIAL DO MP BARBACENA - COMARCA; BARBACENA-PJ-06PJ 14.324,23 5.729,69 0,00 0,00 0,00 0,00 0,00 1.550,00 21.603,92 2.205,93 3.934,56 0,00 0,00 6.140,49 15.463,43 31/10/2020
5 272200 ADILSON BATISTA ORNELAS OFICIAL DO MP LAVRAS - COMARCA; LAVRAS-PJ-SECRETARIA 5.136,32 1.027,26 0,00 0,00 0,00 0,00 0,00 1.550,00 7.713,58 677,99 587,04 0,00 0,00 1.265,03 6.448,55 31/10/2020
6 380100 ADILSON GONCALVES DE MELO JUNIOR ANALISTA DO MP ARAXÁ - COMARCA; ARAXA-PJ-05PJ 10.397,52 2.079,50 0,00 0,00 0,00 0,00 0,00 2.319,39 14.796,41 1.372,47 2.080,12 0,00 0,00 3.452,59 11.343,82 31/10/2020
7 148800 ADILSON JANUARIO OFICIAL DO MP BELO HORIZONTE - COMARCA; BH-22PJ PES COM DEF E IDOSOS-SECRETARIA 16.750,82 11.725,57 0,00 0,00 0,00 0,00 0,00 1.550,00 30.026,39 3.132,40 6.048,10 0,00 0,00 9.180,50 20.845,89 31/10/2020
8 322601 ADMILSON SILVEIRA ANALISTA DO MP SAO JOAO DO PARAISO COMARCA; SAO JOAO DO PARAISO-PJ-UNPJ 8.858,43 885,84 0,00 0,00 0,00 0,00 0,00 1.550,00 11.294,27 1.071,87 1.515,55 0,00 0,00 2.587,42 8.706,85 31/10/2020
9 333700 ADRIANA ABRITTA TEIXEIRA OFICIAL DO MP BELO HORIZONTE - COMARCA; DIRET DE PESSOAL DO MINISTERIO PUBLICO - DPMP 10.069,62 3.020,89 0,00 0,00 0,00 0,00 0,00 1.550,00 14.640,51 1.439,96 2.334,54 0,00 0,00 3.774,50 10.866,01 31/10/2020
10 468500 ADRIANA APARECIDA FIRMINO ANALISTA DO MP CARATINGA - COMARCA; CARATINGA-PJ-04PJ 10.069,62 1.006,96 0,00 0,00 0,00 0,00 892,44 2.319,39 14.288,41 1.316,59 2.007,92 0,00 0,00 3.324,51 10.963,90 31/10/2020
11 326100 ADRIANA AUGUSTA AMARAL BELO OFICIAL DO MP BARBACENA - COMARCA; BARBACENA-PJ-08PJ 10.069,62 3.020,89 0,00 0,00 0,00 0,00 0,00 1.550,00 14.640,51 1.439,96 2.230,27 0,00 0,00 3.670,23 10.970,28 31/10/2020
12 605700 ADRIANA COSTA LIRA ASSESSOR/OFICIAL BELO HORIZONTE - COMARCA; COORD ESTADUAL DE DEFESA DA EDUCACAO 0,00 817,05 8.170,49 0,00 0,00 0,00 0,00 1.550,00 10.537,54 651,85 1.416,34 0,00 20,55 2.088,74 8.448,80 31/10/2020
13 541100 ADRIANA CRISTINA DE OLIVEIRA OFICIAL DO MP GUAPÉ - COMARCA; GUAPE-PJ-UNPJ 4.974,42 497,44 0,00 0,00 0,00 0,00 0,00 2.319,39 7.791,25 601,90 417,74 0,00 0,00 1.019,64 6.771,61 31/10/2020
14 254800 ADRIANA DAS GRACAS FERNANDES ANALISTA DO MP UBERABA - COMARCA; UBERABA-PJ-07PJ 17.413,92 12.189,74 0,00 0,00 0,00 0,00 0,00 1.550,00 31.153,66 3.256,40 6.324,00 0,00 0,00 9.580,40 21.573,26 31/10/2020
15 217400 ADRIANA DE CARVALHO CATAO BRAGA ASSESSOR BELO HORIZONTE - COMARCA; DIV FISCAL ADM CONT TERCEIRIZACAO 0,00 3.268,20 8.170,49 0,00 0,00 0,00 0,00 1.550,00 12.988,69 713,09 2.382,68 0,00 0,00 3.095,77 9.892,92 31/10/2020
16 434600 ADRIANA FERREIRA DA SILVA ANALISTA DO MP BELO HORIZONTE - COMARCA; BH-14PJ DEFESA CONSUMIDOR-GAB 112PJ 12.204,02 2.440,80 0,00 0,00 0,00 0,00 0,00 1.550,00 16.194,82 1.610,93 2.714,96 0,00 0,00 4.325,89 11.868,93 31/10/2020
17 499800 ADRIANA FERREIRA TIAGO OFICIAL DO MP SALINAS - COMARCA; SALINAS-PJ-02PJ 6.741,63 674,16 0,00 0,00 0,00 0,00 212,96 1.550,00 9.178,75 839,16 997,78 0,00 0,00 1.836,94 7.341,81 31/10/2020
18 543400 ADRIANA GUIMARAES NUNES DE PAULA ANALISTA DO MP PATROCÍNIO - COMARCA; PATROCINIO-PJ-01PJ 8.436,53 843,65 0,00 0,00 0,00 0,00 0,00 1.550,00 10.830,18 1.020,82 1.401,96 0,00 0,00 2.422,78 8.407,40 31/10/2020
19 471500 ADRIANA HORTA DE CARVALHO RODRIGUES DE SOUSA ANALISTA DO MP BELO HORIZONTE - COMARCA; GRUPO ESP PROM JUST DEF PROB ADM PAT PUB 10.069,62 1.006,96 0,00 0,00 0,00 0,00 0,00 1.550,00 12.626,58 1.218,42 1.789,50 0,00 0,00 3.007,92 9.618,66 31/10/2020
20 86400 ADRIANA MOREIRA CALDEIRA BRANT OFICIAL DO MP BELO HORIZONTE - COMARCA; BH-21PJ TUTELA FUNDACOES-SECRETARIA 14.790,66 10.353,47 0,00 0,00 0,00 3.065,55 0,00 1.550,00 29.759,68 2.765,85 6.045,28 0,00 0,00 8.811,13 20.948,55 31/10/2020
21 480700 ADRIANA MOREIRA DE AVELLAR CEZILIO OFICIAL DO MP BELO HORIZONTE - COMARCA; BH-18PJ VIOLENCIA DOMESTICA-SECRETARIA 6.123,79 612,38 0,00 0,00 0,00 0,00 0,00 1.550,00 8.286,17 740,98 675,04 0,00 0,00 1.416,02 6.870,15 31/10/2020
22 326000 ADRIANA PEREIRA CARNEIRO RESENDE OFICIAL DO MP BELO HORIZONTE - COMARCA; BH-25PJ DEFESA DA EDUCACAO-SECRETARIA 9.444,70 2.833,41 0,00 0,00 0,00 0,00 0,00 1.550,00 13.828,11 1.350,59 2.135,71 0,00 0,00 3.486,30 10.341,81 31/10/2020
23 502200 ADRIANA PETRUCCI DAVINA OFICIAL DO MP PATROCÍNIO - COMARCA; PATROCINIO-PJ-01PJ 7.421,79 742,18 0,00 0,00 0,00 0,00 0,00 2.319,39 10.483,36 898,04 1.128,77 0,00 0,00 2.026,81 8.456,55 31/10/2020
24 201900 ADRIANA REIS PIMENTA OFICIAL DO MP TEÓFILO OTONI - COMARCA; TEOFILO OTONI-PJ-03PJ 14.324,23 5.729,69 0,00 0,00 0,00 0,00 0,00 1.550,00 21.603,92 2.205,93 4.038,84 0,00 0,00 6.244,77 15.359,15 31/10/2020
25 278700 ADRIANA RODRIGUES PINTO COELHO AMARAL ANALISTA DO MP BELO HORIZONTE - COMARCA; ASSESS TECNICA DA CORREGEDORIA-GERAL DO MP 16.750,82 5.025,25 0,00 0,00 0,00 0,00 0,00 1.550,00 23.326,07 2.395,37 4.408,20 0,00 0,00 6.803,57 16.522,50 31/10/2020
26 468000 ADRIANA SANTOS DE SANTANA MOREIRA ANALISTA DO MP ARAÇUAÍ - COMARCA; ARACUAI-PJ-02PJ 10.069,62 4.027,85 0,00 0,00 0,00 0,00 0,00 1.550,00 15.647,47 1.550,72 2.476,72 0,00 0,00 4.027,44 11.620,03 31/10/2020
27 194700 ADRIANA TSUKIDE OFICIAL DO MP UBERABA - COMARCA; COORD REG BACIAS PARANAIBA BAIXO RIO GRANDE 14.324,23 5.729,69 0,00 0,00 0,00 0,00 0,00 1.550,00 21.603,92 2.205,93 3.986,70 0,00 0,00 6.192,63 15.411,29 31/10/2020
28 465500 ADRIANO CASSIANO MATOS ANALISTA DO MP ARAXÁ - COMARCA; ARAXA-PJ-02PJ 10.069,62 1.006,96 0,00 0,00 0,00 0,00 0,00 1.550,00 12.626,58 1.218,42 1.841,63 0,00 0,00 3.060,05 9.566,53 31/10/2020
29 500500 ADRIANO DE ALMEIDA SILVA OFICIAL DO MP UBERABA - COMARCA; UBERABA-PJ-12PJ 7.421,79 742,18 0,00 0,00 0,00 0,00 638,75 4.605,30 13.408,02 945,25 811,89 0,00 0,00 1.757,14 11.650,88 31/10/2020
30 187200 ADRIANO DE FREITAS MARON OFICIAL DO MP PONTE NOVA - COMARCA; PONTE NOVA-PJ-03PJ 12.204,02 10.983,62 0,00 0,00 0,00 2.936,62 0,00 1.550,00 27.674,26 2.550,64 5.507,24 0,00 0,00 8.057,88 19.616,38 31/10/2020
31 477900 ADRIANO FERREIRA DE ALMEIDA OFICIAL DO MP TAIOBEIRAS - COMARCA; TAIOBEIRAS-PJ-UNPJ 7.421,79 742,18 0,00 0,00 2.721,32 0,00 0,00 1.872,04 12.757,33 898,04 1.772,86 0,00 0,00 2.670,90 10.086,43 31/10/2020
32 269101 ADRIANO PEREIRA SILVA ANALISTA DO MP UBERABA - COMARCA; UBERABA-PJ-02PJ 10.069,62 1.006,96 0,00 0,00 0,00 0,00 0,00 2.319,39 13.395,97 1.218,42 1.685,22 0,00 0,00 2.903,64 10.492,33 31/10/2020
33 414200 ADRIANO RODRIGUES FERNANDES ANALISTA DO MP CARANDAÍ - COMARCA; CARANDAI-PJ-UNPJ 10.069,62 2.013,92 0,00 0,00 0,00 0,00 0,00 1.550,00 13.633,54 1.329,19 1.983,81 0,00 0,00 3.313,00 10.320,54 31/10/2020
34 536700 ADRIELLE COSTA MARIA MOURAO FIGUEIREDO OFICIAL DO MP SERRO - COMARCA; SERRO-PJ-SECRETARIA 4.974,42 497,44 0,00 0,00 0,00 0,00 0,00 2.319,39 7.791,25 601,90 469,88 0,00 0,00 1.071,78 6.719,47 31/10/2020
35 514300 ADRIENE DAMASCENO BRAGA ANALISTA DO MP ALFENAS - COMARCA; ALFENAS-PJ-03PJ 10.069,62 1.006,96 0,00 0,00 0,00 0,00 572,80 2.319,39 13.968,77 1.281,43 1.981,83 0,00 0,00 3.263,26 10.705,51 31/10/2020
36 254600 ADRIENE DOMINGUES COSTA ANALISTA DO MP BELO HORIZONTE - COMARCA; SUPERINTENDENCIA DE RECURSOS HUMANOS 16.112,82 4.833,85 0,00 0,00 0,00 0,00 0,00 0,00 20.946,67 2.304,13 4.257,34 0,00 0,00 6.561,47 14.385,20 31/10/2020
37 252001 ADRIENE GOMES BARRETO ANALISTA DO MP BELO HORIZONTE - COMARCA; BH-19PJ SAUDE-SECRETARIA 047PJ 13.011,52 5.204,61 0,00 0,00 0,00 0,00 0,00 1.550,00 19.766,13 2.003,77 3.589,04 0,00 0,00 5.592,81 14.173,32 31/10/2020
38 645000 AFONSO CELSO GUIMARAES JUNIOR OFICIAL DO MP PIRAPORA - COMARCA; PIRAPORA-PJ-01PJ 4.238,09 254,29 0,00 0,00 0,00 0,00 0,00 1.550,00 6.042,38 494,16 263,47 0,00 0,00 757,63 5.284,75 31/10/2020
39 302500 AGENOR JOSE DA SILVA JUNIOR ANALISTA DO MP JUIZ DE FORA - COMARCA; JUIZ DE FORA-PJ-14PJ 15.272,02 4.581,61 0,00 0,00 0,00 0,00 0,00 1.550,00 21.403,63 2.183,90 3.885,54 0,00 0,00 6.069,44 15.334,19 31/10/2020
40 357500 AILSON WAGNER DE ALENCAR SILVA OFICIAL DO MP BELO HORIZONTE - COMARCA; BH-12PJ JUIZO CRIMINAL-SECRETARIA 9.146,93 3.658,77 0,00 0,00 0,00 0,00 0,00 1.550,00 14.355,70 1.408,63 2.108,42 0,00 0,00 3.517,05 10.838,65 31/10/2020
41 366400 AILTON ALEXSSANDRO ALVES OFICIAL DO MP PARÁ DE MINAS - COMARCA; PARA DE MINAS-PJ-05PJ 8.579,10 3.431,64 0,00 0,00 0,00 0,00 0,00 1.550,00 13.560,74 1.321,18 2.070,27 0,00 0,00 3.391,45 10.169,29 31/10/2020
42 318900 AILTON DE CASTRO RIBEIRO JUNIOR OFICIAL DO MP ITAJUBA - COMARCA; ITAJUBA-PJ-01PJ 9.444,70 2.833,41 0,00 0,00 0,00 0,00 0,00 2.319,39 14.597,50 1.350,59 1.927,16 0,00 0,00 3.277,75 11.319,75 31/10/2020
43 464400 ALAN MONTEIRO GASPAR ANALISTA DO MP SETE LAGOAS - COMARCA; SETE LAGOAS-PJ-08PJ 10.069,62 1.006,96 0,00 0,00 0,00 0,00 663,00 1.550,00 13.289,58 1.291,35 2.003,90 0,00 0,00 3.295,25 9.994,33 31/10/2020
44 670200 ALANA ARAUJO AGUIAR ASSESSOR BELO HORIZONTE - COMARCA; ASSESS EXECUTIVA DO CONSELHO SUPERIOR DO MP 0,00 0,00 3.076,28 0,00 0,00 0,00 0,00 1.550,00 4.626,28 443,62 205,10 0,00 0,00 648,72 3.977,56 31/10/2020
45 492000 ALANA DE CASTRO FREITAS OFICIAL DO MP ITUMIRIM - COMARCA; ITUMIRIM-PJ-SECRETARIA 6.123,79 612,38 0,00 0,00 0,00 0,00 0,00 1.550,00 8.286,17 740,98 779,32 0,00 0,00 1.520,30 6.765,87 31/10/2020
46 306700 ALANA MARCIA DE OLIVEIRA OFICIAL DO MP BELO HORIZONTE - COMARCA; DIRETORIA DE ADMINISTRACAO FINANCEIRA 9.444,70 2.833,41 0,00 0,00 0,00 0,00 0,00 1.550,00 13.828,11 1.350,59 2.135,71 0,00 0,00 3.486,30 10.341,81 31/10/2020
47 324500 ALANMAR COUTINHO COSTA OFICIAL DO MP LEOPOLDINA - COMARCA; LEOPOLDINA-PJ-02PJ 9.146,93 2.744,08 0,00 0,00 0,00 0,00 0,00 1.550,00 13.441,01 1.308,01 1.936,69 0,00 0,00 3.244,70 10.196,31 31/10/2020
48 407300 ALBERTO LUIZ SOARES DE OLIVEIRA ANALISTA DO MP BELO HORIZONTE - COMARCA; DIRETORIA DE PROJETOS DE EDIFICACOES 12.204,02 2.440,80 0,00 0,00 0,00 0,00 536,98 16.194,82 31.376,62 1.610,93 2.714,96 0,00 0,00 4.325,89 27.050,73 31/10/2020
49 118200 ALBERTO PEREIRA DA COSTA OFICIAL DO MP DORES DO INDAIÁ - COMARCA; DORES DO INDAIA-PJ-UNPJ 15.272,02 13.744,82 0,00 0,00 0,00 3.418,52 0,00 1.550,00 33.985,36 3.191,85 7.058,13 0,00 0,00 10.249,98 23.735,38 31/10/2020
50 282400 ALCILENE MARISE DE ARAUJO ANALISTA DO MP BELO HORIZONTE - COMARCA; BH-23PJ INF-FISC MED SOC FEC 16.750,82 5.025,25 0,00 0,00 0,00 0,00 0,00 1.550,00 23.326,07 2.395,37 4.356,06 0,00 0,00 6.751,43 16.574,64 31/10/2020
51 112600 ALCIONE DA MOTA JARDIM OFICIAL DO MP BELO HORIZONTE - COMARCA; CAO-CRIANCAS E ADOLESCENTES-SECRETARIA 12.601,30 8.820,91 0,00 0,00 0,00 0,00 0,00 1.550,00 22.972,21 2.356,44 4.321,59 0,00 0,00 6.678,03 16.294,18 31/10/2020
52 396400 ALCIONE DE FREITAS E SILVA ANALISTA DO MP BELO HORIZONTE - COMARCA; ASSESS JUR DO CONS SUPERIOR DO MINISTERIO PUB 13.011,52 5.204,61 0,00 0,00 0,00 0,00 0,00 1.550,00 19.766,13 2.003,77 3.589,04 0,00 0,00 5.592,81 14.173,32 31/10/2020
53 657400 ALCIONE MARIA FERREIRA ASSESSOR BELO HORIZONTE - COMARCA; PROC JUST RECURSOS ESP E EXTRAORD CRIMINAIS 0,00 0,00 10.397,52 0,00 0,00 0,00 0,00 1.550,00 11.947,52 713,09 2.096,36 0,00 0,00 2.809,45 9.138,07 31/10/2020
54 161600 ALCIONE NERY SOUZA ASSESSOR BELO HORIZONTE - COMARCA; BH-18PJ DIREITOS HUMANOS-SECRETARIA 0,00 4.085,25 8.170,49 0,00 4.085,25 0,00 0,00 1.550,00 17.890,99 713,09 3.730,81 0,00 0,00 4.443,90 13.447,09 31/10/2020
55 376000 ALDA GOMES LANA OFICIAL DO MP BELO HORIZONTE - COMARCA; BH-18PJ VIOLENCIA DOMESTICA-SECRETARIA 8.579,10 1.715,82 0,00 0,00 0,00 0,00 0,00 1.550,00 11.844,92 1.132,44 1.598,18 0,00 0,00 2.730,62 9.114,30 31/10/2020
56 148000 ALDA MARTINS SIMOES OFICIAL DO MP BELO HORIZONTE - COMARCA; BH-23PJ CIVEL- FISC ENT AB POL 16.750,82 8.375,41 0,00 0,00 0,00 0,00 0,00 1.550,00 26.676,23 2.763,89 5.280,28 0,00 0,00 8.044,17 18.632,06 31/10/2020
57 318400 ALDO CREPALDI JUNIOR OFICIAL DO MP BELO HORIZONTE - COMARCA; DIVISAO DE MATERIAIS 9.444,70 2.833,41 0,00 0,00 0,00 0,00 0,00 1.550,00 13.828,11 1.350,59 2.083,57 0,00 0,00 3.434,16 10.393,95 31/10/2020
58 604500 ALENIZE APARECIDA RODRIGUES HENRIQUE OFICIAL DO MP RIO NOVO - COMARCA; RIO NOVO-PJ-UNPJ 4.974,42 497,44 0,00 0,00 0,00 0,00 0,00 1.550,00 7.021,86 601,90 469,88 0,00 0,00 1.071,78 5.950,08 31/10/2020
59 197900 ALESSA DE SOUSA E SILVA OFICIAL DO MP OLIVEIRA - COMARCA; OLIVEIRA-PJ-02PJ 14.790,66 5.916,26 0,00 0,00 0,00 0,00 0,00 1.652,00 22.358,92 2.277,76 4.094,38 0,00 0,00 6.372,14 15.986,78 31/10/2020
60 428500 ALESSANDRA ALVES DINIZ OFICIAL DO MP BELO HORIZONTE - COMARCA; CENTRAL DE APOIO TECNICO-SECRETARIA 5.743,70 2.871,85 0,00 0,00 0,00 0,00 252,72 4.306,98 13.175,25 947,71 1.239,30 0,00 0,00 2.187,01 10.988,24 31/10/2020
61 286801 ALESSANDRA BOTELHO JUNQUEIRA DE MENEZES ANALISTA DO MP PASSOS - COMARCA; PASSOS-PJ-05PJ 12.601,30 5.040,52 0,00 0,00 0,00 0,00 0,00 3.088,78 20.730,60 1.940,60 3.239,93 0,00 0,00 5.180,53 15.550,07 31/10/2020
62 307000 ALESSANDRA CRISTINA SANTOS MENDES ANALISTA DO MP BELO HORIZONTE - COMARCA; BH-18PJ VIOLENCIA DOMESTICA-SECRETARIA 11.819,15 3.545,75 0,00 0,00 0,00 0,00 0,00 1.550,00 16.914,90 1.690,14 2.839,06 0,00 0,00 4.529,20 12.385,70 31/10/2020
63 264400 ALESSANDRA DE SOUZA SANTOS ANALISTA DO MP BELO HORIZONTE - COMARCA; OUVIDORIA DO MPMG 17.413,92 6.965,57 0,00 0,00 0,00 0,00 0,00 1.550,00 25.929,49 2.681,74 5.097,52 0,00 0,00 7.779,26 18.150,23 31/10/2020
64 441500 ALESSANDRA DRUMMOND DE FIGUEIREDO ROSSI ANALISTA DO MP BELO HORIZONTE - COMARCA; DIRETORIA DE PROJETOS DE EDIFICACOES 10.069,62 2.013,92 0,00 0,00 0,00 0,00 0,00 1.550,00 13.633,54 1.329,19 2.088,09 0,00 0,00 3.417,28 10.216,26 31/10/2020
65 524000 ALESSANDRA LUCIOLI DE BARROS GUERRA ANALISTA DO MP BELO HORIZONTE - COMARCA; BH-19PJ SAUDE--SECRETARIA 10.069,62 1.006,96 0,00 0,00 0,00 0,00 0,00 1.550,00 12.626,58 1.218,42 1.685,22 0,00 0,00 2.903,64 9.722,94 31/10/2020
66 479900 ALESSANDRA MARA ANDRADE DE FARIA OFICIAL DO MP UBERABA - COMARCA; UBERABA-PJ-09PJ 7.421,79 742,18 0,00 0,00 0,00 0,00 0,00 1.550,00 9.713,97 898,04 1.128,77 0,00 0,00 2.026,81 7.687,16 31/10/2020
67 226700 ALESSANDRA MARA VASCONCELOS REZENDE OFICIAL DO MP CONSELHEIRO LAFAIETE - COMARCA; CONSELHEIRO LAFAIETE-PJ-07PJ 10.069,62 3.020,89 0,00 0,00 0,00 0,00 0,00 1.550,00 14.640,51 1.439,96 2.334,54 0,00 0,00 3.774,50 10.866,01 31/10/2020
68 112100 ALESSANDRA MARCIA FERREIRA OFICIAL DO MP BELO HORIZONTE - COMARCA; BELO HORIZONTE- SECRETARIA DAS PROMOTORIAS 10.069,62 7.048,73 0,00 0,00 0,00 0,00 0,00 1.550,00 18.668,35 1.883,02 3.320,36 0,00 0,00 5.203,38 13.464,97 31/10/2020
69 196500 ALESSANDRA MARIA RIBEIRO LUCIANO OFICIAL DO MP RIO PARANAÍBA - COMARCA; RIO PARANAIBA-PJ-UNPJ 14.790,66 5.916,26 0,00 0,00 0,00 0,00 0,00 1.550,00 22.256,92 2.277,76 4.094,38 0,00 0,00 6.372,14 15.884,78 31/10/2020
70 91400 ALESSANDRA MENDES VASCONCELOS DE SOUZA OFICIAL DO MP BELO HORIZONTE - COMARCA; BH-23PJ INF-FISC MED SOC AB 18.820,14 13.174,10 0,00 0,00 0,00 3.775,12 0,00 1.550,00 37.319,36 3.519,37 7.929,06 0,00 0,00 11.448,43 25.870,93 31/10/2020
71 651700 ALESSANDRA PROFIRIO SOUZA OFICIAL DO MP NOVA ERA - COMARCA; NOVA ERA-PJ-UNPJ 4.238,09 254,29 0,00 0,00 0,00 0,00 0,00 1.550,00 6.042,38 494,16 220,81 0,00 0,00 714,97 5.327,41 31/10/2020
72 384900 ALESSANDRA RODRIGUES ANALISTA DO MP VISCONDE DO RIO BRANCO - COMARCA; VISCONDE DO RIO BRANCO-PJ-03PJ 13.011,52 2.602,30 0,00 0,00 0,00 0,00 0,00 3.088,78 18.702,60 1.717,52 2.847,85 0,00 0,00 4.565,37 14.137,23 31/10/2020
73 390000 ALESSANDRA SPADANO MASSARA VASCONCELOS OFICIAL DO MP BETIM - COMARCA; BETIM-PJ-10PJ 8.579,10 1.715,82 0,00 0,00 0,00 0,00 0,00 1.550,00 11.844,92 1.132,44 1.650,32 0,00 0,00 2.782,76 9.062,16 31/10/2020
74 426500 ALESSANDRO CAMPOS DE PAIVA ANALISTA DO MP BELO HORIZONTE - COMARCA; CENTRO PUBLICIDADE E DESIGN GRAFICO 12.601,30 2.520,26 0,00 0,00 0,00 0,00 0,00 1.550,00 16.671,56 1.663,37 2.819,75 0,00 0,00 4.483,12 12.188,44 31/10/2020
75 623400 ALESSANDRO DE OLIVEIRA REZENDE ANALISTA DO MP BELO HORIZONTE - COMARCA; DIRET DE INFORMACAO E CONHECIMENTO-DINC/CEAF 8.170,49 817,05 0,00 0,00 0,00 0,00 0,00 1.550,00 10.537,54 988,63 1.330,34 0,00 0,00 2.318,97 8.218,57 31/10/2020
76 420600 ALESSANDRO SILVA OFICIAL DO MP VISCONDE DO RIO BRANCO - COMARCA; VISCONDE DO RIO BRANCO-PJ-02PJ 8.170,49 2.451,15 0,00 0,00 0,00 0,00 0,00 1.550,00 12.171,64 1.168,38 1.147,78 0,00 0,00 2.316,16 9.855,48 31/10/2020
77 375301 ALETHEIA PATRICIA ASSIS MORAIS MOREIRA ANALISTA DO MP ITABIRA - COMARCA; ITABIRA-PJ-02PJ 9.146,93 914,69 0,00 0,00 0,00 0,00 0,00 3.088,78 13.150,40 1.106,78 1.541,08 0,00 0,00 2.647,86 10.502,54 31/10/2020
78 382300 ALEX CARVALHO LIMA ANALISTA DO MP UBERLÂNDIA - COMARCA; UBERLANDIA-PJ-14PJ 13.011,52 2.602,30 0,00 0,00 0,00 0,00 0,00 1.550,00 17.163,82 1.717,52 2.952,12 0,00 0,00 4.669,64 12.494,18 31/10/2020
79 195201 ALEX DE CASTRO PEREIRA ANALISTA DO MP UBERABA - COMARCA; UBERABA-PJ-09PJ 16.750,82 6.700,33 0,00 0,00 0,00 0,00 0,00 1.550,00 25.001,15 2.579,63 4.870,31 0,00 0,00 7.449,94 17.551,21 31/10/2020
80 358900 ALEX DE PAULA LANZA ASSESSOR BELO HORIZONTE - COMARCA; CENTRO JORNALISMO 0,00 0,00 10.397,52 0,00 0,00 0,00 0,00 2.319,39 12.716,91 713,09 2.096,36 0,00 0,00 2.809,45 9.907,46 31/10/2020
81 178400 ALEX RODRIGO SALDANHA GUIMARAES OFICIAL DO MP BELO HORIZONTE - COMARCA; DIRETORIA DE SISTEMAS DE INFORMACAO 6.123,79 2.449,52 0,00 0,00 0,00 0,00 0,00 1.550,00 10.123,31 943,06 1.228,96 0,00 0,00 2.172,02 7.951,29 31/10/2020
82 413500 ALEX VILELA OLIVEIRA ANALISTA DO MP GOVERNADOR VALADARES - COMARCA; COORD REG PJ DEF EDU DIR CRIANCA ADOL RIODOCE 12.601,30 2.520,26 0,00 0,00 0,00 0,00 0,00 1.550,00 16.671,56 1.663,37 2.831,64 0,00 0,00 4.495,01 12.176,55 31/10/2020
83 264300 ALEXANDRA FATIMA SARAIVA SOARES ANALISTA DO MP BELO HORIZONTE - COMARCA; CENTRAL DE APOIO TECN-SETOR DE MEIO AMBIENTE 17.413,92 5.224,18 0,00 0,00 0,00 0,00 0,00 1.550,00 24.188,10 2.490,19 4.671,32 0,00 0,00 7.161,51 17.026,59 31/10/2020
84 488000 ALEXANDRA LARA PAIS DE CARVALHO ANALISTA DO MP SERRO - COMARCA; SERRO-PJ-UNPJ 9.444,70 944,47 0,00 0,00 0,00 0,00 0,00 1.550,00 11.939,17 1.142,81 1.516,98 0,00 0,00 2.659,79 9.279,38 31/10/2020
85 256300 ALEXANDRA SANTOS GOMES OFICIAL DO MP BELO HORIZONTE - COMARCA; DIRETORIA GESTAO COMPRAS LICITACOES 9.146,93 2.744,08 0,00 0,00 0,00 0,00 0,00 1.550,00 13.441,01 1.308,01 2.040,97 0,00 0,00 3.348,98 10.092,03 31/10/2020
86 403300 ALEXANDRE AUGUSTO RODRIGUES ANALISTA DO MP ÁGUAS FORMOSAS - COMARCA; AGUAS FORMOSAS-PJ-UNPJ 10.069,62 2.013,92 0,00 0,00 0,00 0,00 0,00 2.319,39 14.402,93 1.329,19 2.088,09 0,00 0,00 3.417,28 10.985,65 31/10/2020
87 640900 ALEXANDRE BARBOSA MASCARENHAS ANALISTA DO MP BETIM - COMARCA; BETIM-PJ-02PJ 6.123,79 367,43 0,00 0,00 0,00 0,00 0,00 1.550,00 8.041,22 671,12 368,39 0,00 0,00 1.039,51 7.001,71 31/10/2020
88 311700 ALEXANDRE BARCELOS RESENDE OFICIAL DO MP BELO HORIZONTE - COMARCA; BH-19PJ SAUDE-SECRETARIA 047PJ 7.663,37 1.532,67 0,00 0,00 0,00 0,00 0,00 2.319,39 11.515,43 1.011,56 1.381,37 0,00 0,00 2.392,93 9.122,50 31/10/2020
89 285600 ALEXANDRE CAMPOS DE OLIVEIRA OFICIAL DO MP UBERABA - COMARCA; COORD REG BACIAS PARANAIBA BAIXO RIO GRANDE 10.069,62 3.020,89 0,00 0,00 0,00 0,00 0,00 1.550,00 14.640,51 1.439,96 2.178,13 0,00 0,00 3.618,09 11.022,42 31/10/2020
90 509200 ALEXANDRE CAPUANO DE REZENDE ANALISTA DO MP BELO HORIZONTE - COMARCA; GABINETE DE PROCURADOR DE JUSTIÇA - SALA 715 10.069,62 1.006,96 0,00 0,00 0,00 0,00 0,00 1.550,00 12.626,58 1.218,42 1.789,50 0,00 0,00 3.007,92 9.618,66 31/10/2020
91 229400 ALEXANDRE CARLOS BOTREL DIRETOR/OFICIAL BELO HORIZONTE - COMARCA; SUPERINTENDENCIA DOS ORGAOS COLEGIADOS 0,00 5.224,18 17.413,92 0,00 0,00 0,00 0,00 1.550,00 24.188,10 1.801,99 4.859,44 0,00 0,00 6.661,43 17.526,67 31/10/2020
92 411900 ALEXANDRE CARVALHO SANTOS RIBEIRO ANALISTA DO MP OLIVEIRA - COMARCA; OLIVEIRA-PJ-02PJ 12.601,30 2.520,26 0,00 0,00 0,00 0,00 0,00 3.088,78 18.210,34 1.663,37 2.831,64 0,00 0,00 4.495,01 13.715,33 31/10/2020
93 641600 ALEXANDRE DA SILVA ASSUNCAO OFICIAL DO MP BELO HORIZONTE - COMARCA; SERVICO MEDICO-DEPTO PERIC MEDICA SAUDE OCUP 4.376,03 262,56 0,00 0,00 0,00 0,00 0,00 1.550,00 6.188,59 510,24 292,75 0,00 0,00 802,99 5.385,60 31/10/2020
94 201200 ALEXANDRE DE ALENCAR CORDEIRO OFICIAL DO MP ÁGUAS FORMOSAS - COMARCA; AGUAS FORMOSAS-PJ-UNPJ 6.123,79 3.061,90 0,00 0,00 0,00 0,00 0,00 1.550,00 10.735,69 1.010,43 1.378,84 0,00 0,00 2.389,27 8.346,42 31/10/2020
95 288200 ALEXANDRE DE VASCONCELOS COSTA KER ANALISTA DO MP BELO HORIZONTE - COMARCA; BH-03PJ EMPRESARIAL-SECRETARIA 15.272,02 4.581,61 0,00 0,00 0,00 0,00 2.042,16 1.550,00 23.445,79 2.408,54 4.437,50 0,00 0,00 6.846,04 16.599,75 31/10/2020
96 445000 ALEXANDRE DIOGENES OLIVEIRA ANALISTA DO MP SALINAS - COMARCA; SALINAS-PJ-02PJ 10.069,62 2.013,92 0,00 0,00 0,00 0,00 359,08 2.319,39 14.762,01 1.368,69 2.175,97 0,00 0,00 3.544,66 11.217,35 31/10/2020
97 463400 ALEXANDRE LEAL WINKELSTROTER ANALISTA DO MP TEÓFILO OTONI - COMARCA; TEOFILO OTONI-PJ-04PJ 10.069,62 1.006,96 0,00 0,00 0,00 0,00 0,00 1.550,00 12.626,58 1.218,42 1.841,63 0,00 0,00 3.060,05 9.566,53 31/10/2020
98 615700 ALEXANDRE LUIZ DE CASTRO MACIEL ANALISTA DO MP IBIRITÉ - COMARCA; IBIRITE-PJ-02PJ 8.170,49 817,05 0,00 0,00 0,00 0,00 0,00 1.550,00 10.537,54 988,63 1.330,34 0,00 0,00 2.318,97 8.218,57 31/10/2020
99 356900 ALEXANDRE MOISES MENDONCA E ARAUJO OFICIAL DO MP UBERABA - COMARCA; UBERABA-PJ-13PJ 6.741,63 1.348,33 0,00 0,00 0,00 0,00 0,00 1.550,00 9.639,96 889,90 1.110,66 0,00 0,00 2.000,56 7.639,40 31/10/2020
100 633300 ALEXANDRE NONATO MARTINS OFICIAL DO MP IGARAPÉ - COMARCA; IGARAPE-PJ-02PJ 4.376,03 437,60 0,00 0,00 0,00 0,00 0,00 1.550,00 6.363,63 529,50 285,14 0,00 0,00 814,64 5.548,99 31/10/2020
101 469900 ALEXANDRE PEREIRA GUEDES ANALISTA DO MP CATAGUASES - COMARCA; CATAGUASES-PJ-03PJ 10.069,62 1.006,96 0,00 0,00 0,00 0,00 0,00 1.550,00 12.626,58 1.218,42 1.841,63 0,00 0,00 3.060,05 9.566,53 31/10/2020
102 208700 ALEXANDRE RESENDE FRAGA ANALISTA DO MP BELO HORIZONTE - COMARCA; BH-19PJ SAUDE-SECRETARIA 130PJ 18.820,14 7.528,06 0,00 0,00 0,00 0,00 0,00 1.550,00 27.898,20 2.898,30 5.422,95 0,00 0,00 8.321,25 19.576,95 31/10/2020
103 216401 ALEXANDRE RIBEIRO DE LIMA MAIORINO ANALISTA DO MP UBERABA - COMARCA; UBERABA-PJ-03PJ 15.272,02 6.108,81 0,00 0,00 0,00 0,00 0,00 1.550,00 22.930,83 2.351,89 4.311,46 0,00 0,00 6.663,35 16.267,48 31/10/2020
104 475100 ALEXANDRE TEOTONIO COSTA ANALISTA DO MP ARAGUARI - COMARCA; ARAGUARI-PJ-01PJ 10.069,62 1.006,96 0,00 0,00 0,00 0,00 0,00 1.550,00 12.626,58 1.218,42 1.737,36 0,00 0,00 2.955,78 9.670,80 31/10/2020
105 339000 ALEXANDRE VITOR CARDOSO OFICIAL DO MP BELO HORIZONTE - COMARCA; PROMOT ESTADUAL DE DEF PATRI CULT E TUR DE MG 6.123,79 1.224,76 0,00 0,00 0,00 0,00 0,00 1.550,00 8.898,55 808,34 772,79 0,00 0,00 1.581,13 7.317,42 31/10/2020
106 678900 ALEXIA DUARTE TORRES ASSESSOR PROCURADOR JUSTICA BELO HORIZONTE - COMARCA; GABINETE DE PROCURADOR DE JUSTIÇA - SALA 502 0,00 0,00 7.187,72 0,00 0,00 0,00 0,00 1.550,00 8.737,72 713,09 1.213,66 0,00 0,00 1.926,75 6.810,97 31/10/2020
107 623100 ALEXSANDER BATISTA AGUIAR ANALISTA DO MP BELO HORIZONTE - COMARCA; DIRETORIA DE SUPORTE E MANUTENCAO 8.170,49 817,05 0,00 0,00 0,00 0,00 0,00 2.319,39 11.306,93 988,63 1.173,93 0,00 0,00 2.162,56 9.144,37 31/10/2020
108 513300 ALFSON MIRANDA BRAGA ANALISTA DO MP BELO HORIZONTE - COMARCA; BH-12PJ JUIZO CRIMINAL-GAB 092PJ 10.069,62 1.006,96 0,00 0,00 0,00 0,00 0,00 1.550,00 12.626,58 1.218,42 1.841,63 0,00 0,00 3.060,05 9.566,53 31/10/2020
109 618400 ALICE MAGALHAES MACEDO DE CARVALHO ANALISTA DO MP IPATINGA - COMARCA; IPATINGA-PJ-10PJ 8.170,49 817,05 0,00 0,00 0,00 0,00 0,00 2.319,39 11.306,93 988,63 1.330,34 0,00 0,00 2.318,97 8.987,96 31/10/2020
110 471000 ALICE TITONELI MOREIRA ANALISTA DO MP MIRADOURO - COMARCA; MIRADOURO-PJ-UNPJ 10.069,62 1.006,96 0,00 0,00 0,00 0,00 0,00 2.319,39 13.395,97 1.218,42 1.789,50 0,00 0,00 3.007,92 10.388,05 31/10/2020
111 622400 ALINE BALBINO PORTUGAL LOPES ANALISTA DO MP TRÊS PONTAS - COMARCA; TRES PONTAS-PJ-03PJ 8.170,49 817,05 0,00 0,00 0,00 0,00 0,00 2.319,39 11.306,93 988,63 1.330,34 0,00 0,00 2.318,97 8.987,96 31/10/2020
112 373000 ALINE BOTELHO RESENDE OFICIAL DO MP JUIZ DE FORA - COMARCA; JUIZ DE FORA-PJ-22PJ 8.436,53 1.687,31 0,00 0,00 0,00 0,00 0,00 1.550,00 11.673,84 1.113,62 1.608,45 0,00 0,00 2.722,07 8.951,77 31/10/2020
113 407700 ALINE CRISTINA RODRIGUES PEREIRA COORDENADOR/ANALISTA BELO HORIZONTE - COMARCA; DIRETORIA DE PROJETOS DE EDIFICACOES 0,00 2.687,03 13.435,16 0,00 0,00 0,00 0,00 2.319,39 18.441,58 1.329,19 3.198,72 0,00 0,00 4.527,91 13.913,67 31/10/2020
114 193100 ALINE CRISTINA SENA OLIVEIRA OFICIAL DO MP UBERLÂNDIA - COMARCA; UBERLANDIA-PJ-03PJ 14.324,23 5.729,69 0,00 0,00 0,00 0,00 0,00 2.319,39 22.373,31 2.205,93 3.986,70 0,00 0,00 6.192,63 16.180,68 31/10/2020
115 554200 ALINE CRISTINA SILVA SOUZA OFICIAL DO MP TIROS - COMARCA; TIROS-PJ-UNPJ 5.387,19 538,72 0,00 0,00 0,00 0,00 0,00 1.550,00 7.475,91 651,85 581,01 0,00 0,00 1.232,86 6.243,05 31/10/2020
116 505500 ALINE DA CUNHA MARREIROS OLIVEIRA ANALISTA DO MP CARANGOLA - COMARCA; CARANGOLA-PJ-03PJ 10.069,62 1.006,96 0,00 0,00 0,00 0,00 0,00 2.319,39 13.395,97 1.218,42 1.789,50 0,00 0,00 3.007,92 10.388,05 31/10/2020
117 433500 ALINE DE MELO QUEIROZ ASSESSOR/OFICIAL BELO HORIZONTE - COMARCA; ASSESSORIA TECNICA DO PROCON-MG 0,00 2.079,50 10.397,52 0,00 0,00 0,00 0,00 2.319,39 14.796,41 1.044,50 2.264,94 0,00 32,93 3.342,37 11.454,04 31/10/2020
118 542700 ALINE DE SOUSA ALBINO ANALISTA DO MP CONTAGEM - COMARCA; CONTAGEM-PJ-03PJ 8.436,53 843,65 0,00 0,00 0,00 0,00 0,00 1.550,00 10.830,18 1.020,82 1.401,96 0,00 0,00 2.422,78 8.407,40 31/10/2020
119 330000 ALINE DIORIO MAYRINK OFICIAL DO MP BELO HORIZONTE - COMARCA; BH-18PJ DIREITOS HUMANOS-SECRETARIA 6.961,05 1.392,21 0,00 0,00 0,00 0,00 0,00 1.550,00 9.903,26 918,86 1.175,10 0,00 0,00 2.093,96 7.809,30 31/10/2020
120 499000 ALINE FERREIRA LOPES ANALISTA DO MP TEÓFILO OTONI - COMARCA; COORD. DE DEF. DO PAT. PUBLICO-JEQUIT./MUCURI 10.069,62 1.006,96 0,00 0,00 0,00 0,00 0,00 1.550,00 12.626,58 1.218,42 1.841,63 0,00 0,00 3.060,05 9.566,53 31/10/2020
121 405300 ALINE LAIA CARDOZO DIRETOR/ANALISTA BELO HORIZONTE - COMARCA; SUPERINTENDENCIA LOGISTICA SERVICOS 0,00 3.482,78 17.413,92 0,00 0,00 0,00 0,00 1.550,00 22.446,70 1.717,52 4.390,03 0,00 54,14 6.161,69 16.285,01 31/10/2020
122 278200 ALINE MARCIA FARIA BARBOSA FERNANDES OFICIAL DO MP BARBACENA - COMARCA; BARBACENA-PJ-SECRETARIA 6.741,63 2.022,49 0,00 0,00 0,00 0,00 0,00 1.550,00 10.314,12 964,05 1.119,25 0,00 0,00 2.083,30 8.230,82 31/10/2020
123 389000 ALINE NERI NOBRE ANALISTA DO MP MONTES CLAROS - COMARCA; COORD REG PJ DEF EDUC DIR CRIANCA ADOL NORTE 13.011,52 3.903,46 0,00 0,00 0,00 0,00 0,00 1.550,00 18.464,98 1.860,65 3.270,58 0,00 0,00 5.131,23 13.333,75 31/10/2020
124 294600 ALINE PATRICIA SILVA VIEIRA OFICIAL DO MP UBERLÂNDIA - COMARCA; UBERLANDIA-PJ-03PJ 10.069,62 3.020,89 0,00 0,00 0,00 0,00 1.445,27 1.550,00 16.085,78 1.439,96 2.627,72 0,00 0,00 4.067,68 12.018,10 31/10/2020
125 420000 ALINE RODRIGUES CAMOROPIN ANALISTA DO MP SABARÁ - COMARCA; SABARA-PJ-02PJ 12.601,30 2.520,26 0,00 0,00 0,00 0,00 0,00 1.550,00 16.671,56 1.663,37 2.831,64 0,00 0,00 4.495,01 12.176,55 31/10/2020
126 408300 ALINE SILVA ARAUJO DE PAULA ANALISTA DO MP SÃO SEBASTIÃO DO PARAÍSO - COMARCA; SAO SEBASTIAO DO PARAISO-PJ-02PJ 12.601,30 2.520,26 0,00 0,00 0,00 0,00 0,00 2.319,39 17.440,95 1.663,37 2.831,64 0,00 0,00 4.495,01 12.945,94 31/10/2020
127 425400 ALINE TRINDADE DE FREITAS CAMPOS OFICIAL DO MP BELO HORIZONTE - COMARCA; BH-14PJ DEFESA CONSUMIDOR-SECRETARIA 7.912,85 1.582,57 0,00 0,00 0,00 0,00 0,00 1.550,00 11.045,42 1.044,50 1.454,64 0,00 0,00 2.499,14 8.546,28 31/10/2020
128 517200 ALISSOM PEREIRA DA SILVA ANALISTA DO MP BORDA DA MATA - COMARCA; BORDA DA MATA-PJ-UNPJ 10.069,62 1.006,96 0,00 0,00 0,00 0,00 0,00 1.550,00 12.626,58 1.218,42 1.841,63 0,00 0,00 3.060,05 9.566,53 31/10/2020
129 442400 ALISSON LABRE ANALISTA DO MP VARGINHA - COMARCA; VARGINHA-PJ-03PJ 10.069,62 2.013,92 0,00 0,00 0,00 0,00 635,29 2.319,39 15.038,22 1.399,07 2.243,57 0,00 0,00 3.642,64 11.395,58 31/10/2020
130 643800 ALLAN PAUL FONSECA DE CASTRO ASSESSOR/OFICIAL CONTAGEM - COMARCA; CONTAGEM-PJ-SECRETARIA 0,00 623,85 10.397,52 0,00 0,00 0,00 0,00 2.550,21 13.571,58 544,01 2.011,91 0,00 0,00 2.555,92 11.015,66 31/10/2020
131 612900 ALLAN VINICIUS VIEIRA ARAUJO COORDENADOR/OFICIAL BELO HORIZONTE - COMARCA; DIVISAO TRANSPORTES 0,00 1.181,92 11.819,15 0,00 0,00 0,00 0,00 1.550,00 14.551,07 631,30 2.532,33 0,00 0,00 3.163,63 11.387,44 31/10/2020
132 349000 ALLEC RODRIGUES VIEIRA OFICIAL DO MP BELO HORIZONTE - COMARCA; COORD EST DEF DIR FAM PESSOAS DEFICI IDOSOS 9.146,93 1.829,39 0,00 0,00 0,00 0,00 0,00 1.550,00 12.526,32 1.207,40 1.816,36 0,00 0,00 3.023,76 9.502,56 31/10/2020
133 297300 ALLYSON SALIBA MONTEIRO LAIZO ANALISTA DO MP CONSELHEIRO LAFAIETE - COMARCA; CONSELHEIRO LAFAIETE-PJ-03PJ 16.750,82 5.025,25 0,00 0,00 0,00 0,00 0,00 3.088,78 24.864,85 2.395,37 4.460,33 0,00 0,00 6.855,70 18.009,15 31/10/2020
134 303700 ALMIR LOPES LOURES ANALISTA DO MP BELO HORIZONTE - COMARCA; CENTRAL DE APOIO TECN-SETOR DE MEIO AMBIENTE 16.750,82 5.025,25 0,00 0,00 0,00 0,00 0,00 1.550,00 23.326,07 2.395,37 4.460,33 0,00 0,00 6.855,70 16.470,37 31/10/2020
135 515900 ALTAIR NEVES JUNIOR OFICIAL DO MP BELO HORIZONTE - COMARCA; BH-01PJ FAZENDA PUBLICA-SECRETARIA 6.741,63 674,16 0,00 0,00 0,00 0,00 0,00 1.550,00 8.965,79 815,74 945,65 0,00 0,00 1.761,39 7.204,40 31/10/2020
136 233300 ALVARINDO BATISTA ANALISTA DO MP BELO HORIZONTE - COMARCA; NUCLEO APOIO TECNICO ESP COMUNICACAO 18.820,14 5.646,04 0,00 0,00 0,00 0,00 0,00 2.319,39 26.785,57 2.691,28 5.066,60 0,00 0,00 7.757,88 19.027,69 31/10/2020
137 274100 ALYSSON CARVALHO VIDAL DE LACERDA OFICIAL DO MP MANHUAÇU - COMARCA; MANHUACU-PJ-01PJ 10.069,62 3.020,89 0,00 0,00 0,00 0,00 0,00 1.550,00 14.640,51 1.439,96 2.334,54 0,00 0,00 3.774,50 10.866,01 31/10/2020
138 680200 ALYSSON ROCHA OLIVEIRA ASSESSOR PROMOTOR JUSTICA CONSELHEIRO PENA - COMARCA; CONSELHEIRO PENA-PJ-01PJ 0,00 0,00 7.187,72 0,00 0,00 0,00 0,00 1.550,00 8.737,72 713,09 1.213,66 0,00 0,00 1.926,75 6.810,97 31/10/2020
139 621000 AMANDA BASTOS ALVES ANALISTA DO MP BELO HORIZONTE - COMARCA; ASSESS TECNICO-JUR JUNTO AS PROC. DE JUST 8.170,49 817,05 0,00 0,00 0,00 0,00 0,00 1.550,00 10.537,54 988,63 1.330,34 0,00 0,00 2.318,97 8.218,57 31/10/2020
140 521700 AMANDA CRISTINA AGUIAR MACHADO OFICIAL DO MP CONGONHAS - COMARCA; CONGONHAS-PJ-01PJ 5.387,19 538,72 0,00 0,00 0,00 0,00 0,00 1.550,00 7.475,91 651,85 528,87 0,00 0,00 1.180,72 6.295,19 31/10/2020
141 613400 AMANDA DE ASSIS IUNES SANTOS ANALISTA DO MP CONGONHAS - COMARCA; CONGONHAS-PJ-01PJ 8.170,49 817,05 0,00 0,00 0,00 0,00 0,00 1.550,00 10.537,54 988,63 1.330,34 0,00 0,00 2.318,97 8.218,57 31/10/2020
142 520800 AMANDA DE SOUZA MACHADO ANALISTA DO MP BAEPENDI - COMARCA; BAEPENDI-PJ-UNPJ 10.069,62 1.006,96 0,00 0,00 0,00 0,00 0,00 1.550,00 12.626,58 1.218,42 1.737,36 0,00 0,00 2.955,78 9.670,80 31/10/2020
143 663900 AMANDA DENISE GONCALVES DA SILVA ASSESSOR BELO HORIZONTE - COMARCA; DIRET DE FORMACAO, APERFEIC. E POS-GRADUACAO 0,00 0,00 3.076,28 0,00 0,00 0,00 0,00 1.550,00 4.626,28 474,92 200,40 0,00 0,00 675,32 3.950,96 31/10/2020
144 677000 AMANDA LETICIA MESSIAS PEGO ASSESSOR PROMOTOR JUSTICA SÃO JOÃO DA PONTE - COMARCA; SAO JOAO DA PONTE-PJ-SECRETARIA 0,00 0,00 7.187,72 0,00 0,00 0,00 0,00 1.550,00 8.737,72 713,09 1.213,66 0,00 0,00 1.926,75 6.810,97 31/10/2020
145 543100 AMANDA VIEIRA FREITAS BRESSANE ANALISTA DO MP VARGINHA - COMARCA; COORD REG DEF ORDEM ECONOMICA TRIB SUL MINAS 8.436,53 843,65 0,00 0,00 0,00 0,00 0,00 1.550,00 10.830,18 1.020,82 1.401,96 0,00 0,00 2.422,78 8.407,40 31/10/2020
146 434400 AMARILIS ASSIS SIMAO CURCIO ANALISTA DO MP MANHUAÇU - COMARCA; MANHUACU-PJ-SECRETARIA 10.069,62 2.013,92 0,00 0,00 0,00 0,00 0,00 1.550,00 13.633,54 1.329,19 2.088,09 0,00 0,00 3.417,28 10.216,26 31/10/2020
147 652000 AMAURI SILVA ALVES OFICIAL DO MP BELO HORIZONTE - COMARCA; BH-23PJ INFRACIONAL-SEC EXP 4.238,09 254,29 0,00 0,00 0,00 0,00 246,46 1.550,00 6.288,84 521,27 311,16 0,00 0,00 832,43 5.456,41 31/10/2020
148 273700 AMBROLINA CARNEIRO DE VASCONCELOS OFICIAL DO MP FRUTAL - COMARCA; FRUTAL-PJ-01PJ 10.736,08 7.515,26 0,00 0,00 0,00 0,00 0,00 1.550,00 19.801,34 2.007,65 3.545,52 0,00 0,00 5.553,17 14.248,17 31/10/2020
149 58000 AMELIA GUARIZE DE CASTRO OFICIAL DO MP JUIZ DE FORA - COMARCA; JUIZ DE FORA-PJ-SECRETARIA 6.741,63 6.741,63 0,00 0,00 0,00 1.590,94 0,00 1.550,00 16.624,20 1.483,16 2.838,54 0,00 0,00 4.321,70 12.302,50 31/10/2020
150 324301 AMERICA SUELI FERREIRA DA SILVA ANALISTA DO MP MONTE CARMELO - COMARCA; MONTE CARMELO-PJ-02PJ 10.069,62 1.006,96 0,00 0,00 0,00 0,00 0,00 2.319,39 13.395,97 1.218,42 1.789,50 0,00 0,00 3.007,92 10.388,05 31/10/2020
151 273300 AMUJACY DE BRITO ASSIZ OFICIAL DO MP BELO HORIZONTE - COMARCA; BH-12PJ JUIZO CRIMINAL-SECRETARIA 10.069,62 3.020,89 0,00 0,00 0,00 0,00 0,00 1.550,00 14.640,51 1.439,96 2.125,99 0,00 0,00 3.565,95 11.074,56 31/10/2020
152 482200 ANA ALICE LOPES ACHTSCHIN ANALISTA DO MP BELO HORIZONTE - COMARCA; PROC JUST RECURSOS ESP E EXTRAORD CRIMINAIS 10.397,52 1.039,75 0,00 0,00 0,00 0,00 0,00 1.550,00 12.987,27 1.258,10 1.929,91 0,00 0,00 3.188,01 9.799,26 31/10/2020
153 490400 ANA AMELIA PAULINO GARCIA OFICIAL DO MP CONTAGEM - COMARCA; CONTAGEM-PJ-SECRETARIA 7.421,79 742,18 0,00 0,00 0,00 0,00 0,00 1.550,00 9.713,97 898,04 1.128,77 0,00 0,00 2.026,81 7.687,16 31/10/2020
154 690400 ANA ANGELICA MOREIRA DA CUNHA ASSESSOR PROMOTOR JUSTICA TIMÓTEO - COMARCA; TIMOTEO-PJ-02PJ 0,00 0,00 7.187,72 0,00 0,00 0,00 718,77 2.150,00 10.056,49 713,09 1.452,57 0,00 0,00 2.165,66 7.890,83 31/10/2020
155 279100 ANA CAROLINA ARAUJO PEREIRA ANALISTA DO MP BELO HORIZONTE - COMARCA; DIRETORIA DE PROJETOS DE EDIFICACOES 16.750,82 5.025,25 0,00 0,00 0,00 0,00 0,00 1.550,00 23.326,07 2.395,37 4.408,20 0,00 0,00 6.803,57 16.522,50 31/10/2020
156 653300 ANA CAROLINA CYRNE DINIZ ASSESSOR BELO HORIZONTE - COMARCA; CENTRAL DE APOIO TECNICO-SETOR CONTABIL 0,00 0,00 8.170,49 0,00 0,00 0,00 0,00 1.550,00 9.720,49 713,09 1.483,92 0,00 0,00 2.197,01 7.523,48 31/10/2020
157 359400 ANA CAROLINA DE ABREU FARIA ASSESSOR BELO HORIZONTE - COMARCA; SUPERINTENDÊNCIA DE ENGENHARIA E ARQUITETURA 0,00 0,00 10.397,52 0,00 0,00 0,00 0,00 1.550,00 11.947,52 713,09 2.096,36 0,00 0,00 2.809,45 9.138,07 31/10/2020
158 408500 ANA CAROLINA DE CASTRO CARVALHO ANALISTA DO MP BARBACENA - COMARCA; BARBACENA - SECRETARIA DAS PJS CRIMINAIS 12.601,30 2.520,26 0,00 0,00 0,00 0,00 1.067,20 1.550,00 17.738,76 1.780,76 3.092,84 0,00 0,00 4.873,60 12.865,16 31/10/2020
159 688000 ANA CAROLINA DE OLIVEIRA PINTO ASSESSOR PROCURADOR JUSTICA BELO HORIZONTE - COMARCA; GABINETE DE PROCURADOR DE JUSTIÇA - SALA 1014 0,00 0,00 7.187,72 0,00 0,00 0,00 2.395,91 2.400,00 11.983,63 713,09 1.982,54 0,00 0,00 2.695,63 9.288,00 31/10/2020
160 420200 ANA CAROLINA FERNANDES SILVA ANALISTA DO MP BELO HORIZONTE - COMARCA; GABINETE DE PROCURADOR DE JUSTIÇA - SALA 704 12.204,02 2.440,80 0,00 0,00 0,00 0,00 0,00 1.550,00 16.194,82 1.610,93 2.714,96 0,00 0,00 4.325,89 11.868,93 31/10/2020
161 522100 ANA CAROLINA FERNANDINO VIDAL PEREIRA SANTOS OFICIAL DO MP BELO HORIZONTE - COMARCA; SECRETARIA DO PROCON-MG 6.741,63 674,16 0,00 0,00 0,00 0,00 0,00 1.550,00 8.965,79 815,74 945,65 0,00 0,00 1.761,39 7.204,40 31/10/2020
162 502400 ANA CAROLINA GONCALVES FERNANDES ANALISTA DO MP IPATINGA - COMARCA; IPATINGA-PJ-01PJ 10.069,62 1.006,96 0,00 0,00 0,00 0,00 0,00 2.319,39 13.395,97 1.218,42 1.841,63 0,00 0,00 3.060,05 10.335,92 31/10/2020
163 529900 ANA CAROLINA GONCALVES PECANHA CHEQUER ANALISTA DO MP MANHUAÇU - COMARCA; MANHUACU-PJ-04PJ 8.436,53 843,65 0,00 0,00 0,00 0,00 0,00 3.422,18 12.702,36 1.020,82 1.401,96 0,00 0,00 2.422,78 10.279,58 31/10/2020
164 431900 ANA CAROLINA MOTTA GUATIMOSIM ANALISTA DO MP BELO HORIZONTE - COMARCA; ASSESSORIA JURIDICO-ADMINISTRATIVA 12.204,02 2.440,80 0,00 0,00 0,00 0,00 0,00 2.319,39 16.964,21 1.610,93 2.714,96 0,00 0,00 4.325,89 12.638,32 31/10/2020
165 490600 ANA CAROLINA XAVIER GODOY ANALISTA DO MP BELO HORIZONTE - COMARCA; ASSESS TECNICO-JUR JUNTO AS PROC. DE JUST 10.069,62 1.006,96 0,00 0,00 0,00 0,00 0,00 3.088,78 14.165,36 1.218,42 1.737,36 0,00 0,00 2.955,78 11.209,58 31/10/2020
166 600300 ANA CAROLINE PEREIRA DINIZ ANALISTA DO MP BELO HORIZONTE - COMARCA; COMB CRIMES PRAT POR AG POL MUN-SECRETARIA 8.436,53 843,65 0,00 0,00 0,00 0,00 0,00 2.319,39 11.599,57 1.020,82 1.401,96 0,00 0,00 2.422,78 9.176,79 31/10/2020
167 615800 ANA CAROLINE PEREIRA OLIVEIRA OFICIAL DO MP ALFENAS - COMARCA; ALFENAS-PJ-06PJ 5.217,34 521,73 0,00 0,00 0,00 0,00 0,00 1.550,00 7.289,07 631,30 535,28 0,00 0,00 1.166,58 6.122,49 31/10/2020
168 324800 ANA CECILIA MENDES DA SILVA OFICIAL DO MP OURO FINO - COMARCA; OURO FINO-PJ-01PJ 10.069,62 3.020,89 0,00 0,00 0,00 0,00 0,00 1.550,00 14.640,51 1.439,96 2.282,40 0,00 0,00 3.722,36 10.918,15 31/10/2020
169 441300 ANA CLAUDIA ALKIMIM MIRANDA BOMTEMPO ANALISTA DO MP MONTES CLAROS - COMARCA; MONTES CLAROS-PJ-11PJ 12.204,02 2.440,80 0,00 0,00 0,00 0,00 0,00 1.550,00 16.194,82 1.610,93 2.610,69 0,00 0,00 4.221,62 11.973,20 31/10/2020
170 642500 ANA CLAUDIA DA COSTA NAVES OFICIAL DO MP MONTE CARMELO - COMARCA; MONTE CARMELO-PJ-02PJ 4.238,09 254,29 0,00 0,00 0,00 0,00 0,00 2.319,39 6.811,77 494,16 263,47 0,00 0,00 757,63 6.054,14 31/10/2020
171 604900 ANA CLAUDIA OLIVEIRA DE MIRANDA OFICIAL DO MP PONTE NOVA - COMARCA; PONTE NOVA-PJ-04PJ 4.974,42 497,44 0,00 0,00 0,00 0,00 0,00 1.550,00 7.021,86 601,90 417,74 0,00 0,00 1.019,64 6.002,22 31/10/2020
172 379300 ANA CRISTINA ALVES FLAVIO ANALISTA DO MP SÃO GOTARDO - COMARCA; SAO GOTARDO-PJ-01PJ 13.011,52 2.602,30 0,00 0,00 0,00 0,00 0,00 2.319,39 17.933,21 1.717,52 2.899,99 0,00 0,00 4.617,51 13.315,70 31/10/2020
173 461200 ANA CRISTINA ALVES PASCHOAL ANALISTA DO MP SANTA LUZIA - COMARCA; SANTA LUZIA-PJ-03PJ 10.069,62 1.006,96 0,00 0,00 0,00 0,00 0,00 1.550,00 12.626,58 1.218,42 1.789,50 0,00 0,00 3.007,92 9.618,66 31/10/2020
174 514100 ANA CRISTINA ARAUJO ASSUNCAO ANALISTA DO MP BELO HORIZONTE - COMARCA; ASSESS JUR DO CONS SUPERIOR DO MINISTERIO PUB 10.069,62 1.006,96 0,00 0,00 0,00 0,00 0,00 2.319,39 13.395,97 1.218,42 1.789,50 0,00 0,00 3.007,92 10.388,05 31/10/2020
175 113400 ANA CRISTINA BRAGA ALBUQUERQUE ASSESSOR/ANALISTA BELO HORIZONTE - COMARCA; ASSESS ESP ADM E FINANCEIRA DO PGJ ADJ ADM 30.090,04 21.063,02 0,00 0,00 0,00 39.363,06 0,00 1.550,00 92.066,12 3.900,84 13.173,67 15.690,84 0,00 32.765,35 59.300,77 31/10/2020
176 233800 ANA CRISTINA BRAGA SOARES OFICIAL DO MP CONTAGEM - COMARCA; CONTAGEM-PJ-SECRETARIA 10.397,52 3.119,26 0,00 0,00 0,00 0,00 0,00 1.550,00 15.066,78 1.486,85 2.334,60 0,00 0,00 3.821,45 11.245,33 31/10/2020
177 186400 ANA CRISTINA DE AZEVEDO LOPES OFICIAL DO MP UBÁ - COMARCA; UBA-PJ-01PJ 14.324,23 5.729,69 0,00 0,00 0,00 0,00 0,00 1.550,00 21.603,92 2.205,93 4.038,84 0,00 0,00 6.244,77 15.359,15 31/10/2020
178 465100 ANA CRISTINA DE OLIVEIRA GUIMARAES ANALISTA DO MP ITAJUBA - COMARCA; ITAJUBA-PJ-05PJ 10.069,62 1.006,96 0,00 0,00 0,00 0,00 0,00 3.088,78 14.165,36 1.218,42 1.737,36 0,00 0,00 2.955,78 11.209,58 31/10/2020
179 500600 ANA CRISTINA LATADO SUDARIO ANALISTA DO MP UBERLÂNDIA - COMARCA; UBERLANDIA-PJ-09PJ 10.069,62 1.006,96 0,00 0,00 3.692,19 0,00 0,00 1.550,00 16.318,77 1.218,42 2.856,99 0,00 0,00 4.075,41 12.243,36 31/10/2020
180 331400 ANA CRISTINA RIBEIRO ALVES OFICIAL DO MP BAMBUÍ - COMARCA; BAMBUI-PJ-UNPJ 8.858,43 2.657,53 0,00 0,00 0,00 0,00 633,45 1.550,00 13.699,41 1.336,44 2.052,07 0,00 0,00 3.388,51 10.310,90 31/10/2020
181 249300 ANA ELOINA MARTINS OFICIAL DO MP BETIM - COMARCA; BETIM-PJ-02PJ 12.204,02 4.881,61 0,00 0,00 0,00 0,00 0,00 1.550,00 18.635,63 1.879,42 3.312,35 0,00 0,00 5.191,77 13.443,86 31/10/2020
182 257400 ANA FLAVIA CAMBRAIA ANALISTA DO MP BELO HORIZONTE - COMARCA; BH-19PJ SAUDE-SECRETARIA 150PJ 17.413,92 5.224,18 0,00 0,00 0,00 0,00 0,00 1.550,00 24.188,10 2.490,19 4.619,18 0,00 0,00 7.109,37 17.078,73 31/10/2020
183 248201 ANA FLAVIA DE MORAIS SOUZA ANALISTA DO MP DIVINÓPOLIS - COMARCA; DIVINOPOLIS-PJ-01PJ 10.069,62 3.020,89 0,00 0,00 0,00 0,00 0,00 2.319,39 15.409,90 1.439,96 2.230,27 0,00 0,00 3.670,23 11.739,67 31/10/2020
184 621100 ANA FLAVIA DINIZ TEODORO OFICIAL DO MP SANTA LUZIA - COMARCA; SANTA LUZIA-PJ-06PJ 5.217,34 521,73 0,00 0,00 0,00 0,00 0,00 1.550,00 7.289,07 631,30 535,28 0,00 0,00 1.166,58 6.122,49 31/10/2020
185 238600 ANA FLAVIA FRANCO OFICIAL DO MP BELO HORIZONTE - COMARCA; DIRETORIA DE PESSOAL ADMINISTRATIVO - DPAD 12.601,30 3.780,39 0,00 0,00 0,00 0,00 0,00 1.550,00 17.931,69 1.801,99 3.140,06 0,00 0,00 4.942,05 12.989,64 31/10/2020
186 690000 ANA FLAVIA LURIAN DE PAIVA ASSESSOR PROCURADOR JUSTICA BELO HORIZONTE - COMARCA; GABINETE DE PROCURADOR DE JUSTIÇA - SALA 609 0,00 0,00 7.187,72 0,00 0,00 0,00 2.395,91 2.400,00 11.983,63 713,09 1.982,54 0,00 0,00 2.695,63 9.288,00 31/10/2020
187 402900 ANA FLAVIA PORTES DE CARVALHO ANALISTA DO MP BELO HORIZONTE - COMARCA; DIRET DE PLANOS PROJETOS E PROGRAMAS INST 13.011,52 2.602,30 0,00 0,00 0,00 0,00 0,00 1.550,00 17.163,82 1.717,52 2.899,99 0,00 0,00 4.617,51 12.546,31 31/10/2020
188 382700 ANA KARENINA SALDANHA GONTIJO ANALISTA DO MP BELO HORIZONTE - COMARCA; ASSESS TECNICO-JUR JUNTO AS PROC. DE JUST 13.435,16 2.687,03 0,00 0,00 0,00 0,00 0,00 2.319,39 18.441,58 1.773,44 3.076,55 0,00 0,00 4.849,99 13.591,59 31/10/2020
189 620500 ANA KARINE DE ANDRADE OLIVEIRA ANALISTA DO MP RIBEIRÃO DAS NEVES - COMARCA; SEC PJ EXECUCAO PENAL RIBEIRAO NEVES 7.421,79 742,18 0,00 0,00 0,00 0,00 0,00 1.550,00 9.713,97 898,04 1.128,77 0,00 0,00 2.026,81 7.687,16 31/10/2020
190 462200 ANA LUCIA ANDRADE TOMICH OTTONI ANALISTA DO MP TEÓFILO OTONI - COMARCA; TEOFILO OTONI-PJ-07PJ 10.069,62 1.006,96 0,00 0,00 3.692,19 0,00 0,00 1.550,00 16.318,77 1.218,42 2.804,85 0,00 0,00 4.023,27 12.295,50 31/10/2020
191 504100 ANA LUCIA CATAO DE CARVALHO OFICIAL DO MP BELO HORIZONTE - COMARCA; BH-09PJ AUDITORIA MILITAR-SECRETARIA 7.421,79 742,18 0,00 0,00 0,00 0,00 0,00 2.319,39 10.483,36 898,04 1.076,63 0,00 0,00 1.974,67 8.508,69 31/10/2020
192 274700 ANA LUCIA DE ALENCAR BRAGATO OFICIAL DO MP UBERABA - COMARCA; UBERABA-PJ-07PJ 10.069,62 3.020,89 0,00 0,00 0,00 0,00 0,00 1.550,00 14.640,51 1.439,96 2.334,54 0,00 0,00 3.774,50 10.866,01 31/10/2020
193 509400 ANA LUCIA DORNELAS MALLOSTO ANALISTA DO MP JUIZ DE FORA - COMARCA; JUIZ DE FORA-PJ-25PJ 9.444,70 944,47 0,00 0,00 0,00 0,00 0,00 1.550,00 11.939,17 1.142,81 1.621,25 0,00 0,00 2.764,06 9.175,11 31/10/2020
194 302600 ANA LUCIA LOPES SANTOS OFICIAL DO MP BELO HORIZONTE - COMARCA; DIVISÃO DE FISCALIZAÇÃO DAS RELAÇÕES DE CONSU 10.069,62 3.020,89 0,00 0,00 0,00 0,00 1.445,27 1.550,00 16.085,78 1.439,96 2.679,85 0,00 0,00 4.119,81 11.965,97 31/10/2020
195 493400 ANA LUISA NOGUEIRA MOREIRA ANALISTA DO MP BELO HORIZONTE - COMARCA; BH-19PJ SAUDE-SECRETARIA 130PJ 10.069,62 1.006,96 0,00 0,00 0,00 0,00 406,14 5.980,63 17.463,35 1.218,42 1.841,63 0,00 0,00 3.060,05 14.403,30 31/10/2020
196 389300 ANA LUISA REUTER LIMA ANALISTA DO MP BELO HORIZONTE - COMARCA; DIRETORIA DE SISTEMAS DE INFORMACAO 10.736,08 2.147,22 0,00 0,00 0,00 0,00 0,00 1.550,00 14.433,30 1.417,16 2.283,83 0,00 0,00 3.700,99 10.732,31 31/10/2020
197 480600 ANA LUIZA FERNANDES FRAGA E GRECO OFICIAL DO MP BELO HORIZONTE - COMARCA; BH-23PJ CIVEL-SEC EXP CIVEIS 6.741,63 674,16 0,00 0,00 0,00 0,00 0,00 1.550,00 8.965,79 815,74 945,65 0,00 0,00 1.761,39 7.204,40 31/10/2020
198 481400 ANA MARCIA CANDIDA FERREIRA OFICIAL DO MP BRUMADINHO - COMARCA; BRUMADINHO-PJ-02PJ 6.123,79 612,38 0,00 0,00 0,00 0,00 371,46 1.550,00 8.657,63 781,84 870,23 0,00 0,00 1.652,07 7.005,56 31/10/2020
199 643100 ANA MARIA LOPES MIRANDA ANALISTA DO MP BELO HORIZONTE - COMARCA; CAO-FUNDACOES 7.187,72 431,26 0,00 0,00 0,00 0,00 0,00 1.550,00 9.168,98 671,12 1.041,30 0,00 0,00 1.712,42 7.456,56 31/10/2020
200 556400 ANA MARIA OLIVEIRA SOUZA OFICIAL DO MP ITAPECERICA - COMARCA; ITAPECERICA-PJ-UNPJ 5.387,19 538,72 0,00 0,00 0,00 0,00 345,37 1.550,00 7.821,28 689,84 665,54 0,00 0,00 1.355,38 6.465,90 31/10/2020
201 409600 ANA OLIVIA FARIA ROSENBURG ANALISTA DO MP BELO HORIZONTE - COMARCA; DIRETORIA DO COLEGIO E DA CAMARA DE PJ 12.601,30 3.780,39 0,00 0,00 0,00 0,00 0,00 1.550,00 17.931,69 1.801,99 3.140,06 0,00 0,00 4.942,05 12.989,64 31/10/2020
202 461500 ANA PAULA ALVES CARVALHO ANALISTA DO MP UBERLÂNDIA - COMARCA; UBERLANDIA-PJ-25PJ 10.069,62 1.006,96 0,00 0,00 0,00 0,00 0,00 2.319,39 13.395,97 1.218,42 1.841,63 0,00 0,00 3.060,05 10.335,92 31/10/2020
203 523200 ANA PAULA ALVES DA SILVA OFICIAL DO MP GOVERNADOR VALADARES - COMARCA; GOVERNADOR VALADARES-PJ-10PJ 6.741,63 674,16 0,00 0,00 0,00 0,00 0,00 4.626,47 12.042,26 815,74 841,38 0,00 0,00 1.657,12 10.385,14 31/10/2020
204 381200 ANA PAULA BARROS PEREIRA RIGHI ANALISTA DO MP BELO HORIZONTE - COMARCA; PROC JUST RECURSOS ESP E EXTRAORD CRIMINAIS 13.011,52 2.602,30 0,00 0,00 0,00 0,00 0,00 2.319,39 17.933,21 1.717,52 2.899,99 0,00 0,00 4.617,51 13.315,70 31/10/2020
205 227200 ANA PAULA DA SILVA CAMPOLINA ANALISTA DO MP BELO HORIZONTE - COMARCA; DIRETORIA DE ORCAMENTO-DIOR/SPC 18.820,14 9.410,07 0,00 0,00 0,00 0,00 0,00 1.550,00 29.780,21 3.105,32 6.039,98 0,00 0,00 9.145,30 20.634,91 31/10/2020
206 84200 ANA PAULA DE SOUZA ROCHA OFICIAL DO MP BELO HORIZONTE - COMARCA; DIRETORIA DE CONTABILIDADE 28.280,68 19.796,48 0,00 0,00 0,00 0,00 0,00 1.550,00 49.627,16 3.900,84 7.810,02 12.614,94 0,00 24.325,80 25.301,36 31/10/2020
207 278500 ANA PAULA DIAS CAPANEMA OFICIAL DO MP BELO HORIZONTE - COMARCA; DIRETORIA DE SEGURANCA 10.069,62 3.020,89 0,00 0,00 0,00 0,00 0,00 1.550,00 14.640,51 1.439,96 2.333,66 0,00 0,00 3.773,62 10.866,89 31/10/2020
208 327300 ANA PAULA GARCIA MAXIMO OFICIAL DO MP UNAÍ - COMARCA; UNAI-PJ-01PJ 10.736,08 4.294,43 0,00 0,00 0,00 0,00 0,00 1.550,00 16.580,51 1.653,36 2.652,94 0,00 0,00 4.306,30 12.274,21 31/10/2020
209 270000 ANA PAULA GOULART CRUZ DE MAGALHAES ANALISTA DO MP BELO HORIZONTE - COMARCA; COMB CRIMES PRAT POR AG POL MUN-ASSESSORIA 13.435,16 4.030,55 0,00 0,00 5.821,90 0,00 0,00 1.550,00 24.837,61 1.921,23 5.006,39 0,00 0,00 6.927,62 17.909,99 31/10/2020
210 262100 ANA PAULA KOMATSUZAKI ABIJAUDI ANALISTA DO MP BELO HORIZONTE - COMARCA; BH-17PJ PATRIMONIO PUBLICO-SECRETARIA 17.413,92 6.965,57 0,00 0,00 0,00 0,00 0,00 1.550,00 25.929,49 2.681,74 4.993,25 0,00 0,00 7.674,99 18.254,50 31/10/2020
211 278900 ANA PAULA MOREIRA GURGEL ANALISTA DO MP BELO HORIZONTE - COMARCA; DIRETORIA-GERAL 16.750,82 6.700,33 0,00 0,00 0,00 0,00 0,00 1.550,00 25.001,15 2.579,63 4.870,31 0,00 0,00 7.449,94 17.551,21 31/10/2020
212 425701 ANA PAULA ROCHA ANALISTA DO MP BELO HORIZONTE - COMARCA; ASSESSORIA DE COMUNICACAO INTEGRADA 8.170,49 817,05 0,00 0,00 0,00 0,00 0,00 2.319,39 11.306,93 988,63 1.330,34 0,00 0,00 2.318,97 8.987,96 31/10/2020
213 395601 ANA PAULA SALGE OLIVEIRA ANALISTA DO MP UBERABA - COMARCA; COORD REG PP TRIANGULO MINEIRO UBERABA 10.069,62 3.020,89 0,00 0,00 0,00 0,00 0,00 1.550,00 14.640,51 1.439,96 2.334,54 0,00 0,00 3.774,50 10.866,01 31/10/2020
214 473200 ANA PAULA SCOTTON BRASIL ANALISTA DO MP JUIZ DE FORA - COMARCA; JUIZ DE FORA-PJ-07PJ 10.069,62 1.006,96 0,00 0,00 0,00 0,00 0,00 2.319,39 13.395,97 1.218,42 1.841,63 0,00 0,00 3.060,05 10.335,92 31/10/2020
215 633600 ANA PAULA SILVA FERNANDES OFICIAL DO MP CATAGUASES - COMARCA; CATAGUASES-PJ-04PJ 4.817,57 481,76 0,00 0,00 0,00 0,00 0,00 1.550,00 6.849,33 582,93 427,65 0,00 0,00 1.010,58 5.838,75 31/10/2020
216 470900 ANA PAULA VALADARES ANALISTA DO MP PITANGUI - COMARCA; PITANGUI-PJ-01PJ 10.069,62 1.006,96 0,00 0,00 0,00 0,00 0,00 1.550,00 12.626,58 1.218,42 1.737,36 0,00 0,00 2.955,78 9.670,80 31/10/2020
217 447000 ANA PAULA VALENTIM DE ARAUJO ANALISTA DO MP BELO HORIZONTE - COMARCA; COMB CRIMES PRAT POR AG POL MUN-ASSESSORIA 10.069,62 2.013,92 0,00 0,00 0,00 0,00 0,00 1.550,00 13.633,54 1.329,19 2.088,09 0,00 0,00 3.417,28 10.216,26 31/10/2020
218 604200 ANA PAULA VIANA E SILVA OFICIAL DO MP BELO HORIZONTE - COMARCA; BH-17PJ PATRIMONIO PUBLICO-SECRETARIA 5.387,19 538,72 0,00 0,00 0,00 0,00 0,00 2.319,39 8.245,30 651,85 581,01 0,00 0,00 1.232,86 7.012,44 31/10/2020
219 505400 ANA PAULA VIEIRA SOUTO OFICIAL DO MP ALMENARA - COMARCA; ALMENARA-PJ-01PJ 5.562,64 1.668,79 0,00 0,00 0,00 0,00 0,00 1.550,00 8.781,43 795,46 848,39 0,00 0,00 1.643,85 7.137,58 31/10/2020
220 280200 ANA RACHEL BRANDAO LADEIRA ROLAND DIRETOR/ANALISTA BELO HORIZONTE - COMARCA; SUPRIN DE FORMACAO E APERFEICOAMENTO-SFA/CEAF 16.750,82 5.025,25 3.482,78 0,00 0,00 0,00 0,00 1.550,00 26.808,85 2.395,37 5.418,10 0,00 0,00 7.813,47 18.995,38 31/10/2020
221 601200 ANA REGINA RIBEIRO COORDENADOR/ANALISTA BELO HORIZONTE - COMARCA; DIV FISCAL ADM CONT TERCEIRIZACAO 0,00 1.181,92 11.819,15 0,00 4.333,69 0,00 429,04 6.230,39 23.994,19 1.020,82 3.583,82 0,00 120,56 4.725,20 19.268,99 31/10/2020
222 384700 ANA RODRIGUES PEREIRA MARRA ANALISTA DO MP COROMANDEL - COMARCA; COROMANDEL-PJ-UNPJ 10.069,62 2.013,92 0,00 0,00 0,00 0,00 0,00 2.319,39 14.402,93 1.329,19 1.983,81 0,00 0,00 3.313,00 11.089,93 31/10/2020
223 232700 ANA SILVIA SEMBLANO NAKAMURA ASSESSOR/OFICIAL BELO HORIZONTE - COMARCA; CENT DE APOIO TEC-SETOR DEF,IDOSO E INFANC 0,00 3.119,26 10.397,52 0,00 0,00 0,00 0,00 1.550,00 15.066,78 1.439,96 2.451,77 0,00 0,00 3.891,73 11.175,05 31/10/2020
224 602100 ANACLETO FRANCISCO MARCIER PIMENTA OFICIAL DO MP SÃO JOÃO DEL REI - COMARCA; SAO JOAO DEL REI-PJ-03PJ 4.974,42 497,44 0,00 0,00 0,00 0,00 0,00 3.088,78 8.560,64 601,90 246,32 0,00 0,00 848,22 7.712,42 31/10/2020
225 310400 ANADEJE DO CARMO DINIZ ARAUJO OFICIAL DO MP BELO HORIZONTE - COMARCA; DIRETORIA DE PESSOAL ADMINISTRATIVO - DPAD 9.146,93 2.744,08 0,00 0,00 0,00 0,00 0,00 1.550,00 13.441,01 1.308,01 2.040,97 0,00 0,00 3.348,98 10.092,03 31/10/2020
226 337000 ANAILDES MARIA MENDES OFICIAL DO MP JANAÚBA - COMARCA; JANAUBA-PJ-02PJ 9.146,93 1.829,39 0,00 0,00 0,00 0,00 0,00 2.319,39 13.295,71 1.207,40 1.817,09 0,00 0,00 3.024,49 10.271,22 31/10/2020
227 192900 ANATALIA CERQUEIRA LIMA PERES OFICIAL DO MP UBERABA - COMARCA; COORD REG SAUDE MACROR SANIT TRIANGULO SUL 10.736,08 4.294,43 0,00 0,00 0,00 0,00 0,00 1.550,00 16.580,51 1.653,36 2.809,36 0,00 0,00 4.462,72 12.117,79 31/10/2020
228 377400 ANDEIRSON DA MATTA BARBOSA ANALISTA DO MP POUSO ALEGRE - COMARCA; POUSO ALEGRE-PJ-01PJ 10.069,62 2.013,92 0,00 0,00 0,00 0,00 0,00 1.550,00 13.633,54 1.329,19 2.088,09 0,00 0,00 3.417,28 10.216,26 31/10/2020
229 317400 ANDERSON DA SILVA BICALHO OFICIAL DO MP CONTAGEM - COMARCA; CONTAGEM-PJ-SECRETARIA 8.436,53 1.687,31 0,00 0,00 0,00 0,00 0,00 1.550,00 11.673,84 1.113,62 1.452,04 0,00 0,00 2.565,66 9.108,18 31/10/2020
230 506900 ANDERSON DE SOUZA DAMIANI ANALISTA DO MP BELO HORIZONTE - COMARCA; DIRETORIA DE PAGAMENTO DE PESSOAL-DPAG 10.069,62 3.020,89 0,00 0,00 4.363,50 0,00 0,00 2.319,39 19.773,40 1.439,96 3.430,23 0,00 0,00 4.870,19 14.903,21 31/10/2020
231 410000 ANDERSON DE SOUZA NETO ASSESSOR BELO HORIZONTE - COMARCA; DIRETORIA DE ADMINISTRACAO FINANCEIRA 0,00 0,00 5.136,32 0,00 0,00 0,00 0,00 1.550,00 6.686,32 713,09 649,53 0,00 0,00 1.362,62 5.323,70 31/10/2020
232 181900 ANDERSON FLAVIO DE OLIVEIRA OFICIAL DO MP ITAGUARA - COMARCA; ITAGUARA-PJ-SECRETARIA 12.601,30 5.040,52 0,00 0,00 0,00 0,00 0,00 1.550,00 19.191,82 1.940,60 3.448,48 0,00 0,00 5.389,08 13.802,74 31/10/2020
233 333200 ANDERSON JOSE DE FREITAS OFICIAL DO MP IPATINGA - COMARCA; IPATINGA-PJ-04PJ 9.146,93 2.744,08 0,00 0,00 0,00 0,00 1.445,27 1.550,00 14.886,28 1.308,01 2.282,00 0,00 0,00 3.590,01 11.296,27 31/10/2020
234 462100 ANDERSON LUIZ GUIMARAES CARDOSO ANALISTA DO MP BARBACENA - COMARCA; BARBACENA-PJ-02PJ 10.397,52 1.039,75 0,00 0,00 0,00 0,00 0,00 1.550,00 12.987,27 1.258,10 1.929,91 0,00 0,00 3.188,01 9.799,26 31/10/2020
235 429700 ANDERSON MELO DE SOUZA ASSESSOR/OFICIAL BELO HORIZONTE - COMARCA; DIRET DE ESTAGIOS E CONVENIOS ACADEMICOS 0,00 2.079,50 10.397,52 0,00 0,00 0,00 0,00 1.550,00 14.027,02 808,34 2.339,53 0,00 0,00 3.147,87 10.879,15 31/10/2020
236 545600 ANDERSON MENDES PROCOPIO FERREIRA ANALISTA DO MP BELO HORIZONTE - COMARCA; BH-12PJ JUIZO CRIMINAL-GAB 089PJ 8.436,53 843,65 0,00 0,00 0,00 0,00 0,00 1.550,00 10.830,18 1.020,82 1.401,96 0,00 0,00 2.422,78 8.407,40 31/10/2020
237 519900 ANDERSON MOREIRA DOEHLER ANALISTA DO MP TEÓFILO OTONI - COMARCA; COORD REG SAUDE MACRORREGIAO SANIT NORDESTE 9.444,70 2.833,41 0,00 0,00 0,00 0,00 0,00 1.550,00 13.828,11 1.350,59 2.135,71 0,00 0,00 3.486,30 10.341,81 31/10/2020
238 103000 ANDERSON TADEU DE DEUS ASSESSOR BELO HORIZONTE - COMARCA; BH-26 CRIME CONT CRIAN ADOL-SECRETARIA 0,00 3.595,42 5.136,32 0,00 0,00 0,00 0,00 1.550,00 10.281,74 713,09 1.638,27 0,00 0,00 2.351,36 7.930,38 31/10/2020
239 309200 ANDITYAS SOARES DE MOURA COSTA MATOS ANALISTA DO MP BELO HORIZONTE - COMARCA; GABINETE DE PROCURADOR DE JUSTIÇA - SALA 304 14.324,23 4.297,27 0,00 0,00 0,00 0,00 0,00 1.550,00 20.171,50 2.048,37 3.688,25 0,00 0,00 5.736,62 14.434,88 31/10/2020
240 519200 ANDRE BORJA LANA ANALISTA DO MP BELO HORIZONTE - COMARCA; CENTRO JORNALISMO 10.069,62 1.006,96 0,00 0,00 0,00 0,00 0,00 1.550,00 12.626,58 1.218,42 1.839,40 0,00 0,00 3.057,82 9.568,76 31/10/2020
241 637200 ANDRE FERNANDES DA CUNHA OFICIAL DO MP MORADA NOVA DE MINAS - COMARCA; MORADA NOVA DE MINAS-PJ-UNPJ 4.817,57 481,76 0,00 0,00 1.766,44 0,00 0,00 1.550,00 8.615,77 582,93 913,42 0,00 0,00 1.496,35 7.119,42 31/10/2020
242 651500 ANDRE GONCALVES MARANHAO OFICIAL DO MP JACINTO - COMARCA; JACINTO-PJ-SECRETARIA 4.238,09 254,29 0,00 0,00 0,00 0,00 0,00 1.550,00 6.042,38 494,16 263,47 0,00 0,00 757,63 5.284,75 31/10/2020
243 521900 ANDRE LUIS GOMES SILVA ANALISTA DO MP FORMIGA - COMARCA; FORMIGA-PJ-02PJ 10.069,62 1.006,96 0,00 0,00 0,00 0,00 0,00 2.319,39 13.395,97 1.218,42 1.302,71 0,00 0,00 2.521,13 10.874,84 31/10/2020
244 304300 ANDRE LUIZ AVELAR ANALISTA DO MP BELO HORIZONTE - COMARCA; DIRETORIA DE REDES E BANCOS DE DADOS 8.436,53 2.530,96 0,00 0,00 0,00 0,00 0,00 1.550,00 12.517,49 1.206,42 1.762,80 0,00 0,00 2.969,22 9.548,27 31/10/2020
245 397400 ANDRE PATARO MYRRHA DE PAULA E SILVA ANALISTA DO MP BELO HORIZONTE - COMARCA; ASSESSORIA JURIDICO-ADMINISTRATIVA 13.011,52 2.602,30 0,00 0,00 0,00 0,00 0,00 2.319,39 17.933,21 1.717,52 2.952,12 0,00 0,00 4.669,64 13.263,57 31/10/2020
246 650100 ANDRE THOME VARGAS OFICIAL DO MP LEOPOLDINA - COMARCA; LEOPOLDINA-PJ-04PJ 4.665,64 279,94 0,00 0,00 0,00 0,00 0,00 1.550,00 6.495,58 544,01 354,22 0,00 0,00 898,23 5.597,35 31/10/2020
247 548500 ANDRE VINICIUS CARVALHO MEIRA ANALISTA DO MP JUIZ DE FORA - COMARCA; JUIZ DE FORA-PJ-24PJ 8.436,53 843,65 0,00 0,00 0,00 0,00 0,00 1.550,00 10.830,18 1.020,82 1.401,96 0,00 0,00 2.422,78 8.407,40 31/10/2020
248 297200 ANDRE WILLE ROSARIO ANALISTA DO MP BELO HORIZONTE - COMARCA; ASSESSORIA ESPECIAL DO PGJ 16.750,82 5.025,25 0,00 0,00 0,00 0,00 0,00 1.550,00 23.326,07 2.395,37 4.356,06 0,00 0,00 6.751,43 16.574,64 31/10/2020
249 423600 ANDREA COSTA GUALBERTO ALVES ANALISTA DO MP GOVERNADOR VALADARES - COMARCA; COORD REG PJ DEF EDU DIR CRIANCA ADOL RIODOCE 12.204,02 8.542,81 0,00 0,00 0,00 0,00 0,00 1.550,00 22.296,83 2.282,15 4.156,29 0,00 0,00 6.438,44 15.858,39 31/10/2020
250 198600 ANDREA CRISTINA ANDRADE COSTA E SOUZA OFICIAL DO MP MONTES CLAROS - COMARCA; MONTES CLAROS-PJ-15PJ 14.790,66 5.916,26 0,00 0,00 0,00 0,00 0,00 1.550,00 22.256,92 2.277,76 4.146,52 0,00 0,00 6.424,28 15.832,64 31/10/2020
251 467300 ANDREA DE CASSIA PENNA ALVERNAZ ANALISTA DO MP PONTE NOVA - COMARCA; PONTE NOVA-PJ-01PJ 10.069,62 1.006,96 0,00 0,00 0,00 0,00 0,00 1.550,00 12.626,58 1.218,42 1.789,50 0,00 0,00 3.007,92 9.618,66 31/10/2020
252 308000 ANDREA DE CASSIA SANTOS OLIVEIRA ANALISTA DO MP BELO HORIZONTE - COMARCA; COORD DE GABINETE DO PGJ 15.272,02 4.581,61 0,00 0,00 0,00 0,00 0,00 1.550,00 21.403,63 2.183,90 3.937,68 0,00 0,00 6.121,58 15.282,05 31/10/2020
253 349500 ANDREA DE OLIVEIRA LOIOLA REGIS OFICIAL DO MP IGUATAMA - COMARCA; IGUATAMA-PJ-UNPJ 9.444,70 1.888,94 0,00 0,00 0,00 0,00 0,00 1.550,00 12.883,64 1.246,70 1.852,41 0,00 0,00 3.099,11 9.784,53 31/10/2020
254 287900 ANDREA FERNANDES PENA MARTINS OFICIAL DO MP MONTES CLAROS - COMARCA; MONTES CLAROS-PJ-09PJ 10.069,62 3.020,89 0,00 0,00 0,00 0,00 0,00 1.550,00 14.640,51 1.439,96 2.230,27 0,00 0,00 3.670,23 10.970,28 31/10/2020
255 300800 ANDREA FERREIRA ANALISTA DO MP LAVRAS - COMARCA; LAVRAS-PJ-04PJ 14.790,66 4.437,20 0,00 0,00 0,00 0,00 0,00 1.550,00 20.777,86 2.115,06 3.836,66 0,00 0,00 5.951,72 14.826,14 31/10/2020
256 316700 ANDREA FRANCISCA DIAS DE SOUZA ASSESSOR BELO HORIZONTE - COMARCA; ASSESSORIA JURIDICA DO PROCON-MG 0,00 0,00 3.076,28 0,00 0,00 0,00 0,00 2.319,39 5.395,67 474,92 200,40 0,00 0,00 675,32 4.720,35 31/10/2020
257 395100 ANDREA LANNA MENDES NOVAIS ANALISTA DO MP BELO HORIZONTE - COMARCA; PROMOT ESTADUAL DE DEF PATRI CULT E TUR DE MG 13.011,52 2.602,30 0,00 0,00 0,00 0,00 0,00 1.550,00 17.163,82 1.717,52 2.899,99 0,00 0,00 4.617,51 12.546,31 31/10/2020
258 67300 ANDREA LEAO MAGALHAES ROQUE ASSESSOR BELO HORIZONTE - COMARCA; COORD ESTADUAL COMBATE CRIMES CIBERNETICOS 0,00 7.278,26 10.397,52 0,00 0,00 0,00 0,00 1.550,00 19.225,78 713,09 4.045,74 0,00 0,00 4.758,83 14.466,95 31/10/2020
259 335700 ANDREA LOPES PEREIRA ANALISTA DO MP GOVERNADOR VALADARES - COMARCA; COORD REG DO MA DA BACIA DO RIO DOCE 15.272,02 4.581,61 0,00 0,00 0,00 0,00 0,00 1.550,00 21.403,63 2.183,90 3.989,82 0,00 0,00 6.173,72 15.229,91 31/10/2020
260 389200 ANDREA TUPINI DOS SANTOS TRISTAO DA ROCHA COORDENADOR/OFICIAL BELO HORIZONTE - COMARCA; BH-13ª PJ JUÍZO DE TÓXICOS-SECRETARIA 0,00 2.363,83 11.819,15 0,00 0,00 1.674,70 0,00 1.550,00 17.407,68 1.560,13 3.030,36 0,00 0,00 4.590,49 12.817,19 31/10/2020
261 419000 ANDREIA BARBOSA DE ALMEIDA ANALISTA DO MP BELO HORIZONTE - COMARCA; GABINETE DE PROCURADOR DE JUSTIÇA - SALA 705 12.204,02 2.440,80 0,00 0,00 0,00 0,00 0,00 1.550,00 16.194,82 1.610,93 2.714,96 0,00 0,00 4.325,89 11.868,93 31/10/2020
262 281501 ANDREIA CARLA COSTA ANALISTA DO MP UBÁ - COMARCA; UBA-PJ-02PJ 12.601,30 2.520,26 0,00 0,00 0,00 0,00 0,00 1.550,00 16.671,56 1.663,37 2.831,64 0,00 0,00 4.495,01 12.176,55 31/10/2020
263 477100 ANDREIA DE ALMEIDA RIBEIRO MELO OFICIAL DO MP CONTAGEM - COMARCA; CONTAGEM-PJ-SECRETARIA 7.421,79 1.484,36 0,00 0,00 2.968,72 0,00 0,00 1.550,00 13.424,87 979,68 2.126,82 0,00 0,00 3.106,50 10.318,37 31/10/2020
264 619000 ANDREIA FERREIRA NORONHA COORDENADOR/OFICIAL BELO HORIZONTE - COMARCA; DIRETORIA DE SERVICO CRIMINAL 0,00 1.343,52 13.435,16 0,00 0,00 0,00 0,00 1.550,00 16.328,68 631,30 3.007,87 0,00 48,38 3.687,55 12.641,13 31/10/2020
265 424000 ANDREIA LUCIA COUTO ANALISTA DO MP BELO HORIZONTE - COMARCA; BH-18PJ DIREITOS HUMANOS-SECRETARIA 12.601,30 2.520,26 0,00 0,00 0,00 0,00 0,00 1.550,00 16.671,56 1.663,37 2.831,64 0,00 0,00 4.495,01 12.176,55 31/10/2020
266 370100 ANDREIA MARIA SILVA PINTO OFICIAL DO MP CORONEL FABRICIANO - COMARCA; CORONEL FABRICIANO-PJ-01PJ 8.858,43 1.771,69 0,00 0,00 0,00 0,00 0,00 2.319,39 12.949,51 1.169,31 1.732,36 0,00 0,00 2.901,67 10.047,84 31/10/2020
267 382100 ANDREIA NATALI PEREIRA DE OLIVEIRA OFICIAL DO MP PRADOS - COMARCA; PRADOS-PJ-UNPJ 8.579,10 1.715,82 0,00 0,00 0,00 0,00 191,21 1.550,00 12.036,13 1.153,47 1.697,12 0,00 0,00 2.850,59 9.185,54 31/10/2020
268 275200 ANDREIA RIBEIRO FREITAS OFICIAL DO MP VIÇOSA - COMARCA; VICOSA-PJ-04PJ 10.069,62 3.020,89 0,00 0,00 0,00 0,00 0,00 1.550,00 14.640,51 1.439,96 2.282,40 0,00 0,00 3.722,36 10.918,15 31/10/2020
269 352200 ANDREIA XAVIER PEREIRA OFICIAL DO MP CLÁUDIO - COMARCA; CLAUDIO-PJ-UNPJ 9.444,70 1.888,94 0,00 0,00 0,00 0,00 0,00 1.550,00 12.883,64 1.246,70 1.904,55 0,00 0,00 3.151,25 9.732,39 31/10/2020
270 638500 ANDRESA ALVES FEITOSA CASAGRANDE ANALISTA DO MP LAVRAS - COMARCA; COORD REG DO MA DA BACIA DO RIO GRANDE 7.421,79 742,18 0,00 0,00 0,00 0,00 0,00 1.550,00 9.713,97 671,12 1.191,17 0,00 0,00 1.862,29 7.851,68 31/10/2020
271 383700 ANDRESSA EDUARDO SOUZA ANALISTA DO MP OURO BRANCO - COMARCA; OURO BRANCO-PJ-SECRETARIA 13.011,52 2.602,30 0,00 0,00 0,00 0,00 515,26 18.702,60 34.831,68 1.717,52 2.952,12 0,00 0,00 4.669,64 30.162,04 31/10/2020
272 678400 ANDRESSA LUIZA SILVA LOPES ASSESSOR PROMOTOR JUSTICA CARMO DO PARANAÍBA - COMARCA; CARMO DO PARANAIBA-PJ-02PJ 0,00 0,00 7.187,72 0,00 0,00 0,00 0,00 1.550,00 8.737,72 713,09 1.213,66 0,00 0,00 1.926,75 6.810,97 31/10/2020
273 426200 ANDRESSA MENDES CASAL OFICIAL DO MP BELO HORIZONTE - COMARCA; DIR ESTRUTURA E PROCESSOS ORGANIZACIONAIS 6.741,63 1.348,33 0,00 0,00 0,00 0,00 0,00 1.550,00 9.639,96 889,90 1.110,66 0,00 0,00 2.000,56 7.639,40 31/10/2020
274 390100 ANDRESSA RIBEIRO PUCCI OFICIAL DO MP UBERABA - COMARCA; UBERABA-PJ-14PJ 6.529,10 1.305,82 0,00 0,00 0,00 0,00 0,00 1.550,00 9.384,92 861,84 1.048,24 0,00 0,00 1.910,08 7.474,84 31/10/2020
275 462500 ANDREZA APARECIDA COSTA E SILVA ANALISTA DO MP CONSELHEIRO LAFAIETE - COMARCA; CONSELHEIRO LAFAIETE-PJ-02PJ 10.069,62 1.006,96 0,00 0,00 0,00 0,00 0,00 1.550,00 12.626,58 1.218,42 1.841,63 0,00 0,00 3.060,05 9.566,53 31/10/2020
276 677700 ANDREZA DE LOURDES FERREIRA DE PAIVA ASSESSOR PROMOTOR JUSTICA ABRE CAMPO - COMARCA; ABRE CAMPO-PJ-01PJ 0,00 0,00 7.187,72 0,00 0,00 0,00 0,00 1.550,00 8.737,72 713,09 1.213,66 0,00 0,00 1.926,75 6.810,97 31/10/2020
277 537800 ANDREZZA LUZIA DE OLIVEIRA ALVES ANALISTA DO MP PATOS DE MINAS - COMARCA; COORD REG PJ DEF EDU DIR CRI ADO AL PAR NOROE 8.436,53 843,65 0,00 0,00 0,00 0,00 0,00 1.550,00 10.830,18 1.020,82 1.349,83 0,00 0,00 2.370,65 8.459,53 31/10/2020
278 491600 ANE PATRICIA RIBEIRO ANALISTA DO MP SETE LAGOAS - COMARCA; SETE LAGOAS-PJ-11PJ 10.069,62 1.006,96 0,00 0,00 0,00 0,00 0,00 1.550,00 12.626,58 1.218,42 1.789,50 0,00 0,00 3.007,92 9.618,66 31/10/2020
279 465800 ANELISE GAMA ASSESSOR BELO HORIZONTE - COMARCA; BH-18PJ VIOLENCIA DOMESTICA-SECRETARIA 0,00 0,00 8.170,49 0,00 0,00 0,00 0,00 1.550,00 9.720,49 713,09 1.483,92 0,00 0,00 2.197,01 7.523,48 31/10/2020
280 535200 ANELIZE FERNANDA ALVES VILARINHO OFICIAL DO MP CAPINÓPOLIS - COMARCA; CAPINOPOLIS-PJ-UNPJ 4.974,42 497,44 0,00 0,00 0,00 0,00 0,00 2.319,39 7.791,25 601,90 469,88 0,00 0,00 1.071,78 6.719,47 31/10/2020
281 197200 ANGELA COELHO SALDANHA OFICIAL DO MP PARÁ DE MINAS - COMARCA; PARA DE MINAS-PJ-03PJ 14.790,66 5.916,26 0,00 0,00 0,00 0,00 0,00 1.550,00 22.256,92 2.277,76 4.198,66 0,00 0,00 6.476,42 15.780,50 31/10/2020
282 307400 ANGELA CRISTINA GONCALVES MUNIZ ANALISTA DO MP UBERLÂNDIA - COMARCA; UBERLANDIA-PJ-SEC FAMILIA 16.750,82 6.700,33 0,00 0,00 0,00 0,00 0,00 2.319,39 25.770,54 2.579,63 4.818,17 0,00 0,00 7.397,80 18.372,74 31/10/2020
283 191800 ANGELA MARIA DE OLIVEIRA OFICIAL DO MP GUARANÉSIA - COMARCA; GUARANESIA-PJ-SECRETARIA 14.790,66 10.353,47 0,00 0,00 0,00 0,00 0,00 1.550,00 26.694,13 2.765,85 5.284,67 0,00 0,00 8.050,52 18.643,61 31/10/2020
284 497400 ANGELA MARIA HENRIQUES ANALISTA DO MP BELO HORIZONTE - COMARCA; COORD REG BACIAS RIO VELHAS E PARAOPEBA 10.069,62 1.006,96 0,00 0,00 0,00 0,00 0,00 1.550,00 12.626,58 1.218,42 1.841,63 0,00 0,00 3.060,05 9.566,53 31/10/2020
285 260700 ANGELICA CRISTINA AZEVEDO MOREIRA MOUCO OFICIAL DO MP UBÁ - COMARCA; UBA-PJ-05PJ 12.204,02 3.661,21 0,00 0,00 0,00 0,00 0,00 1.550,00 17.415,23 1.745,18 3.013,65 0,00 0,00 4.758,83 12.656,40 31/10/2020
286 334600 ANGELICA PANISSA DE FREITAS GALLATI OFICIAL DO MP GUAXUPÉ - COMARCA; GUAXUPE-PJ-02PJ 9.444,70 2.833,41 0,00 0,00 0,00 0,00 0,00 2.319,39 14.597,50 1.350,59 2.083,57 0,00 0,00 3.434,16 11.163,34 31/10/2020
287 521100 ANGELICA SALES MOREIRA OFICIAL DO MP BELO HORIZONTE - COMARCA; BH-02PJ FAMILIA-SECRETARIA 6.741,63 674,16 0,00 0,00 0,00 0,00 0,00 1.550,00 8.965,79 815,74 945,65 0,00 0,00 1.761,39 7.204,40 31/10/2020
288 466500 ANGELLO MARQUES AGRELLI ANALISTA DO MP MAR DE ESPANHA - COMARCA; MAR DE ESPANHA-PJ-UNPJ 10.069,62 1.006,96 0,00 0,00 0,00 0,00 0,00 1.550,00 12.626,58 1.218,42 1.841,63 0,00 0,00 3.060,05 9.566,53 31/10/2020
289 363300 ANGELO VERDOLIN HENRIQUES ANALISTA DO MP SETE LAGOAS - COMARCA; SETE LAGOAS-PJ-04PJ 14.790,66 5.916,26 0,00 0,00 0,00 0,00 0,00 2.319,39 23.026,31 2.277,76 4.198,66 0,00 0,00 6.476,42 16.549,89 31/10/2020
290 250900 ANISIO APARECIDO SANTOS OFICIAL DO MP MARIANA - COMARCA; MARIANA-PJ-02PJ 6.123,79 2.449,52 0,00 0,00 0,00 0,00 0,00 1.550,00 10.123,31 943,06 545,50 0,00 0,00 1.488,56 8.634,75 31/10/2020
291 651200 ANITA MARIA SANT ANA DE MATTOS FONTES OFICIAL DO MP ERVÁLIA - COMARCA; ERVALIA-PJ-UNPJ 4.665,64 3.265,94 0,00 0,00 0,00 0,00 0,00 1.550,00 9.481,58 872,47 1.019,76 0,00 0,00 1.892,23 7.589,35 31/10/2020
292 253400 ANNA FLAVIA LEHMAN BATTAGLIA ANALISTA DO MP BELO HORIZONTE - COMARCA; CAO-PATRIMONIO PUBLICO 17.413,92 5.224,18 0,00 0,00 0,00 0,00 0,00 1.550,00 24.188,10 2.490,19 4.514,90 0,00 0,00 7.005,09 17.183,01 31/10/2020
293 688800 ANNA LUIZA MATTOS DUARTE ASSESSOR PROCURADOR JUSTICA BELO HORIZONTE - COMARCA; GABINETE DE PROCURADOR DE JUSTIÇA - SALA 305 0,00 0,00 7.187,72 0,00 0,00 0,00 2.395,91 2.400,00 11.983,63 713,09 1.982,54 0,00 0,00 2.695,63 9.288,00 31/10/2020
294 447600 ANNGELUCE ALCANTARA DE CAMPOS OFICIAL DO MP DIVINÓPOLIS - COMARCA; DIVINOPOLIS-PJ-SECRETARIA 6.529,10 1.305,82 0,00 0,00 0,00 0,00 0,00 1.550,00 9.384,92 861,84 1.048,24 0,00 0,00 1.910,08 7.474,84 31/10/2020
295 119600 ANSELMO BORGES PARREIRAS OFICIAL DO MP BONFIM - COMARCA; BONFIM-PJ-UNPJ 7.663,37 6.130,70 0,00 0,00 0,00 1.756,57 0,00 1.550,00 17.100,64 1.517,35 2.871,87 0,00 0,00 4.389,22 12.711,42 31/10/2020
296 630300 ANTONIA GOMES RAMALHO OFICIAL DO MP NOVO CRUZEIRO - COMARCA; NOVO CRUZEIRO-PJ-UNPJ 5.217,34 521,73 0,00 0,00 0,00 0,00 0,00 3.601,70 9.340,77 631,30 535,28 0,00 0,00 1.166,58 8.174,19 31/10/2020
297 332400 ANTONIA MARIA MAMEDE OFICIAL DO MP UBERLÂNDIA - COMARCA; COORD REG PP TRIANGULO MINEIRO UBERLANDIA 9.444,70 2.833,41 0,00 0,00 0,00 1.449,49 0,00 1.550,00 15.277,60 1.350,59 2.507,12 0,00 0,00 3.857,71 11.419,89 31/10/2020
298 401600 ANTONIO CARLOS GUEDES AROUCA ANALISTA DO MP BELO HORIZONTE - COMARCA; COORD EST DEF DIR FAM PESSOAS DEFICI IDOSOS 11.446,46 2.289,29 0,00 0,00 0,00 0,00 0,00 1.550,00 15.285,75 1.510,93 2.492,47 0,00 0,00 4.003,40 11.282,35 31/10/2020
299 333900 ANTONIO GONCALVES DE SOUZA FILHO OFICIAL DO MP BELO HORIZONTE - COMARCA; DIRETORIA DE CONTABILIDADE 9.444,70 2.833,41 0,00 0,00 0,00 0,00 0,00 1.550,00 13.828,11 1.350,59 2.135,71 0,00 0,00 3.486,30 10.341,81 31/10/2020
300 176100 ANTONIO MARCELO CAMPOS CAMPANELLA OFICIAL DO MP BELO HORIZONTE - COMARCA; COORD DE GABINETE DO PGJ 14.790,66 7.395,33 0,00 0,00 0,00 0,00 0,00 1.550,00 23.735,99 2.440,46 4.560,66 0,00 0,00 7.001,12 16.734,87 31/10/2020
301 321001 ANTONIO OLINTO VIEIRA MACHADO ANALISTA DO MP BELO HORIZONTE - COMARCA; CENTRAL DE APOIO TECN-SETOR DE MEIO AMBIENTE 13.011,52 2.602,30 0,00 0,00 0,00 0,00 0,00 1.550,00 17.163,82 1.717,52 2.847,85 0,00 0,00 4.565,37 12.598,45 31/10/2020
302 356200 ANTONIO PAULA DA SILVA OFICIAL DO MP JUIZ DE FORA - COMARCA; JUIZ DE FORA-PJ-20PJ 8.436,53 2.530,96 0,00 0,00 0,00 0,00 0,00 1.550,00 12.517,49 1.206,42 1.814,93 0,00 0,00 3.021,35 9.496,14 31/10/2020
303 119900 ANTONIO RODRIGUES DE PINHO OFICIAL DO MP GUANHÃES - COMARCA; GUANHAES-PJ-01PJ 14.324,23 10.026,96 0,00 0,00 8.117,06 0,00 0,00 2.319,39 34.787,64 2.678,63 7.218,51 0,00 0,00 9.897,14 24.890,50 31/10/2020
304 373300 ANTONIO SERGIO ANANIAS OFICIAL DO MP AIURUOCA - COMARCA; AIURUOCA-PJ-UNPJ 7.912,85 1.582,57 0,00 0,00 0,00 0,00 0,00 1.550,00 11.045,42 1.044,50 1.350,37 0,00 0,00 2.394,87 8.650,55 31/10/2020
305 608100 ANTONIO SIDINEY VIEIRA LEMOS ANALISTA DO MP PIRAPORA - COMARCA; PIRAPORA-PJ-01PJ 8.170,49 3.268,20 0,00 0,00 0,00 0,00 88,24 1.550,00 13.076,93 1.267,96 1.951,86 0,00 0,00 3.219,82 9.857,11 31/10/2020
306 374700 ANTONIO SILVA NETO OFICIAL DO MP BELO HORIZONTE - COMARCA; GAECO - SECRETARIA 8.579,10 1.715,82 0,00 0,00 0,00 0,00 0,00 1.550,00 11.844,92 1.132,44 1.650,32 0,00 0,00 2.782,76 9.062,16 31/10/2020
307 636700 ANTONIUS VITORIANO FERNANDES OFICIAL DO MP BELO HORIZONTE - COMARCA; ASSESSORIA JURIDICA DO PROCON-MG 4.376,03 437,60 0,00 0,00 0,00 0,00 0,00 1.550,00 6.363,63 529,50 327,80 0,00 0,00 857,30 5.506,33 31/10/2020
308 413200 ANY PEREIRA SILVA ANALISTA DO MP TRÊS PONTAS - COMARCA; TRES PONTAS-PJ-01PJ 12.204,02 2.440,80 0,00 0,00 0,00 0,00 0,00 1.550,00 16.194,82 1.610,93 2.714,96 0,00 0,00 4.325,89 11.868,93 31/10/2020
309 151401 APARECIDA DE FATIMA MENDES DE ALMEIDA ASSESSOR JUIZ DE FORA - COMARCA; JUIZ DE FORA-PJ-SECRETARIA 0,00 0,00 5.136,32 0,00 0,00 0,00 0,00 1.550,00 6.686,32 713,09 649,53 0,00 0,00 1.362,62 5.323,70 31/10/2020
310 329300 APARECIDA MARIA MELO DE ASSIS OFICIAL DO MP BELO HORIZONTE - COMARCA; BH-18PJ DIREITOS HUMANOS-SECRETARIA 10.069,62 3.020,89 0,00 0,00 0,00 0,00 0,00 1.550,00 14.640,51 1.439,96 2.334,54 0,00 0,00 3.774,50 10.866,01 31/10/2020
311 475300 APARECIDA MARLENE FREIRE ROSA ANALISTA DO MP BELO HORIZONTE - COMARCA; BH-02PJ FAMILIA-SECRETARIA 11.085,56 9.977,00 0,00 0,00 0,00 2.490,54 0,00 1.550,00 25.103,10 2.316,88 4.922,84 0,00 0,00 7.239,72 17.863,38 31/10/2020
312 240300 APARECIDA PEREIRA DO NASCIMENTO OFICIAL DO MP ITURAMA - COMARCA; ITURAMA-PJ-01PJ 12.601,30 8.820,91 0,00 0,00 0,00 2.611,77 0,00 1.550,00 25.583,98 2.356,44 5.021,75 0,00 0,00 7.378,19 18.205,79 31/10/2020
313 653000 APARECIDA ROSA DE LIMA ASSESSOR BELO HORIZONTE - COMARCA; SECRETARIA PROCESSOS DISCIPES ADMINISTRATIVOS 0,00 0,00 8.170,49 0,00 0,00 0,00 0,00 1.550,00 9.720,49 713,09 1.483,92 0,00 0,00 2.197,01 7.523,48 31/10/2020
314 354500 APARECIDA VIEIRA DE CARVALHO OFICIAL DO MP BELO HORIZONTE - COMARCA; DIVISÃO DE EDUCAÇÃO PARA O CONSUMO 7.421,79 1.484,36 0,00 0,00 0,00 0,00 0,00 1.550,00 10.456,15 979,68 1.310,42 0,00 0,00 2.290,10 8.166,05 31/10/2020
315 551000 ARACELES BICALHO FELIX ANALISTA DO MP MANHUAÇU - COMARCA; MANHUACU-PJ-02PJ 8.436,53 843,65 0,00 0,00 0,00 0,00 0,00 2.319,39 11.599,57 1.020,82 1.401,96 0,00 0,00 2.422,78 9.176,79 31/10/2020
316 286200 ARACELI MEDRADO DOS SANTOS LIMA OFICIAL DO MP PARACATU - COMARCA; PARACATU-PJ-03PJ 6.123,79 1.837,14 0,00 0,00 0,00 0,00 0,00 1.652,00 9.612,93 875,70 1.079,08 0,00 0,00 1.954,78 7.658,15 31/10/2020
317 112200 ARAQUEM AUGUSTO DE MATOS AGENTE DO MP BELO HORIZONTE - COMARCA; BH-23PJ CIVEL-SEC EXP CIVEIS 6.741,63 5.393,30 0,00 0,00 0,00 1.473,82 0,00 1.550,00 15.158,75 1.334,84 2.311,33 0,00 0,00 3.646,17 11.512,58 31/10/2020
318 280600 ARDUINO FRATTEZI ANALISTA DO MP BELO HORIZONTE - COMARCA; CENTRAL DE APOIO TECNICO-SETOR CONTABIL 16.750,82 5.025,25 0,00 0,00 0,00 0,00 0,00 1.550,00 23.326,07 2.395,37 4.460,33 0,00 0,00 6.855,70 16.470,37 31/10/2020
319 520201 ARIANE DE FATIMA CARVALHO ALMEIDA RODRIGUES ANALISTA DO MP VESPASIANO - COMARCA; VESPASIANO-PJ-04PJ 8.170,49 817,05 0,00 0,00 0,00 0,00 0,00 2.319,39 11.306,93 988,63 1.173,93 0,00 0,00 2.162,56 9.144,37 31/10/2020
320 537600 ARIELA FREIRE MONTIJO ANALISTA DO MP ARCOS - COMARCA; ARCOS-PJ-01PJ 8.436,53 843,65 0,00 0,00 0,00 0,00 0,00 2.319,39 11.599,57 1.020,82 1.297,69 0,00 0,00 2.318,51 9.281,06 31/10/2020
321 182000 ARILSON ALEXANDRE MARTINS MAGALHAES OFICIAL DO MP JOÃO MONLEVADE - COMARCA; JOAO MONLEVADE-PJ-01PJ 14.324,23 7.162,12 0,00 0,00 0,00 0,00 0,00 3.088,78 24.575,13 2.363,50 4.180,87 0,00 0,00 6.544,37 18.030,76 31/10/2020
322 511000 ARISLANE CAROLINA DA SILVA ANALISTA DO MP CAMPINA VERDE - COMARCA; CAMPINA VERDE-PJ-UNPJ 10.069,62 1.006,96 0,00 0,00 0,00 0,00 0,00 3.088,78 14.165,36 1.218,42 1.841,63 0,00 0,00 3.060,05 11.105,31 31/10/2020
323 170000 ARLEY BRITES DA SILVA ASSESSOR BELO HORIZONTE - COMARCA; BH-14PJ DEFESA CONSUMIDOR-SECRETARIA 0,00 2.054,53 5.136,32 0,00 0,00 0,00 0,00 1.550,00 8.740,85 713,09 542,92 0,00 0,00 1.256,01 7.484,84 31/10/2020
324 120400 ARLINDO CASSIO DA CRUZ OFICIAL DO MP SÃO GONÇALO DO SAPUCAÍ - COMARCA; SAO GONCALO DO SAPUCAI-PJ-01PJ 18.820,14 15.056,11 0,00 0,00 0,00 3.997,19 0,00 1.550,00 39.423,44 3.726,39 8.342,33 0,00 0,00 12.068,72 27.354,72 31/10/2020
325 243700 ARLINDO MARCIO LACERDA OFICIAL DO MP CONTAGEM - COMARCA; CONTAGEM-PJ-SECRETARIA 12.204,02 4.881,61 0,00 0,00 0,00 0,00 1.445,27 1.550,00 20.080,90 1.879,42 3.709,80 0,00 0,00 5.589,22 14.491,68 31/10/2020
326 392100 ARNALDO DE ANDRADE OFICIAL DO MP DIVINÓPOLIS - COMARCA; DIVINOPOLIS-PJ-02PJ 8.579,10 1.715,82 0,00 0,00 0,00 0,00 1.445,27 2.319,39 14.059,58 1.132,44 1.995,63 0,00 0,00 3.128,07 10.931,51 31/10/2020
327 642400 ARTANE INARDE DE SIQUEIRA DAMASCENO ANALISTA DO MP BELO HORIZONTE - COMARCA; PROC JUST RECURSOS ESP E EXTRAORD CRIMINAIS 7.421,79 445,31 0,00 0,00 0,00 0,00 0,00 2.319,39 10.186,49 671,12 1.109,54 0,00 0,00 1.780,66 8.405,83 31/10/2020
328 302100 AUGUSTO ROUSSEAU DE CASTRO ANALISTA DO MP CATAGUASES - COMARCA; CATAGUASES-PJ-02PJ 16.750,82 5.025,25 0,00 0,00 0,00 0,00 0,00 1.550,00 23.326,07 2.395,37 4.460,33 0,00 0,00 6.855,70 16.470,37 31/10/2020
329 540200 AUREA AVELAR BITTENCOURT OFICIAL DO MP BELO HORIZONTE - COMARCA; GRUPO ESP PROM JUST DEF PROB ADM PAT PUB 4.974,42 497,44 0,00 0,00 0,00 0,00 0,00 1.550,00 7.021,86 601,90 374,30 0,00 0,00 976,20 6.045,66 31/10/2020
330 183200 AURELIANO MAGELA DE REZENDE COORDENADOR/OFICIAL BELO HORIZONTE - COMARCA; COORD DE GABINETE DO PGJ 14.324,23 5.729,69 2.687,03 0,00 0,00 0,00 0,00 1.550,00 24.290,95 2.205,93 4.777,77 0,00 0,00 6.983,70 17.307,25 31/10/2020
331 629400 AYESKA DA COSTA VAL MOURA DABIEN OFICIAL DO MP BELO HORIZONTE - COMARCA; SUPERINTENDENCIA DE RECURSOS HUMANOS 5.217,34 521,73 0,00 0,00 0,00 0,00 0,00 1.550,00 7.289,07 631,30 535,28 0,00 0,00 1.166,58 6.122,49 31/10/2020
332 652800 BARBARA JULIANNE MOREIRA CASTRO ASSESSOR BELO HORIZONTE - COMARCA; ASSESS TECNICO-JUR JUNTO AS PROC. DE JUST 0,00 0,00 8.170,49 0,00 2.723,50 0,00 0,00 1.550,00 12.443,99 713,09 2.232,89 0,00 0,00 2.945,98 9.498,01 31/10/2020
333 663600 BARBARA REGINA PEREIRA DE PINHO MAGALHAES ASSESSOR BELO HORIZONTE - COMARCA; CAO-DH CONT EXT ATIV POLIC E AP COMUNIT-REC 0,00 0,00 8.170,49 0,00 0,00 0,00 0,00 1.550,00 9.720,49 713,09 1.483,92 0,00 0,00 2.197,01 7.523,48 31/10/2020
334 546500 BARBARA ZACARONI GOULART OFICIAL DO MP BETIM - COMARCA; BETIM-PJ-08PJ 4.974,42 497,44 0,00 0,00 0,00 0,00 0,00 1.550,00 7.021,86 601,90 469,88 0,00 0,00 1.071,78 5.950,08 31/10/2020
335 316500 BEATRIZ ABILVIA DA SILVA ANALISTA DO MP GOVERNADOR VALADARES - COMARCA; GOVERNADOR VALADARES-PJ-07PJ 15.272,02 4.581,61 0,00 0,00 0,00 0,00 0,00 1.550,00 21.403,63 2.183,90 3.989,82 0,00 0,00 6.173,72 15.229,91 31/10/2020
336 311800 BEATRIZ APARECIDA SOARES GANEM OFICIAL DO MP ITAMBACURI - COMARCA; ITAMBACURI-PJ-02PJ 10.069,62 3.020,89 0,00 0,00 0,00 0,00 0,00 1.550,00 14.640,51 1.439,96 2.178,13 0,00 0,00 3.618,09 11.022,42 31/10/2020
337 266800 BEATRIZ AUGUSTA VILACA GOMES DE HUBER OFICIAL DO MP BELO HORIZONTE - COMARCA; BH-05PJ-JUÍZO SUCESSÕES-SEC 8.858,43 2.657,53 0,00 0,00 0,00 0,00 0,00 1.550,00 13.065,96 1.266,76 1.949,17 0,00 0,00 3.215,93 9.850,03 31/10/2020
338 235200 BEATRIZ BOTELHO BATISTA OFICIAL DO MP BELO HORIZONTE - COMARCA; BH-21PJ TUTELA FUNDACOES-SECRETARIA 10.069,62 4.027,85 0,00 0,00 0,00 0,00 0,00 1.550,00 15.647,47 1.550,72 2.581,00 0,00 0,00 4.131,72 11.515,75 31/10/2020
339 182300 BEATRIZ PAULA SOUSA RAMOS OFICIAL DO MP MARIANA - COMARCA; MARIANA-PJ-01PJ 14.324,23 7.162,12 0,00 0,00 0,00 0,00 0,00 1.550,00 23.036,35 2.363,50 4.337,29 0,00 0,00 6.700,79 16.335,56 31/10/2020
340 507000 BELCHIOR FRANKLIN AMARAL LEITE ANALISTA DO MP BELO HORIZONTE - COMARCA; CENTRAL DE APOIO TECNICO 10.069,62 1.006,96 0,00 0,00 0,00 0,00 569,64 2.319,39 13.965,61 1.281,08 1.824,64 0,00 0,00 3.105,72 10.859,89 31/10/2020
341 345100 BENITO ELIAS RODRIGUES ANALISTA DO MP BARBACENA - COMARCA; BARBACENA - SECRETARIA DAS PJS CRIMINAIS 14.790,66 2.958,13 0,00 0,00 0,00 0,00 1.521,30 1.550,00 20.820,09 2.119,71 3.846,99 0,00 0,00 5.966,70 14.853,39 31/10/2020
342 207300 BENITO VIEIRA DOS SANTOS ANALISTA DO MP BELO HORIZONTE - COMARCA; COMB CRIMES PRAT POR AG POL MUN-ASSESSORIA 18.820,14 7.528,06 0,00 0,00 0,00 3.108,92 0,00 1.550,00 31.007,12 2.898,30 4.475,26 0,00 0,00 7.373,56 23.633,56 31/10/2020
343 480200 BERNADETE NUNES DOS SANTOS ANALISTA DO MP GUANHÃES - COMARCA; GUANHAES-PJ-02PJ 10.069,62 3.020,89 0,00 0,00 0,00 0,00 0,00 1.550,00 14.640,51 1.439,96 2.334,54 0,00 0,00 3.774,50 10.866,01 31/10/2020
344 378400 BETANIA FARNESI DE SOUZA E SILVA OFICIAL DO MP SETE LAGOAS - COMARCA; SETE LAGOAS-PJ-SEC CRIMINAIS 8.579,10 3.431,64 0,00 0,00 0,00 0,00 0,00 1.550,00 13.560,74 1.321,18 2.018,13 0,00 0,00 3.339,31 10.221,43 31/10/2020
345 387400 BETANIA MENDONCA DE ASSIS CARVALHO ANALISTA DO MP JUIZ DE FORA - COMARCA; JUIZ DE FORA-PJ-03PJ 13.011,52 2.602,30 0,00 0,00 0,00 0,00 0,00 2.319,39 17.933,21 1.717,52 2.899,99 0,00 0,00 4.617,51 13.315,70 31/10/2020
346 450300 BIANCA OLIVEIRA DE ALBUQUERQUE ANALISTA DO MP BELO HORIZONTE - COMARCA; BH-10PJ EXECUÇÃO PENAL-SECRETARIA 10.069,62 2.013,92 0,00 0,00 4.027,85 0,00 0,00 1.550,00 17.661,39 1.329,19 3.195,75 0,00 0,00 4.524,94 13.136,45 31/10/2020
347 535400 BIANCA SALOTO ROSSI ANALISTA DO MP SANTOS DUMONT - COMARCA; SANTOS DUMONT-PJ-01PJ 8.436,53 843,65 0,00 0,00 0,00 0,00 0,00 1.550,00 10.830,18 1.020,82 1.401,96 0,00 0,00 2.422,78 8.407,40 31/10/2020
348 120800 BRAS MARQUES DE SOUZA ANALISTA DO MP BELO HORIZONTE - COMARCA; SUPERINTENDENCIA DE GESTAO ADMINISTRATIVA 23.757,25 19.005,81 0,00 0,00 0,00 3.900,84 0,00 1.550,00 48.213,90 3.900,84 8.778,48 7.300,84 0,00 19.980,16 28.233,74 31/10/2020
349 460900 BRENO CRISTIANO DE SOUZA REZENDE ANALISTA DO MP ITAÚNA - COMARCA; ITAUNA-PJ-02PJ 9.444,70 944,47 0,00 0,00 0,00 0,00 0,00 1.550,00 11.939,17 1.142,81 1.673,39 0,00 0,00 2.816,20 9.122,97 31/10/2020
350 239000 BRENO VENANCIO ROMANINI OFICIAL DO MP BELO HORIZONTE - COMARCA; BH-20PJ ORD ECON TRIBUTARIA-SECRETARIA 10.069,62 3.020,89 0,00 0,00 0,00 0,00 0,00 1.550,00 14.640,51 1.439,96 2.334,54 0,00 0,00 3.774,50 10.866,01 31/10/2020
351 202201 BRIGITTE AMARALINA DE CALDAS LIMA OFICIAL DO MP NANUQUE - COMARCA; NANUQUE-PJ-03PJ 10.069,62 4.027,85 0,00 0,00 0,00 0,00 0,00 1.550,00 15.647,47 1.550,72 2.320,31 0,00 0,00 3.871,03 11.776,44 31/10/2020
352 642300 BRUNA IZABELITA DE FATIMA OLIVEIRA COSTA OFICIAL DO MP BELO HORIZONTE - COMARCA; BH-02PJ FAMILIA-SECRETARIA 4.817,57 289,05 0,00 0,00 0,00 0,00 0,00 1.550,00 6.656,62 561,73 386,47 0,00 0,00 948,20 5.708,42 31/10/2020
353 513600 BRUNA KARLA MARTINS CARVALHO ANALISTA DO MP GOVERNADOR VALADARES - COMARCA; GOVERNADOR VALADARES-PJ-14PJ 10.069,62 1.006,96 0,00 0,00 0,00 0,00 0,00 1.550,00 12.626,58 1.218,42 1.841,63 0,00 0,00 3.060,05 9.566,53 31/10/2020
354 415100 BRUNA MARIA SOARES OLIVEIRA COSTA RAMOS ANALISTA DO MP UBÁ - COMARCA; COORD REG BACIA DO RIO PARAIBA DO SUL 12.601,30 2.520,26 0,00 0,00 0,00 0,00 0,00 1.550,00 16.671,56 1.663,37 2.831,64 0,00 0,00 4.495,01 12.176,55 31/10/2020
355 470000 BRUNA MORAES ANALISTA DO MP TOMBOS - COMARCA; TOMBOS-PJ-UNPJ 11.085,56 1.108,56 0,00 0,00 0,00 0,00 0,00 2.319,39 14.513,51 1.341,35 1.958,74 0,00 0,00 3.300,09 11.213,42 31/10/2020
356 614700 BRUNA NATTANY DE LIMA OFICIAL DO MP MANTENA - COMARCA; MANTENA-PJ-01PJ 5.217,34 521,73 0,00 0,00 0,00 0,00 0,00 1.550,00 7.289,07 631,30 535,28 0,00 0,00 1.166,58 6.122,49 31/10/2020
357 631800 BRUNA RAPOSO JORGE OFICIAL DO MP JUIZ DE FORA - COMARCA; JUIZ DE FORA-PJ-06PJ 5.217,34 521,73 0,00 0,00 0,00 0,00 0,00 1.550,00 7.289,07 631,30 535,28 0,00 0,00 1.166,58 6.122,49 31/10/2020
358 463800 BRUNO ALVES TEIXEIRA ANALISTA DO MP UBERLÂNDIA - COMARCA; UBERLANDIA-PJ-04PJ 10.069,62 1.006,96 0,00 0,00 0,00 0,00 0,00 1.550,00 12.626,58 1.218,42 1.841,63 0,00 0,00 3.060,05 9.566,53 31/10/2020
359 538500 BRUNO AUGUSTO DA SILVA OFICIAL DO MP SANTA LUZIA - COMARCA; SANTA LUZIA-PJ-03PJ 5.387,19 538,72 0,00 0,00 0,00 0,00 0,00 1.550,00 7.475,91 651,85 581,01 0,00 0,00 1.232,86 6.243,05 31/10/2020
360 318200 BRUNO BARROS DE SOUZA OFICIAL DO MP UBÁ - COMARCA; UBA-PJ-04PJ 10.069,62 3.020,89 0,00 0,00 0,00 0,00 0,00 1.550,00 14.640,51 1.439,96 1.771,75 0,00 0,00 3.211,71 11.428,80 31/10/2020
361 459600 BRUNO CASTELAR LUGAO MENDES OFICIAL DO MP GOVERNADOR VALADARES - COMARCA; GOVERNADOR VALADARES-PJ-01PJ 7.663,37 766,34 0,00 0,00 0,00 0,00 0,00 1.550,00 9.979,71 927,27 1.193,81 0,00 0,00 2.121,08 7.858,63 31/10/2020
362 427400 BRUNO CESAR RIBEIRO DE PAIVA ANALISTA DO MP BELO HORIZONTE - COMARCA; ASSESS JUR DO CONS SUPERIOR DO MINISTERIO PUB 12.601,30 2.520,26 0,00 0,00 0,00 0,00 0,00 1.550,00 16.671,56 1.663,37 2.831,64 0,00 0,00 4.495,01 12.176,55 31/10/2020
363 380900 BRUNO CIRILO ANTUNES OFICIAL DO MP VARGINHA - COMARCA; VARGINHA-PJ-05PJ 8.436,53 1.687,31 0,00 0,00 0,00 0,00 0,00 1.550,00 11.673,84 1.113,62 1.608,45 0,00 0,00 2.722,07 8.951,77 31/10/2020
364 329000 BRUNO DE MELO REIS ANALISTA DO MP PATROCÍNIO - COMARCA; PATROCINIO-PJ-02PJ 15.272,02 4.581,61 0,00 0,00 0,00 0,00 0,00 3.088,78 22.942,41 2.183,90 3.885,54 0,00 0,00 6.069,44 16.872,97 31/10/2020
365 378300 BRUNO HERDY LOPES DE OLIVEIRA ANALISTA DO MP GOVERNADOR VALADARES - COMARCA; GOVERNADOR VALADARES-PJ-03PJ 13.011,52 2.602,30 0,00 0,00 0,00 0,00 0,00 1.550,00 17.163,82 1.717,52 2.952,12 0,00 0,00 4.669,64 12.494,18 31/10/2020
366 529700 BRUNO JOSE BUENO DIAS OFICIAL DO MP SÃO SEBASTIÃO DO PARAÍSO - COMARCA; SAO SEBASTIAO DO PARAISO-PJ-02PJ 5.387,19 538,72 0,00 0,00 0,00 0,00 0,00 1.550,00 7.475,91 651,85 528,87 0,00 0,00 1.180,72 6.295,19 31/10/2020
367 350100 BRUNO LAUD SERRANO DOS REIS OFICIAL DO MP UBÁ - COMARCA; UBA-PJ-02PJ 8.579,10 2.573,73 0,00 0,00 0,00 0,00 0,00 1.550,00 12.702,83 1.226,81 1.808,16 0,00 0,00 3.034,97 9.667,86 31/10/2020
368 373800 BRUNO MARTINO DE ALBUQUERQUE ANALISTA DO MP PONTE NOVA - COMARCA; PONTE NOVA-PJ-03PJ 13.011,52 2.602,30 0,00 0,00 0,00 0,00 0,00 1.550,00 17.163,82 1.717,52 2.847,85 0,00 0,00 4.565,37 12.598,45 31/10/2020
369 470400 BRUNO NOVAIS CABRAL ANALISTA DO MP MUTUM - COMARCA; MUTUM-PJ-UNPJ 10.069,62 1.006,96 0,00 0,00 0,00 0,00 0,00 2.729,73 13.806,31 1.218,42 1.737,36 0,00 0,00 2.955,78 10.850,53 31/10/2020
370 648600 BRUNO RIBEIRO E MELO ASSESSOR BELO HORIZONTE - COMARCA; CENTRO CERIMONIAL 0,00 0,00 8.170,49 0,00 0,00 0,00 0,00 1.550,00 9.720,49 713,09 1.483,92 0,00 0,00 2.197,01 7.523,48 31/10/2020
371 369200 BRUNO ROBERTO DIAS DE OLIVEIRA OFICIAL DO MP BELO HORIZONTE - COMARCA; BH-22PJ PES COM DEF E IDOSOS-SECRETARIA 8.858,43 1.771,69 0,00 0,00 0,00 0,00 0,00 1.550,00 12.180,12 1.169,31 1.732,36 0,00 0,00 2.901,67 9.278,45 31/10/2020
372 547700 BRUNO ROBERTO SOUZA GONCALVES ANALISTA DO MP PARACATU - COMARCA; PARACATU-PJ-03PJ 8.436,53 843,65 0,00 0,00 0,00 0,00 0,00 3.088,78 12.368,96 1.020,82 1.401,96 0,00 0,00 2.422,78 9.946,18 31/10/2020
373 546100 BRUNO SA VIEIRA ANALISTA DO MP CORONEL FABRICIANO - COMARCA; CORONEL FABRICIANO-PJ-03PJ 8.436,53 843,65 0,00 0,00 0,00 0,00 0,00 1.550,00 10.830,18 1.020,82 1.349,83 0,00 0,00 2.370,65 8.459,53 31/10/2020
374 438200 BRUNO SALES PEREIRA ANALISTA DO MP BELO HORIZONTE - COMARCA; CENTRAL DE APOIO TECNICO-SETOR CONTABIL 11.085,56 2.217,11 0,00 0,00 0,00 0,00 0,00 2.319,39 15.622,06 1.463,29 2.334,33 0,00 0,00 3.797,62 11.824,44 31/10/2020
375 537400 BRUNO SANT'ANA CESAR ANALISTA DO MP CONTAGEM - COMARCA; CONTAGEM-PJ-21PJ 8.436,53 843,65 0,00 0,00 0,00 0,00 0,00 1.550,00 10.830,18 1.020,82 1.401,96 0,00 0,00 2.422,78 8.407,40 31/10/2020
376 679000 BRUNO WILLIANS PAULINO DE MELLO ASSESSOR PROCURADOR JUSTICA BELO HORIZONTE - COMARCA; GABINETE DE PROCURADOR DE JUSTIÇA - SALA 1006 0,00 0,00 7.187,72 0,00 0,00 0,00 0,00 1.550,00 8.737,72 713,09 1.213,66 0,00 0,00 1.926,75 6.810,97 31/10/2020
377 405800 CAIO FERNANDO RODRIGUES DE OLIVEIRA ANALISTA DO MP BELO HORIZONTE - COMARCA; ASSESS TECNICO-JUR JUNTO AS PROC. DE JUST 12.601,30 2.520,26 0,00 0,00 0,00 0,00 0,00 1.550,00 16.671,56 1.663,37 2.831,64 0,00 0,00 4.495,01 12.176,55 31/10/2020
378 530000 CAIO GUEDES DE OLIVEIRA ANALISTA DO MP DIAMANTINA - COMARCA; DIAMANTINA-PJ-02PJ 8.436,53 843,65 0,00 0,00 0,00 0,00 0,00 2.319,39 11.599,57 1.020,82 1.349,83 0,00 0,00 2.370,65 9.228,92 31/10/2020
379 491400 CAIO MIRANDA JUNQUEIRA ANALISTA DO MP BUENO BRANDAO - COMARCA; BUENO BRANDAO-PJ-UNPJ 9.444,70 944,47 0,00 0,00 0,00 0,00 0,00 2.319,39 12.708,56 1.142,81 1.569,11 0,00 0,00 2.711,92 9.996,64 31/10/2020
380 415800 CAMILA ALVES DA SILVA ANALISTA DO MP CAETÉ - COMARCA; CAETE-PJ-01PJ 12.601,30 2.520,26 0,00 0,00 0,00 0,00 0,00 1.550,00 16.671,56 1.663,37 2.831,64 0,00 0,00 4.495,01 12.176,55 31/10/2020
381 555800 CAMILA CAROLINE ROCHA CHAVES OFICIAL DO MP SALINAS - COMARCA; SALINAS-PJ-01PJ 5.387,19 538,72 0,00 0,00 0,00 0,00 0,00 1.550,00 7.475,91 651,85 581,01 0,00 0,00 1.232,86 6.243,05 31/10/2020
382 445200 CAMILA CONDE ROCHA ANALISTA DO MP CONTAGEM - COMARCA; CONTAGEM-PJ-08PJ 10.069,62 2.013,92 0,00 0,00 0,00 0,00 0,00 2.319,39 14.402,93 1.329,19 2.088,09 0,00 0,00 3.417,28 10.985,65 31/10/2020
383 419900 CAMILA CUNNINGHAM PIMENTA DE PADUA ANALISTA DO MP BELO HORIZONTE - COMARCA; ASSESSORIA PSICOSSOCIAL 12.601,30 2.520,26 0,00 0,00 0,00 0,00 0,00 1.550,00 16.671,56 1.663,37 2.831,64 0,00 0,00 4.495,01 12.176,55 31/10/2020
384 507700 CAMILA ELIZABETH RODRIGUES ANALISTA DO MP BELO HORIZONTE - COMARCA; BH-02PJ FAMILIA-SECRETARIA 10.397,52 1.039,75 0,00 0,00 0,00 0,00 0,00 1.550,00 12.987,27 1.258,10 1.929,91 0,00 0,00 3.188,01 9.799,26 31/10/2020
385 372700 CAMILA FONSECA LIMONGE ANALISTA DO MP BETIM - COMARCA; BETIM-PJ-01PJ 13.011,52 2.602,30 0,00 0,00 0,00 0,00 0,00 2.319,39 17.933,21 1.717,52 2.952,12 0,00 0,00 4.669,64 13.263,57 31/10/2020
386 621300 CAMILA GOLFETO DE SOUSA VALENTE OFICIAL DO MP ESPERA FELIZ - COMARCA; ESPERA FELIZ-PJ-UNPJ 5.217,34 521,73 0,00 0,00 0,00 0,00 179,54 2.703,54 8.622,15 651,05 422,81 0,00 0,00 1.073,86 7.548,29 31/10/2020
387 409800 CAMILA GONCALVES COSTA RIBEIRO ANALISTA DO MP INHAPIM - COMARCA; INHAPIM-PJ-02PJ 10.069,62 2.013,92 0,00 0,00 0,00 0,00 0,00 2.319,39 14.402,93 1.329,19 2.035,95 0,00 0,00 3.365,14 11.037,79 31/10/2020
388 335000 CAMILA GONTIJO DE PAIVA ANALISTA DO MP BELO HORIZONTE - COMARCA; COORD DE CONTROLE DA CONSTITUCIONALIDADE 15.499,20 3.099,84 0,00 0,00 0,00 0,00 0,00 1.550,00 20.149,04 2.045,89 3.630,62 0,00 0,00 5.676,51 14.472,53 31/10/2020
389 547800 CAMILA MATTARELLI DE ABREU E SILVA ANALISTA DO MP BELO HORIZONTE - COMARCA; CAO-VIOLENCIA DOMESTICA E FAMILIAR 8.436,53 843,65 0,00 0,00 0,00 0,00 0,00 1.550,00 10.830,18 1.020,82 1.401,96 0,00 0,00 2.422,78 8.407,40 31/10/2020
390 430000 CANDIDA MARINA COSTA ANALISTA DO MP BELO HORIZONTE - COMARCA; DIVISAO DE DOCUMENTACAO JURIDICA 12.601,30 2.520,26 0,00 0,00 0,00 0,00 0,00 1.550,00 16.671,56 1.663,37 2.831,64 0,00 0,00 4.495,01 12.176,55 31/10/2020
391 614300 CARINA CORTIELHA OFICIAL DO MP BELO HORIZONTE - COMARCA; BH-23PJ CIVEL-SEC EXP CIVEIS 4.817,57 481,76 0,00 0,00 1.766,44 0,00 0,00 1.550,00 8.615,77 582,93 913,42 0,00 0,00 1.496,35 7.119,42 31/10/2020
392 380400 CARINA DIAS FACANHA DE SOUZA ANALISTA DO MP SANTA RITA DO SAPUCAÍ - COMARCA; SANTA RITA DO SAPUCAI-PJ-SECRETARIA 13.011,52 2.602,30 0,00 0,00 0,00 0,00 0,00 1.550,00 17.163,82 1.717,52 2.952,12 0,00 0,00 4.669,64 12.494,18 31/10/2020
393 255000 CARLA ADRIANA DE MENEZES OFICIAL DO MP BELO HORIZONTE - COMARCA; CENT DE APOIO TEC-SETOR DEF,IDOSO E INFANC 10.069,62 3.020,89 0,00 0,00 0,00 0,00 0,00 1.550,00 14.640,51 1.439,96 2.334,54 0,00 0,00 3.774,50 10.866,01 31/10/2020
394 425100 CARLA ADRIANA DINIZ AMARAL OFICIAL DO MP CONTAGEM - COMARCA; CONTAGEM-PJ-SECRETARIA 7.912,85 1.582,57 0,00 0,00 0,00 0,00 0,00 1.550,00 11.045,42 1.044,50 1.454,64 0,00 0,00 2.499,14 8.546,28 31/10/2020
395 508100 CARLA ALESSANDRA FONSECA ANALISTA DO MP BELO HORIZONTE - COMARCA; CAO-ORDEM ECONOMICA E TRIBUTARIA-SECRETARIA 10.069,62 1.006,96 0,00 0,00 0,00 0,00 0,00 1.550,00 12.626,58 1.218,42 1.841,63 0,00 0,00 3.060,05 9.566,53 31/10/2020
396 607100 CARLA ANGELICA DIAS MIRANDA OFICIAL DO MP JABOTICATUBAS - COMARCA; JABOTICATUBAS-PJ-UNPJ 5.387,19 538,72 0,00 0,00 0,00 0,00 0,00 1.550,00 7.475,91 651,85 424,59 0,00 0,00 1.076,44 6.399,47 31/10/2020
397 351500 CARLA APARECIDA MENDES RAMIRIO OFICIAL DO MP PASSOS - COMARCA; PASSOS-PJ-01PJ 8.858,43 1.771,69 0,00 0,00 0,00 0,00 0,00 1.550,00 12.180,12 1.169,31 1.680,23 0,00 0,00 2.849,54 9.330,58 31/10/2020
398 442800 CARLA GONCALVES COSTA SOALHEIRO ANALISTA DO MP GOVERNADOR VALADARES - COMARCA; GOVERNADOR VALADARES-PJ-11PJ 10.069,62 2.013,92 0,00 0,00 0,00 0,00 0,00 2.319,39 14.402,93 1.329,19 2.035,95 0,00 0,00 3.365,14 11.037,79 31/10/2020
399 321500 CARLA GONCALVES MASSOTE OFICIAL DO MP CAMPO BELO - COMARCA; CAMPO BELO-PJ-01PJ 10.069,62 3.020,89 0,00 0,00 0,00 0,00 0,00 1.550,00 14.640,51 1.439,96 2.334,54 0,00 0,00 3.774,50 10.866,01 31/10/2020
400 429200 CARLA HAUTEQUESTT BECHARA COORDENADOR/ANALISTA BELO HORIZONTE - COMARCA; DIRET DE INFORMACAO E CONHECIMENTO-DINC/CEAF 12.601,30 2.520,26 2.687,03 0,00 0,00 0,00 0,00 1.550,00 19.358,59 1.663,37 3.570,58 0,00 0,00 5.233,95 14.124,64 31/10/2020
401 247500 CARLA MATILDE GUIMARAES DE OLIVEIRA OFICIAL DO MP ITAJUBA - COMARCA; ITAJUBA-PJ-SECRETARIA 10.069,62 4.027,85 0,00 0,00 0,00 0,00 0,00 1.550,00 15.647,47 1.550,72 2.528,86 0,00 0,00 4.079,58 11.567,89 31/10/2020
402 226100 CARLA MERLI DA CONCEICAO ANALISTA DO MP BELO HORIZONTE - COMARCA; CENTRAL DE APOIO TECNICO-SETOR CONTABIL 18.820,14 5.646,04 0,00 0,00 0,00 0,00 0,00 1.550,00 26.016,18 2.691,28 5.066,60 0,00 0,00 7.757,88 18.258,30 31/10/2020
403 181401 CARLO MICHEL GAUDENSI COELHO ANALISTA DO MP BELO HORIZONTE - COMARCA; BH-08PJ JUIZADO ESPECIAL-SECRETARIA 12.204,02 4.881,61 0,00 0,00 0,00 0,00 0,00 1.550,00 18.635,63 1.879,42 3.312,35 0,00 0,00 5.191,77 13.443,86 31/10/2020
404 634000 CARLOS ALBERTO AMORMINO TRIGUEIRO ANALISTA DO MP BELO HORIZONTE - COMARCA; DIRET DE APOIO AS PROCURADORIAS DE JUSTICA 7.421,79 742,18 0,00 0,00 0,00 0,00 0,00 2.216,80 10.380,77 898,04 1.076,63 0,00 0,00 1.974,67 8.406,10 31/10/2020
405 637900 CARLOS ALBERTO DE MOURA OFICIAL DO MP SETE LAGOAS - COMARCA; SETE LAGOAS-PJ-07PJ 4.817,57 481,76 0,00 0,00 0,00 0,00 0,00 2.319,39 7.618,72 582,93 382,40 0,00 0,00 965,33 6.653,39 31/10/2020
406 638700 CARLOS ALBERTO FERREIRA BRAGA ANALISTA DO MP MATOZINHOS - COMARCA; MATOZINHOS-PJ-01PJ 6.741,63 674,16 0,00 0,00 0,00 0,00 0,00 1.550,00 8.965,79 671,12 881,15 0,00 0,00 1.552,27 7.413,52 31/10/2020
407 375801 CARLOS ALBERTO ROCHA ANALISTA DO MP VARGINHA - COMARCA; GAECO REGIONAL DE VARGINHA 9.146,93 914,69 0,00 0,00 0,00 0,00 405,82 5.977,11 16.444,55 1.106,78 1.593,22 0,00 0,00 2.700,00 13.744,55 31/10/2020
408 462800 CARLOS ANDREI SOARES FAGUNDES ANALISTA DO MP MONTES CLAROS - COMARCA; MONTES CLAROS-PJ-09PJ 10.069,62 1.006,96 0,00 0,00 0,00 0,00 0,00 2.319,39 13.395,97 1.218,42 1.789,50 0,00 0,00 3.007,92 10.388,05 31/10/2020
409 370300 CARLOS AUGUSTO BUENO DIAS ASSESSOR BELO HORIZONTE - COMARCA; SUPERINTENDÊNCIA DE ENGENHARIA E ARQUITETURA 0,00 0,00 10.397,52 0,00 0,00 0,00 0,00 1.550,00 11.947,52 713,09 1.383,05 0,00 0,00 2.096,14 9.851,38 31/10/2020
410 505100 CARLOS CEZAR CARVALHO ANALISTA DO MP RIBEIRÃO DAS NEVES - COMARCA; RIBEIRAO DAS NEVES-PJ-04PJ 9.444,70 3.777,88 0,00 0,00 0,00 0,00 0,00 1.550,00 14.772,58 1.454,48 2.262,59 0,00 0,00 3.717,07 11.055,51 31/10/2020
411 195900 CARLOS DE SOUZA FERREIRA OFICIAL DO MP COROMANDEL - COMARCA; COROMANDEL-PJ-UNPJ 10.069,62 8.055,69 0,00 0,00 0,00 0,00 0,00 1.550,00 19.675,31 1.993,78 3.566,81 0,00 0,00 5.560,59 14.114,72 31/10/2020
412 196800 CARLOS EDUARDO DE OLIVEIRA MARINHO OFICIAL DO MP ALPINÓPOLIS - COMARCA; ALPINOPOLIS-PJ-UNPJ 14.790,66 10.353,47 0,00 0,00 0,00 0,00 1.379,33 1.550,00 28.073,46 2.917,58 5.570,12 0,00 0,00 8.487,70 19.585,76 31/10/2020
413 650800 CARLOS EDUARDO NIZA DA SILVA OFICIAL DO MP IGARAPÉ - COMARCA; IGARAPE-PJ-01PJ 4.238,09 254,29 0,00 0,00 0,00 0,00 0,00 1.550,00 6.042,38 494,16 220,81 0,00 0,00 714,97 5.327,41 31/10/2020
414 491800 CARLOS EDUARDO ROMAN OFICIAL DO MP BARBACENA - COMARCA; BARBACENA-PJ-09PJ 7.421,79 1.484,36 0,00 0,00 0,00 0,00 0,00 1.550,00 10.456,15 979,68 1.310,42 0,00 0,00 2.290,10 8.166,05 31/10/2020
415 299300 CARLOS HENRIQUE BICALHO ANALISTA DO MP BELO HORIZONTE - COMARCA; BH-17PJ PATRIMONIO PUBLICO-SECRETARIA 16.750,82 6.700,33 0,00 0,00 0,00 0,00 0,00 2.319,39 25.770,54 2.579,63 4.870,31 0,00 0,00 7.449,94 18.320,60 31/10/2020
416 205100 CARLOS HENRIQUE ESTEVES OFICIAL DO MP ITAMBACURI - COMARCA; ITAMBACURI-PJ-01PJ 14.790,66 5.916,26 0,00 0,00 0,00 0,00 0,00 1.550,00 22.256,92 2.277,76 4.146,52 0,00 0,00 6.424,28 15.832,64 31/10/2020
417 351600 CARLOS HENRIQUE FELICIO DA FONSECA OFICIAL DO MP JUIZ DE FORA - COMARCA; JUIZ DE FORA-PJ-21PJ 9.444,70 2.833,41 0,00 0,00 0,00 0,00 0,00 1.550,00 13.828,11 1.350,59 2.083,57 0,00 0,00 3.434,16 10.393,95 31/10/2020
418 85400 CARLOS JOSE VIEIRA OFICIAL DO MP BELO HORIZONTE - COMARCA; DIRETORIA DO COLEGIO E DA CAMARA DE PJ 23.757,25 19.005,81 0,00 0,00 0,00 0,00 0,00 1.550,00 44.313,06 3.900,84 7.810,02 7.300,84 0,00 19.011,70 25.301,36 31/10/2020
419 229100 CARLOS MERCES DE OLIVEIRA ANALISTA DO MP BELO HORIZONTE - COMARCA; CENTRAL DE APOIO TECN-SETOR DE MEIO AMBIENTE 18.820,14 7.528,06 0,00 0,00 0,00 0,00 0,00 1.550,00 27.898,20 2.898,30 4.218,58 0,00 0,00 7.116,88 20.781,32 31/10/2020
420 538300 CARLOS RANGEL SILVA DE MELO ANALISTA DO MP BELO HORIZONTE - COMARCA; DIVISAO DE CONTROLE IMOBILIARIO 8.436,53 2.530,96 0,00 0,00 0,00 0,00 0,00 2.319,39 13.286,88 1.206,42 1.814,93 0,00 0,00 3.021,35 10.265,53 31/10/2020
421 265100 CARLOS REIFF MIRANDA ANALISTA DO MP BELO HORIZONTE - COMARCA; BH-19PJ SAUDE-SECRETARIA 150PJ 15.272,02 4.581,61 0,00 0,00 0,00 0,00 0,00 1.550,00 21.403,63 2.183,90 3.989,82 0,00 0,00 6.173,72 15.229,91 31/10/2020
422 305400 CARLOS ROCHA DE SOUZA OFICIAL DO MP MONTALVÂNIA - COMARCA; MONTALVANIA-PJ-SECRETARIA 6.123,79 1.837,14 0,00 0,00 0,00 0,00 0,00 2.087,51 10.048,44 875,70 870,53 0,00 0,00 1.746,23 8.302,21 31/10/2020
423 365100 CARLOS WAGNER SANDER MORAIS COORDENADOR/OFICIAL BELO HORIZONTE - COMARCA; DIRETORIA DE ADMINISTRACAO FINANCEIRA 0,00 2.687,03 13.435,16 0,00 0,00 2.000,16 0,00 1.550,00 19.672,35 1.773,44 3.563,87 0,00 114,26 5.451,57 14.220,78 31/10/2020
424 399900 CARMELITA EVANGELISTA DE SOUZA OFICIAL DO MP JOÃO PINHEIRO - COMARCA; JOAO PINHEIRO-PJ-01PJ 7.663,37 1.532,67 0,00 0,00 0,00 0,00 0,00 1.550,00 10.746,04 1.011,56 1.381,37 0,00 0,00 2.392,93 8.353,11 31/10/2020
425 202000 CARMEN LUCIA MARIZ DE MACEDO OFICIAL DO MP BELO HORIZONTE - COMARCA; DIRETORIA GESTAO COMPRAS LICITACOES 14.324,23 10.026,96 0,00 0,00 0,00 0,00 89,29 2.524,05 26.964,53 2.678,63 4.986,32 0,00 0,00 7.664,95 19.299,58 31/10/2020
426 228500 CAROLINA CHIARELLA DOS SANTOS RIBEIRO ASSESSOR/OFICIAL BELO HORIZONTE - COMARCA; PROCURADORIA-GERAL ADJUNTA INSTITUCIONAL 0,00 3.119,26 10.397,52 0,00 0,00 0,00 0,00 1.550,00 15.066,78 1.206,42 2.411,71 0,00 0,00 3.618,13 11.448,65 31/10/2020
427 446500 CAROLINA COSTA VAL RODRIGUES ANALISTA DO MP CONTAGEM - COMARCA; CONTAGEM-PJ-05PJ 12.204,02 2.440,80 0,00 0,00 0,00 0,00 0,00 1.550,00 16.194,82 1.610,93 2.714,96 0,00 0,00 4.325,89 11.868,93 31/10/2020
428 603501 CAROLINA DOMINGOS BRANDAO RABELLO ANALISTA DO MP BARROSO - COMARCA; BARROSO-PJ-01PJ 8.436,53 843,65 0,00 0,00 0,00 0,00 0,00 1.550,00 10.830,18 1.020,82 1.401,96 0,00 0,00 2.422,78 8.407,40 31/10/2020
429 404300 CAROLINA DOS SANTOS VIEIRA ANALISTA DO MP BELO HORIZONTE - COMARCA; BH-08PJ JUIZADO ESPECIAL-SECRETARIA 13.011,52 2.602,30 0,00 0,00 0,00 0,00 0,00 1.550,00 17.163,82 1.717,52 2.847,85 0,00 0,00 4.565,37 12.598,45 31/10/2020
430 551200 CAROLINA LOPES ARANTES MASCARENHAS ANALISTA DO MP BELO HORIZONTE - COMARCA; COORD EST DEF DIR FAM PESSOAS DEFICI IDOSOS 8.436,53 843,65 0,00 0,00 0,00 0,00 0,00 2.319,39 11.599,57 1.020,82 1.297,69 0,00 0,00 2.318,51 9.281,06 31/10/2020
431 622600 CAROLINA LOREDO LOPES CATIZANI OFICIAL DO MP RIBEIRÃO DAS NEVES - COMARCA; RIBEIRAO DAS NEVES-PJ-12PJ 4.817,57 481,76 0,00 0,00 0,00 0,00 0,00 1.550,00 6.849,33 582,93 427,65 0,00 0,00 1.010,58 5.838,75 31/10/2020
432 382200 CAROLINA MENDES CHAVES LIN ANALISTA DO MP BELO HORIZONTE - COMARCA; BH-12PJ JUIZO CRIMINAL-GAB 088PJ 10.069,62 2.013,92 0,00 0,00 0,00 0,00 0,00 2.319,39 14.402,93 1.329,19 2.035,95 0,00 0,00 3.365,14 11.037,79 31/10/2020
433 461900 CAROLINA MURTA TEIXEIRA DIAS ASSESSOR/ANALISTA BELO HORIZONTE - COMARCA; PROCURADOR-GERAL DE JUSTIÇA 0,00 1.260,13 12.601,30 0,00 0,00 0,00 0,00 1.550,00 15.411,43 1.218,42 2.607,47 0,00 0,00 3.825,89 11.585,54 31/10/2020
434 509600 CAROLINA PINTO DE OLIVEIRA SOUZA ANALISTA DO MP MURIAÉ - COMARCA; MURIAE-PJ-01PJ 10.069,62 1.006,96 0,00 0,00 0,00 0,00 0,00 2.319,39 13.395,97 1.218,42 1.685,22 0,00 0,00 2.903,64 10.492,33 31/10/2020
435 629100 CAROLINA RODRIGUES AMARAL ANALISTA DO MP BELO HORIZONTE - COMARCA; PROC. JUSTICA DIR. DIFUSOS E COLETIVOS-SEC 8.170,49 817,05 0,00 0,00 0,00 0,00 0,00 1.550,00 10.537,54 988,63 1.330,34 0,00 0,00 2.318,97 8.218,57 31/10/2020
436 502600 CAROLINA RODRIGUES RUBEN ANALISTA DO MP BELO HORIZONTE - COMARCA; BH-18PJ VIOLENCIA DOMESTICA-SECRETARIA 10.069,62 1.006,96 0,00 0,00 0,00 0,00 0,00 10.177,79 21.254,37 1.218,42 1.737,36 0,00 0,00 2.955,78 18.298,59 31/10/2020
437 529600 CAROLINA VAZ DE MELO MAMBRINI ANALISTA DO MP BELO HORIZONTE - COMARCA; DIVISAO DE MATERIAIS 8.436,53 843,65 0,00 0,00 0,00 0,00 0,00 1.550,00 10.830,18 1.020,82 1.401,96 0,00 0,00 2.422,78 8.407,40 31/10/2020
438 619100 CAROLINA ZAKHIA NARDELLI RODRIGUES ANALISTA DO MP NEPOMUCENO - COMARCA; NEPOMUCENO-PJ-UNPJ 8.170,49 817,05 0,00 0,00 0,00 0,00 499,48 2.319,39 11.806,41 1.043,57 1.452,59 0,00 0,00 2.496,16 9.310,25 31/10/2020
439 517600 CAROLINE ALVES DE OLIVEIRA MULLER ANALISTA DO MP VISCONDE DO RIO BRANCO - COMARCA; VISCONDE DO RIO BRANCO-PJ-01PJ 10.069,62 1.006,96 0,00 0,00 0,00 0,00 0,00 2.319,39 13.395,97 1.218,42 1.789,50 0,00 0,00 3.007,92 10.388,05 31/10/2020
440 373200 CAROLINE ANTUNES RIBEIRO OFICIAL DO MP JACUI - COMARCA; JACUI-PJ-UNPJ 8.579,10 1.715,82 0,00 0,00 0,00 0,00 0,00 1.550,00 11.844,92 1.132,44 1.493,91 0,00 0,00 2.626,35 9.218,57 31/10/2020
441 556800 CAROLINE DE SOUZA CARDOSO DOMINGUES OFICIAL DO MP BRASÍLIA DE MINAS - COMARCA; BRASILIA DE MINAS-PJ-02PJ 5.387,19 538,72 0,00 0,00 0,00 0,00 0,00 1.550,00 7.475,91 651,85 581,01 0,00 0,00 1.232,86 6.243,05 31/10/2020
442 499400 CAROLINE MARQUES DE LOURDES MARZULLO OFICIAL DO MP JUIZ DE FORA - COMARCA; JUIZ DE FORA-PJ-08PJ 7.421,79 742,18 0,00 0,00 0,00 0,00 0,00 2.703,54 10.867,51 898,04 1.128,77 0,00 0,00 2.026,81 8.840,70 31/10/2020
443 616800 CAROLINE MONTEIRO DE BARROS ANALISTA DO MP CONTAGEM - COMARCA; CONTAGEM-PJ-11PJ 8.170,49 817,05 0,00 0,00 0,00 0,00 0,00 1.550,00 10.537,54 988,63 1.330,34 0,00 0,00 2.318,97 8.218,57 31/10/2020
444 618100 CAROLINE VASCONCELOS COSTA LANZA ANALISTA DO MP PARAOPEBA - COMARCA; PARAOPEBA-PJ-UNPJ 8.170,49 817,05 0,00 0,00 0,00 0,00 491,77 4.627,56 14.106,87 1.042,72 1.450,70 0,00 0,00 2.493,42 11.613,45 31/10/2020
445 604000 CASSIA APARECIDA DA SILVA OFICIAL DO MP PARACATU - COMARCA; PARACATU-PJ-01PJ 5.387,19 538,72 0,00 0,00 0,00 0,00 416,48 1.550,00 7.892,39 697,66 682,94 0,00 0,00 1.380,60 6.511,79 31/10/2020
446 268800 CASSIA BEATRIZ TEIXEIRA OFICIAL DO MP BELO HORIZONTE - COMARCA; COMB CRIMES PRAT POR AG POL MUN-SECRETARIA 12.204,02 3.661,21 0,00 0,00 5.288,41 0,00 0,00 1.550,00 22.703,64 1.745,18 4.467,97 0,00 0,00 6.213,15 16.490,49 31/10/2020
447 500000 CASSIA DE OLIVEIRA COSTA VIANA ANALISTA DO MP SETE LAGOAS - COMARCA; SETE LAGOAS-PJ-09PJ 10.069,62 5.034,81 0,00 0,00 0,00 0,00 0,00 1.550,00 16.654,43 1.661,49 2.827,45 0,00 0,00 4.488,94 12.165,49 31/10/2020
448 368800 CASSIA LUISA BATISTA MENDONCA WEBER OFICIAL DO MP BELO HORIZONTE - COMARCA; DIVISÃO DE EDUCAÇÃO PARA O CONSUMO 7.421,79 1.484,36 0,00 0,00 0,00 0,00 879,47 1.550,00 11.335,62 979,68 1.552,27 0,00 0,00 2.531,95 8.803,67 31/10/2020
449 622200 CASSIA VAZ DE AZEVEDO LISBOA MARZANO ASSESSOR BELO HORIZONTE - COMARCA; CGMP-SECRETARIA DA CORREGEDORIA-GERAL DO MP 0,00 0,00 3.076,28 0,00 0,00 0,00 0,00 2.319,39 5.395,67 474,92 115,09 0,00 0,00 590,01 4.805,66 31/10/2020
450 121000 CASSIO HENRIQUE AFONSO DA SILVA OFICIAL DO MP BELO HORIZONTE - COMARCA; ASSESS TECNICA DA CORREGEDORIA-GERAL DO MP 16.750,82 11.725,57 0,00 0,00 0,00 0,00 0,00 1.550,00 30.026,39 3.132,40 5.995,96 0,00 0,00 9.128,36 20.898,03 31/10/2020
451 121100 CASSIO MOREIRA DE MIRANDA AGENTE DO MP BELO HORIZONTE - COMARCA; DIVISÃO DE FISCALIZAÇÃO DAS RELAÇÕES DE CONSU 4.376,03 3.500,82 0,00 0,00 0,00 929,42 0,00 1.550,00 10.356,27 866,45 275,49 0,00 770,81 1.912,75 8.443,52 31/10/2020
452 512001 CATARINA NATALINO CALIXTO COORDENADOR/ANALISTA BELO HORIZONTE - COMARCA; DIRETORIA GESTAO TRANSPORTES 0,00 1.343,52 13.435,16 0,00 0,00 0,00 0,00 1.550,00 16.328,68 988,63 2.896,51 0,00 94,00 3.979,14 12.349,54 31/10/2020
453 606200 CATARINE DE SIQUEIRA DE QUADROS ANALISTA DO MP RIBEIRÃO DAS NEVES - COMARCA; RIBEIRAO DAS NEVES-PJ-02PJ 7.663,37 766,34 0,00 0,00 0,00 0,00 0,00 1.550,00 9.979,71 927,27 1.141,67 0,00 0,00 2.068,94 7.910,77 31/10/2020
454 622300 CECILIA APARECIDA PEREIRA ASSUNCAO OFICIAL DO MP TRÊS PONTAS - COMARCA; TRES PONTAS-PJ-SECRETARIA 5.217,34 521,73 0,00 0,00 0,00 0,00 0,00 2.319,39 8.058,46 631,30 483,14 0,00 0,00 1.114,44 6.944,02 31/10/2020
455 538000 CECILIA FONTES DE MATOS PIMENTEL ANALISTA DO MP PALMA - COMARCA; PALMA-PJ-UNPJ 8.436,53 843,65 0,00 0,00 0,00 0,00 0,00 2.319,39 11.599,57 1.020,82 1.401,96 0,00 0,00 2.422,78 9.176,79 31/10/2020
456 261300 CECILIO ANTONIO CAMPOS DOS REIS ANALISTA DO MP BELO HORIZONTE - COMARCA; AUDITORIA INTERNA 17.413,92 5.224,18 0,00 0,00 0,00 0,00 0,00 1.550,00 24.188,10 2.490,19 4.671,32 0,00 0,00 7.161,51 17.026,59 31/10/2020
457 386400 CEFAS AMORELI DE FIGUEIREDO OFICIAL DO MP CABO VERDE - COMARCA; CABO VERDE-PJ-SECRETARIA 6.123,79 1.224,76 0,00 0,00 0,00 0,00 0,00 1.550,00 8.898,55 808,34 929,20 0,00 0,00 1.737,54 7.161,01 31/10/2020
458 149000 CELIA MAGALHAES CLAROS SOSSI OFICIAL DO MP GOVERNADOR VALADARES - COMARCA; GAECO REGIONAL DE GOVERNADOR VALADARES 15.272,02 10.690,41 0,00 0,00 0,00 3.044,76 0,00 1.550,00 30.557,19 2.855,87 6.270,31 0,00 0,00 9.126,18 21.431,01 31/10/2020
459 421000 CELINA BENEDITA DE SOUZA ALMEIDA OFICIAL DO MP CAMBUÍ - COMARCA; CAMBUI-PJ-01PJ 7.912,85 3.956,43 0,00 0,00 0,00 0,00 469,65 1.550,00 13.888,93 1.357,28 2.098,46 0,00 0,00 3.455,74 10.433,19 31/10/2020
460 252900 CELIO DE MELO CASTOR ANALISTA DO MP BELO HORIZONTE - COMARCA; BH-02PJ FAMILIA-SECRETARIA 17.413,92 5.224,18 0,00 0,00 0,00 0,00 0,00 1.550,00 24.188,10 2.490,19 4.671,32 0,00 0,00 7.161,51 17.026,59 31/10/2020
461 395700 CELIO FERREIRA LIMA OFICIAL DO MP CONTAGEM - COMARCA; CONTAGEM-PJ-SECRETARIA 8.436,53 1.687,31 0,00 0,00 3.374,61 0,00 0,00 2.319,39 15.817,84 1.113,62 2.484,33 0,00 0,00 3.597,95 12.219,89 31/10/2020
462 281300 CELMA REGINA PEREIRA SANTOS ANALISTA DO MP BELO HORIZONTE - COMARCA; SUPERINTENDENCIA DE RECURSOS HUMANOS 16.750,82 5.025,25 0,00 0,00 0,00 0,00 0,00 1.550,00 23.326,07 2.395,37 4.460,33 0,00 0,00 6.855,70 16.470,37 31/10/2020
463 535600 CELSO MEDEIROS DE PAIVA OFICIAL DO MP RIO PRETO - COMARCA; RIO PRETO-PJ-SECRETARIA 4.974,42 497,44 0,00 0,00 0,00 0,00 0,00 1.550,00 7.021,86 601,90 417,74 0,00 0,00 1.019,64 6.002,22 31/10/2020
464 367000 CESAR NARVAES DE AVELAR COORDENADOR/OFICIAL BELO HORIZONTE - COMARCA; DIVISAO DE MEMORIA INSTITUCIONAL 0,00 2.363,83 11.819,15 0,00 0,00 0,00 0,00 1.550,00 15.732,98 1.169,31 2.708,66 0,00 0,00 3.877,97 11.855,01 31/10/2020
465 226500 CESAR SILVEIRA BARROUIN OFICIAL DO MP BELO HORIZONTE - COMARCA; DIRETORIA DE ADMINISTRACAO FINANCEIRA 12.204,02 4.881,61 0,00 0,00 0,00 0,00 0,00 1.550,00 18.635,63 1.879,42 3.312,35 0,00 0,00 5.191,77 13.443,86 31/10/2020
466 121400 CEZAR MORENO CONCEICAO TAVARES OFICIAL DO MP BELO HORIZONTE - COMARCA; COORD EST DEF DIR FAM PESSOAS DEFICI IDOSOS 15.272,02 10.690,41 0,00 0,00 0,00 0,00 0,00 2.319,39 28.281,82 2.855,87 5.380,67 0,00 0,00 8.236,54 20.045,28 31/10/2020
467 243800 CHARLES MARTINS MUNIZ OFICIAL DO MP BELO HORIZONTE - COMARCA; LAB TECNOLOGIA CONTRA LAVAGEM DINHEIRO 12.204,02 4.881,61 0,00 0,00 0,00 0,00 0,00 1.100,00 18.185,63 1.879,42 3.312,35 0,00 0,00 5.191,77 12.993,86 31/10/2020
468 193500 CHARLIN CESAR KOURLY OFICIAL DO MP ARAGUARI - COMARCA; ARAGUARI-PJ-07PJ 14.790,66 5.916,26 0,00 0,00 0,00 0,00 0,00 1.550,00 22.256,92 2.277,76 4.198,66 0,00 0,00 6.476,42 15.780,50 31/10/2020
469 385500 CHILLEN PEIXOTO DE MOURA OFICIAL DO MP BELO HORIZONTE - COMARCA; DIVISÃO DE FISCALIZAÇÃO DAS RELAÇÕES DE CONSU 8.436,53 1.687,31 0,00 0,00 0,00 0,00 0,00 1.550,00 11.673,84 1.113,62 1.608,45 0,00 0,00 2.722,07 8.951,77 31/10/2020
470 534500 CHRISTIAN DOUGLAS BRITO RUAS OFICIAL DO MP SÃO JOÃO DA PONTE - COMARCA; SAO JOAO DA PONTE-PJ-SECRETARIA 5.387,19 538,72 0,00 0,00 0,00 0,00 304,74 1.550,00 7.780,65 685,37 655,59 0,00 0,00 1.340,96 6.439,69 31/10/2020
471 370600 CHRISTIAN KARINE FELIX PRATES ASSESSOR BELO HORIZONTE - COMARCA; SUPRIN DE PLANEJAMENTO E COORDENACAO 0,00 0,00 10.397,52 0,00 0,00 0,00 0,00 1.550,00 11.947,52 713,09 2.096,36 0,00 0,00 2.809,45 9.138,07 31/10/2020
472 435800 CHRISTIANA BAHIA ANDRADE PINA ANALISTA DO MP BELO HORIZONTE - COMARCA; LABORATORIO TECNOLOGIA INTELIGENCIA 12.601,30 2.520,26 0,00 0,00 0,00 0,00 0,00 2.319,39 17.440,95 1.663,37 2.831,64 0,00 0,00 4.495,01 12.945,94 31/10/2020
473 516800 CHRISTIANE FERREIRA DO NASCIMENTO ANALISTA DO MP POUSO ALEGRE - COMARCA; POUSO ALEGRE-PJ-08PJ 10.069,62 1.006,96 0,00 0,00 0,00 0,00 0,00 1.550,00 12.626,58 1.218,42 1.841,63 0,00 0,00 3.060,05 9.566,53 31/10/2020
474 176000 CHRISTIANE JUNQUEIRA PULITI ANDRADE DE BARROS ASSESSOR BELO HORIZONTE - COMARCA; CAO-VIOLENCIA DOMESTICA E FAMILIAR 0,00 9.157,17 11.446,46 0,00 0,00 2.431,09 0,00 1.550,00 24.584,72 2.266,40 4.796,64 0,00 0,00 7.063,04 17.521,68 31/10/2020
475 319200 CHRISTIANE MARIA DE ASSIS RUSSO OFICIAL DO MP BELO HORIZONTE - COMARCA; CAO-ORDEM ECONOMICA E TRIBUTARIA-SECRETARIA 10.736,08 3.220,82 0,00 0,00 0,00 0,00 0,00 2.319,39 16.276,29 1.535,26 2.494,45 0,00 0,00 4.029,71 12.246,58 31/10/2020
476 510300 CHRISTIANE MARY DE CARVALHO FERREIRA ANALISTA DO MP BELO HORIZONTE - COMARCA; DIRETORIA DE SISTEMAS DE INFORMACAO 10.069,62 1.006,96 0,00 0,00 0,00 0,00 0,00 1.550,00 12.626,58 1.218,42 1.789,50 0,00 0,00 3.007,92 9.618,66 31/10/2020
477 424900 CHRISTIANE PEREIRA TURNER DE ARAUJO OFICIAL DO MP BELO HORIZONTE - COMARCA; CAO-PATRIMONIO PUBLICO 7.912,85 1.582,57 0,00 0,00 0,00 0,00 0,00 2.319,39 11.814,81 1.044,50 1.350,37 0,00 0,00 2.394,87 9.419,94 31/10/2020
478 513700 CHRISTIANE VIEIRA SOARES PEDERSOLI ASSESSOR/ANALISTA BELO HORIZONTE - COMARCA; ASSESSORIA JURIDICA DO PROCON-MG 0,00 1.144,65 11.446,46 0,00 0,00 0,00 507,84 9.370,41 22.469,36 1.218,42 2.258,13 0,00 0,00 3.476,55 18.992,81 31/10/2020
479 412300 CHRYSTIAN MACHADO RIBEIRO ANALISTA DO MP VARGINHA - COMARCA; VARGINHA-PJ-04PJ 12.601,30 2.520,26 0,00 0,00 0,00 0,00 0,00 1.550,00 16.671,56 1.663,37 2.831,64 0,00 0,00 4.495,01 12.176,55 31/10/2020
480 513800 CHRYSTIANE DO NASCIMENTO DE MAGALHAES OFICIAL DO MP UBERLÂNDIA - COMARCA; UBERLANDIA-PJ-10PJ 6.741,63 674,16 0,00 0,00 0,00 0,00 0,00 2.319,39 9.735,18 815,74 841,38 0,00 0,00 1.657,12 8.078,06 31/10/2020
481 497900 CIBELE DE FREITAS SANCHES DIAS ANALISTA DO MP SABARÁ - COMARCA; SABARA-PJ-03PJ 9.444,70 944,47 0,00 0,00 0,00 0,00 286,48 1.550,00 12.225,65 1.174,32 1.691,37 0,00 0,00 2.865,69 9.359,96 31/10/2020
482 500900 CIBELLE SILVA PRADO ALVARENGA ANALISTA DO MP ITANHANDU - COMARCA; ITANHANDU-PJ-UNPJ 10.069,62 1.006,96 0,00 0,00 0,00 0,00 0,00 3.088,78 14.165,36 1.218,42 1.841,63 0,00 0,00 3.060,05 11.105,31 31/10/2020
483 296400 CINTIA APARECIDA MOREIRA NAVES E RODRIGUES ANALISTA DO MP CAMPO BELO - COMARCA; CAMPO BELO-PJ-02PJ 16.750,82 5.025,25 0,00 0,00 0,00 0,00 920,81 1.550,00 24.246,88 2.496,66 4.685,70 0,00 0,00 7.182,36 17.064,52 31/10/2020
484 407900 CINTIA NETO COMELLI ANALISTA DO MP BELO HORIZONTE - COMARCA; CENTRAL DE APOIO TECNICO-SETOR CONTABIL 12.601,30 2.520,26 0,00 0,00 0,00 0,00 0,00 2.319,39 17.440,95 1.663,37 2.779,51 0,00 0,00 4.442,88 12.998,07 31/10/2020
485 304700 CINTIA QUEIROZ OFICIAL DO MP BELO HORIZONTE - COMARCA; OUVIDORIA DO MPMG 10.069,62 3.020,89 0,00 0,00 0,00 0,00 0,00 1.550,00 14.640,51 1.439,96 2.334,54 0,00 0,00 3.774,50 10.866,01 31/10/2020
486 286100 CIRO CANGUSSU CORDEIRO OFICIAL DO MP IPATINGA - COMARCA; IPATINGA-PJ-09PJ 7.421,79 2.226,54 0,00 0,00 0,00 0,00 0,00 2.319,39 11.967,72 1.061,32 1.387,79 0,00 0,00 2.449,11 9.518,61 31/10/2020
487 689900 CISSA NOGUEIRA NUNES ASSESSOR PROCURADOR JUSTICA BELO HORIZONTE - COMARCA; GABINETE DE PROCURADOR DE JUSTIÇA - SALA 608 0,00 0,00 7.187,72 0,00 0,00 0,00 1.437,54 2.200,00 10.825,26 713,09 1.663,99 0,00 0,00 2.377,08 8.448,18 31/10/2020
488 681700 CLARA FERREIRA ALKIMIM ASSESSOR PROMOTOR JUSTICA ARAÇUAÍ - COMARCA; ARACUAI-PJ-01PJ 0,00 0,00 7.187,72 0,00 0,00 0,00 0,00 1.550,00 8.737,72 713,09 1.213,66 0,00 0,00 1.926,75 6.810,97 31/10/2020
489 412500 CLARICE GOMES MAROTTA ANALISTA DO MP BELO HORIZONTE - COMARCA; PROMOT ESTADUAL DE DEF PATRI CULT E TUR DE MG 12.601,30 3.780,39 0,00 0,00 5.460,56 0,00 0,00 1.550,00 23.392,25 1.801,99 4.641,71 0,00 0,00 6.443,70 16.948,55 31/10/2020
490 605300 CLARISSA AZEVEDO ROCHA OFICIAL DO MP BELO HORIZONTE - COMARCA; DIRET DE DESENV DE RECURSOS HUMANOS-DDRH 5.387,19 538,72 0,00 0,00 0,00 0,00 0,00 1.550,00 7.475,91 651,85 581,01 0,00 0,00 1.232,86 6.243,05 31/10/2020
491 308100 CLARISSA DUARTE BELLONI DIRETOR/ANALISTA BELO HORIZONTE - COMARCA; DIRETORIA-GERAL 0,00 7.409,35 24.697,83 0,00 0,00 0,00 0,00 3.857,08 35.964,26 2.395,37 7.218,96 0,00 110,13 9.724,46 26.239,80 31/10/2020
492 497100 CLARISSA ROCHA GUIDI ANALISTA DO MP BELO HORIZONTE - COMARCA; BH-02PJ FAMILIA-SECRETARIA 10.397,52 1.039,75 0,00 0,00 0,00 0,00 0,00 2.319,39 13.756,66 1.258,10 1.877,77 0,00 0,00 3.135,87 10.620,79 31/10/2020
493 641800 CLARISSE TAVARES GONCALVES OFICIAL DO MP BELO HORIZONTE - COMARCA; BH-07PJ 01 TRIBUNAL JURI-SECRETARIA 4.817,57 289,05 0,00 0,00 1.702,21 0,00 0,00 1.550,00 8.358,83 561,73 848,59 0,00 0,00 1.410,32 6.948,51 31/10/2020
494 463700 CLAUDIA ADRIANA FERRAO DIAS ANALISTA DO MP SETE LAGOAS - COMARCA; SETE LAGOAS-PJ-06PJ 10.069,62 1.006,96 0,00 0,00 0,00 0,00 0,00 1.550,00 12.626,58 1.218,42 1.841,63 0,00 0,00 3.060,05 9.566,53 31/10/2020
495 415400 CLAUDIA ALMEIDA DE VASCONCELLOS BARROS ASSESSOR/OFICIAL BELO HORIZONTE - COMARCA; DIVISAO DE SERVICOS 0,00 2.079,50 10.397,52 0,00 0,00 0,00 0,00 1.550,00 14.027,02 1.372,47 2.183,70 0,00 0,00 3.556,17 10.470,85 31/10/2020
496 207000 CLAUDIA APARECIDA VILELA MACHADO ANALISTA DO MP BELO HORIZONTE - COMARCA; CENTRAL DE APOIO TECNICO-SETOR CONTABIL 18.820,14 7.528,06 0,00 0,00 0,00 0,00 0,00 1.550,00 27.898,20 2.898,30 5.422,95 0,00 0,00 8.321,25 19.576,95 31/10/2020
497 365700 CLAUDIA BREGUEZ CUNHA ANALISTA DO MP VARGINHA - COMARCA; VARGINHA-PJ-07PJ 14.324,23 2.864,85 0,00 0,00 0,00 0,00 0,00 1.550,00 18.739,08 1.890,80 3.337,67 0,00 0,00 5.228,47 13.510,61 31/10/2020
498 430500 CLAUDIA CECILIA SANTANA VENCESLAU OFICIAL DO MP BELO HORIZONTE - COMARCA; DIR ANALISES TECNOLOGIA INTELIGENCIA 7.912,85 1.582,57 0,00 0,00 0,00 0,00 0,00 1.550,00 11.045,42 1.044,50 1.402,13 0,00 0,00 2.446,63 8.598,79 31/10/2020
499 112400 CLAUDIA CRISTINA FIUZA DE AVELAR AGENTE DO MP BELO HORIZONTE - COMARCA; SERVICO MEDICO-DEPTO PERIC MEDICA SAUDE OCUP 9.752,14 6.826,50 0,00 0,00 0,00 0,00 0,00 1.550,00 18.128,64 1.823,65 3.188,26 0,00 0,00 5.011,91 13.116,73 31/10/2020
500 480400 CLAUDIA GOULART DE SOUZA OFICIAL DO MP PASSOS - COMARCA; PASSOS-PJ-06PJ 7.421,79 1.484,36 0,00 0,00 0,00 0,00 0,00 1.550,00 10.456,15 979,68 1.310,42 0,00 0,00 2.290,10 8.166,05 31/10/2020
501 519800 CLAUDIA HELENA CORREA DE ALMEIDA ANALISTA DO MP BELO HORIZONTE - COMARCA; BH-12PJ JUIZO CRIMINAL-GAB 096PJ 10.069,62 1.006,96 0,00 0,00 0,00 0,00 0,00 1.550,00 12.626,58 1.218,42 1.841,63 0,00 0,00 3.060,05 9.566,53 31/10/2020
502 422100 CLAUDIA IACOMINI CABRAL ANALISTA DO MP BELO HORIZONTE - COMARCA; CENT DE APOIO TEC-SETOR DEF,IDOSO E INFANC 12.601,30 8.820,91 0,00 0,00 0,00 0,00 0,00 1.550,00 22.972,21 2.356,44 4.373,73 0,00 0,00 6.730,17 16.242,04 31/10/2020
503 258200 CLAUDIA LAGE MICHALAROS ANALISTA DO MP BELO HORIZONTE - COMARCA; CENTRAL DE APOIO TECN-SETOR DE MEIO AMBIENTE 17.413,92 12.189,74 0,00 0,00 0,00 3.608,03 0,00 1.550,00 34.761,69 3.256,40 7.219,51 0,00 0,00 10.475,91 24.285,78 31/10/2020
504 284600 CLAUDIA LENI DE FREITAS OFICIAL DO MP CONTAGEM - COMARCA; CONTAGEM-PJ-SECRETARIA 6.123,79 2.449,52 0,00 0,00 0,00 0,00 0,00 1.550,00 10.123,31 943,06 1.228,96 0,00 0,00 2.172,02 7.951,29 31/10/2020
505 433600 CLAUDIA LUIZA SANTIAGO FELICIO ANALISTA DO MP BELO HORIZONTE - COMARCA; CENT DE APOIO TEC-SETOR DEF,IDOSO E INFANC 12.601,30 2.520,26 0,00 0,00 0,00 0,00 0,00 1.550,00 16.671,56 1.663,37 2.727,37 0,00 0,00 4.390,74 12.280,82 31/10/2020
506 317000 CLAUDIA MACHADO ALVES ASSESSOR/OFICIAL BELO HORIZONTE - COMARCA; DIR GOVERNANCA TECNOLOGIA INFORMACAO 0,00 3.119,26 10.397,52 0,00 0,00 0,00 0,00 1.550,00 15.066,78 1.131,54 2.526,13 0,00 35,67 3.693,34 11.373,44 31/10/2020
507 155300 CLAUDIA MACIEL MIRANDA E BELO OFICIAL DO MP CONGONHAS - COMARCA; CONGONHAS-PJ-02PJ 15.272,02 7.636,01 0,00 0,00 0,00 0,00 0,00 1.550,00 24.458,03 2.519,88 4.633,11 0,00 0,00 7.152,99 17.305,04 31/10/2020
508 242200 CLAUDIA MICHELLE DIAS MUNIZ BALEEIRO OFICIAL DO MP MONTE AZUL - COMARCA; MONTE AZUL-PJ-SECRETARIA 12.204,02 4.881,61 0,00 0,00 0,00 0,00 790,83 1.550,00 19.426,46 1.966,41 3.453,77 0,00 0,00 5.420,18 14.006,28 31/10/2020
509 623000 CLAUDIA PATRICIA SILVA RODRIGUES RAPOSEIRAS OFICIAL DO MP PARÁ DE MINAS - COMARCA; PARA DE MINAS-PJ-02PJ 4.817,57 481,76 0,00 0,00 0,00 0,00 0,00 2.319,39 7.618,72 582,93 382,40 0,00 0,00 965,33 6.653,39 31/10/2020
510 418400 CLAUDIA REGINA MARTINS BONIFACIO OFICIAL DO MP ITUIUTABA - COMARCA; ITUIUTABA-PJ-06PJ 7.912,85 1.582,57 0,00 0,00 0,00 0,00 0,00 1.550,00 11.045,42 1.044,50 1.350,37 0,00 0,00 2.394,87 8.650,55 31/10/2020
511 498300 CLAUDIA SOUTO FARIAS BRAUN OFICIAL DO MP TEÓFILO OTONI - COMARCA; TEOFILO OTONI-PJ-SECRETARIA 6.123,79 612,38 0,00 0,00 0,00 0,00 0,00 1.550,00 8.286,17 740,98 675,04 0,00 0,00 1.416,02 6.870,15 31/10/2020
512 206500 CLAUDIA VALERIA FONSECA ANDRADE ANALISTA DO MP BELO HORIZONTE - COMARCA; BH-23PJ INF-FISC MED SOC FEC 18.820,14 9.410,07 0,00 0,00 0,00 3.330,98 0,00 1.550,00 33.111,19 3.105,32 6.893,95 0,00 0,00 9.999,27 23.111,92 31/10/2020
513 277500 CLAUDIO ANTONIO BORGES BRUNSWICK ALVARES OFICIAL DO MP BELO HORIZONTE - COMARCA; SUPERINTENDENCIA DE RECURSOS HUMANOS 10.069,62 3.020,89 0,00 0,00 0,00 0,00 0,00 1.550,00 14.640,51 1.439,96 2.334,54 0,00 0,00 3.774,50 10.866,01 31/10/2020
514 444800 CLAUDIO ARESIO DO CARMO ANALISTA DO MP SETE LAGOAS - COMARCA; SETE LAGOAS-PJ-01PJ 10.069,62 4.027,85 0,00 0,00 0,00 0,00 0,00 1.550,00 15.647,47 1.550,72 2.528,86 0,00 0,00 4.079,58 11.567,89 31/10/2020
515 541600 CLAUDIO DE OLIVEIRA MELO OFICIAL DO MP CANÁPOLIS - COMARCA; CANAPOLIS-PJ-UNPJ 4.376,03 262,56 0,00 0,00 0,00 0,00 0,00 2.319,39 6.957,98 510,24 207,58 0,00 0,00 717,82 6.240,16 31/10/2020
516 545100 CLAUDIO HENRIQUE MACEDO DE SOUZA FRANSOZO ANALISTA DO MP OURO PRETO - COMARCA; OURO PRETO-PJ-03PJ 8.436,53 843,65 0,00 0,00 3.093,39 0,00 0,00 2.319,39 14.692,96 1.020,82 2.252,65 0,00 0,00 3.273,47 11.419,49 31/10/2020
517 353500 CLAUDIO HENRIQUE PEDRO DA ROCHA OFICIAL DO MP BELO HORIZONTE - COMARCA; DIVISAO TRANSPORTES 9.444,70 1.888,94 0,00 0,00 0,00 0,00 0,00 1.550,00 12.883,64 1.246,70 1.800,27 0,00 0,00 3.046,97 9.836,67 31/10/2020
518 265800 CLAUDIO KUPIDLOWSKY FERNANDES OFICIAL DO MP BELO HORIZONTE - COMARCA; SECRETARIA DO PROCON-MG 10.069,62 3.020,89 0,00 0,00 0,00 0,00 0,00 1.550,00 14.640,51 1.439,96 1.439,69 0,00 0,00 2.879,65 11.760,86 31/10/2020
519 193600 CLAUDIO LEITE FONTES OFICIAL DO MP ITUIUTABA - COMARCA; ITUIUTABA-PJ-02PJ 8.858,43 3.543,37 0,00 0,00 0,00 0,00 0,00 1.550,00 13.951,80 1.364,20 1.878,61 0,00 0,00 3.242,81 10.708,99 31/10/2020
520 329400 CLAUDIO MARCIO BERNARDES OFICIAL DO MP ITAÚNA - COMARCA; ITAUNA-PJ-03PJ 10.069,62 7.048,73 0,00 0,00 0,00 0,00 0,00 2.319,39 19.437,74 1.883,02 3.268,22 0,00 0,00 5.151,24 14.286,50 31/10/2020
521 270200 CLAUDIO RABELO ALVES OFICIAL DO MP FORMIGA - COMARCA; FORMIGA-PJ-03PJ 10.397,52 3.119,26 0,00 0,00 0,00 0,00 0,00 1.550,00 15.066,78 1.486,85 2.230,32 0,00 0,00 3.717,17 11.349,61 31/10/2020
522 264700 CLAUDIO ROBERTO KFURI DE ARAUJO ANALISTA DO MP BELO HORIZONTE - COMARCA; CENTRAL DE APOIO TECNICO-SETOR DE INFORMATICA 17.413,92 5.224,18 0,00 0,00 0,00 0,00 0,00 1.550,00 24.188,10 2.490,19 4.567,04 0,00 0,00 7.057,23 17.130,87 31/10/2020
523 188600 CLAUDIO SALES OFICIAL DO MP NEPOMUCENO - COMARCA; NEPOMUCENO-PJ-SECRETARIA 14.324,23 11.459,38 0,00 0,00 0,00 0,00 721,93 1.550,00 28.055,54 2.915,61 5.617,87 0,00 0,00 8.533,48 19.522,06 31/10/2020
524 543300 CLAUDIO SILVA DE CARVALHO ANALISTA DO MP CAMPO BELO - COMARCA; CAMPO BELO-PJ-03PJ 7.663,37 766,34 0,00 0,00 0,00 0,00 177,04 1.550,00 10.156,75 946,74 1.185,01 0,00 0,00 2.131,75 8.025,00 31/10/2020
525 160700 CLAUDIO VICENTE HESS ASSESSOR BELO HORIZONTE - COMARCA; CENTRAL DE APOIO TECNICO-SETOR DE INFORMATICA 0,00 6.717,58 13.435,16 0,00 0,00 0,00 0,00 1.550,00 21.702,74 713,09 4.674,77 0,00 0,00 5.387,86 16.314,88 31/10/2020
526 312900 CLAUDIO VIEIRA FIRPE OFICIAL DO MP BELO HORIZONTE - COMARCA; CENTRO CERIMONIAL 9.752,14 2.925,64 0,00 0,00 0,00 0,00 0,00 1.857,76 14.535,54 1.394,56 2.233,53 0,00 0,00 3.628,09 10.907,45 31/10/2020
527 634100 CLEA CRISTINA GUERRA DE FREITAS COSTA OFICIAL DO MP BELO HORIZONTE - COMARCA; BH-18PJ VIOLENCIA DOMESTICA-SECRETARIA 4.817,57 481,76 0,00 0,00 0,00 0,00 0,00 2.319,39 7.618,72 582,93 382,40 0,00 0,00 965,33 6.653,39 31/10/2020
528 653100 CLEBER SOUZA SCALIONI ASSESSOR BELO HORIZONTE - COMARCA; CENTRAL DE APOIO TECNICO-SETOR CONTABIL 0,00 0,00 8.170,49 0,00 0,00 0,00 0,00 1.550,00 9.720,49 713,09 1.483,92 0,00 0,00 2.197,01 7.523,48 31/10/2020
529 459200 CLEIA ZILLE PEREIRA ANALISTA DO MP BELO HORIZONTE - COMARCA; BH-07PJ 01 TRIBUNAL JURI-SECRETARIA 10.069,62 1.006,96 0,00 0,00 0,00 0,00 0,00 1.550,00 12.626,58 1.218,42 1.841,63 0,00 0,00 3.060,05 9.566,53 31/10/2020
530 481800 CLEIDE CARDOSO DA SILVA ANALISTA DO MP MANHUAÇU - COMARCA; MANHUACU-PJ-04PJ 10.069,62 1.006,96 0,00 0,00 0,00 0,00 0,00 1.550,00 12.626,58 1.218,42 1.737,36 0,00 0,00 2.955,78 9.670,80 31/10/2020
531 347600 CLEIDIMAR DE OLIVEIRA SILVA OFICIAL DO MP PATOS DE MINAS - COMARCA; PATOS DE MINAS-PJ-03PJ 8.579,10 2.573,73 0,00 0,00 0,00 0,00 0,00 1.550,00 12.702,83 1.226,81 1.651,75 0,00 0,00 2.878,56 9.824,27 31/10/2020
532 396500 CLEIDISON BATISTA DE ANDRADE OFICIAL DO MP RESPLENDOR - COMARCA; RESPLENDOR-PJ-UNPJ 6.529,10 1.305,82 0,00 0,00 0,00 0,00 0,00 2.319,39 10.154,31 861,84 943,96 0,00 0,00 1.805,80 8.348,51 31/10/2020
533 535100 CLEISON ALVES DA SILVA ANALISTA DO MP BOA ESPERANÇA - COMARCA; BOA ESPERANCA-PJ-01PJ 8.436,53 843,65 0,00 0,00 0,00 0,00 0,00 1.550,00 10.830,18 1.020,82 1.297,69 0,00 0,00 2.318,51 8.511,67 31/10/2020
534 298100 CLEONICE AUGUSTA BARROS DE OLIVEIRA ANALISTA DO MP JUIZ DE FORA - COMARCA; JUIZ DE FORA-PJ-08PJ 16.750,82 5.025,25 0,00 0,00 0,00 0,00 0,00 1.550,00 23.326,07 2.395,37 4.460,33 0,00 0,00 6.855,70 16.470,37 31/10/2020
535 114300 CLERES PEREIRA DA SILVA JUNIOR ASSESSOR BELO HORIZONTE - COMARCA; GAECO - SECRETARIA 0,00 2.568,16 5.136,32 0,00 0,00 0,00 0,00 1.550,00 9.254,48 713,09 864,16 0,00 0,00 1.577,25 7.677,23 31/10/2020
536 264100 CLETO HENRIQUE ANDRADE SILVA ANALISTA DO MP BELO HORIZONTE - COMARCA; DIRETORIA DE SISTEMAS DE INFORMACAO 17.413,92 5.224,18 0,00 0,00 0,00 0,00 0,00 1.550,00 24.188,10 2.490,19 4.567,04 0,00 0,00 7.057,23 17.130,87 31/10/2020
537 334400 CLEUBA DE OLIVEIRA BARCELOS GONCALVES OFICIAL DO MP DIVINÓPOLIS - COMARCA; COORD REG SAUDE MACRORREGIAO SANITARIA OESTE 10.069,62 3.020,89 0,00 0,00 0,00 0,00 0,00 1.550,00 14.640,51 1.439,96 2.230,27 0,00 0,00 3.670,23 10.970,28 31/10/2020
538 347500 CLEUSA CORDEIRO DA MATA PIMENTA OFICIAL DO MP CAMPO BELO - COMARCA; CAMPO BELO-PJ-02PJ 9.146,93 7.317,55 0,00 0,00 0,00 1.999,69 0,00 1.550,00 20.014,17 1.811,09 3.554,10 0,00 0,00 5.365,19 14.648,98 31/10/2020
539 510200 CLEZIO SALES SILVA OFICIAL DO MP BRASÓPOLIS - COMARCA; BRASOPOLIS-PJ-UNPJ 5.562,64 556,26 0,00 0,00 0,00 0,00 0,00 2.498,67 8.617,57 673,08 628,24 0,00 0,00 1.301,32 7.316,25 31/10/2020
540 323000 CLOTILDE DE PADUA VIEIRA OFICIAL DO MP BELO HORIZONTE - COMARCA; BH-19PJ SAUDE-SECRETARIA 129PJ 7.187,72 2.156,32 0,00 0,00 0,00 0,00 0,00 1.550,00 10.894,04 1.027,84 1.417,60 0,00 0,00 2.445,44 8.448,60 31/10/2020
541 285200 CLOVIS ANDRE LUDTKE OFICIAL DO MP BELO HORIZONTE - COMARCA; DIVISAO DE MANUTENCAO PREDIAL 10.069,62 3.020,89 0,00 0,00 0,00 0,00 0,00 1.550,00 14.640,51 1.439,96 2.334,54 0,00 0,00 3.774,50 10.866,01 31/10/2020
542 381100 CONCEICAO APARECIDA TEIXEIRA ARANTES ANALISTA DO MP BELO HORIZONTE - COMARCA; BH-23PJ INFRACIONAL-ASS JURIDICA 13.435,16 2.687,03 0,00 0,00 0,00 0,00 1.658,40 2.319,39 20.099,98 1.955,86 3.430,30 0,00 0,00 5.386,16 14.713,82 31/10/2020
543 249900 CONSTANTINO CEZAR GOMES MOTA OFICIAL DO MP MONTES CLAROS - COMARCA; COORD REG BACIA RIOS VERDE GRANDE E PARDO 9.146,93 2.744,08 0,00 0,00 0,00 0,00 0,00 2.319,39 14.210,40 1.308,01 1.936,69 0,00 0,00 3.244,70 10.965,70 31/10/2020
544 481000 CRISHMA ANALIA LOMBELLO ANALISTA DO MP JUIZ DE FORA - COMARCA; JUIZ DE FORA-PJ-13PJ 10.069,62 1.006,96 0,00 0,00 0,00 0,00 0,00 1.550,00 12.626,58 1.218,42 1.789,50 0,00 0,00 3.007,92 9.618,66 31/10/2020
545 523900 CRISTHYANE BAZOLI COSTA GUEDES COUTO OFICIAL DO MP BELO HORIZONTE - COMARCA; BH-04PJ JUIZO REG PÚBLICOS-SECRETARIA 6.741,63 674,16 0,00 0,00 0,00 0,00 381,42 1.550,00 9.347,21 857,69 1.039,01 0,00 0,00 1.896,70 7.450,51 31/10/2020
546 187000 CRISTIAN DAYVSON EVANGELISTA OFICIAL DO MP JUIZ DE FORA - COMARCA; JUIZ DE FORA-PJ-13PJ 14.324,23 5.729,69 0,00 0,00 0,00 0,00 0,00 1.550,00 21.603,92 2.205,93 3.986,70 0,00 0,00 6.192,63 15.411,29 31/10/2020
547 682100 CRISTIAN TRISTAO DE ANDRADE ASSESSOR PROMOTOR JUSTICA TRÊS CORACOES - COMARCA; TRES CORACOES-PJ-04PJ 0,00 0,00 7.187,72 0,00 0,00 0,00 0,00 1.550,00 8.737,72 713,09 1.213,66 0,00 0,00 1.926,75 6.810,97 31/10/2020
548 319800 CRISTIANA GONCALVES DOS SANTOS GUSMAO OFICIAL DO MP PARAOPEBA - COMARCA; PARAOPEBA-PJ-UNPJ 9.146,93 2.744,08 0,00 0,00 0,00 0,00 643,86 1.550,00 14.084,87 1.378,84 2.198,55 0,00 0,00 3.577,39 10.507,48 31/10/2020
549 520600 CRISTIANA JANAINA BARBOZA JUVENCIO DOS SANTOS ANALISTA DO MP BELO HORIZONTE - COMARCA; BH-02PJ FAMILIA-SECRETARIA 10.069,62 1.006,96 0,00 0,00 0,00 0,00 0,00 1.550,00 12.626,58 1.218,42 1.841,63 0,00 0,00 3.060,05 9.566,53 31/10/2020
550 195600 CRISTIANA SOARES HALABI OFICIAL DO MP UBERABA - COMARCA; UBERABA-PJ-01PJ 14.324,23 5.729,69 0,00 0,00 0,00 0,00 0,00 1.550,00 21.603,92 2.205,93 4.038,84 0,00 0,00 6.244,77 15.359,15 31/10/2020
551 218900 CRISTIANE ALVES BELLES OFICIAL DO MP JUIZ DE FORA - COMARCA; JUIZ DE FORA-PJ-10PJ 6.123,79 1.837,14 0,00 0,00 0,00 0,00 0,00 2.703,54 10.664,47 875,70 974,80 0,00 0,00 1.850,50 8.813,97 31/10/2020
552 263600 CRISTIANE CARVALHO COUTINHO OFICIAL DO MP BELO HORIZONTE - COMARCA; BH-23PJ INFRACIONAL-SEC EXP 10.069,62 3.020,89 0,00 0,00 0,00 0,00 0,00 1.550,00 14.640,51 1.439,96 2.282,40 0,00 0,00 3.722,36 10.918,15 31/10/2020
553 541000 CRISTIANE COELHO ALVES OFICIAL DO MP ITABIRA - COMARCA; ITABIRA-PJ-03PJ 4.974,42 497,44 0,00 0,00 0,00 0,00 0,00 1.550,00 7.021,86 601,90 417,74 0,00 0,00 1.019,64 6.002,22 31/10/2020
554 441700 CRISTIANE CORRADO DE ANDRADE ANALISTA DO MP BELO HORIZONTE - COMARCA; DIRETORIA DE SISTEMAS DE INFORMACAO 12.601,30 2.520,26 0,00 0,00 5.040,52 0,00 0,00 1.550,00 21.712,08 1.663,37 4.217,79 0,00 0,00 5.881,16 15.830,92 31/10/2020
555 375100 CRISTIANE DAS DORES ERCIO DE LIMA OFICIAL DO MP GOVERNADOR VALADARES - COMARCA; COOR REG INCLUSAO MOBILIZ VALE DO RIO DOCE 8.170,49 1.634,10 0,00 0,00 0,00 0,00 0,00 1.550,00 11.354,59 1.078,50 1.530,31 0,00 0,00 2.608,81 8.745,78 31/10/2020
556 178800 CRISTIANE DE LIMA HOSKEN OFICIAL DO MP BELO HORIZONTE - COMARCA; BH-14PJ DEFESA CONSUMIDOR-GAB 110PJ 14.790,66 5.916,26 0,00 0,00 0,00 0,00 0,00 1.550,00 22.256,92 2.277,76 4.094,38 0,00 0,00 6.372,14 15.884,78 31/10/2020
557 494000 CRISTIANE DE MELO MARQUEZ OLIVEIRA ANALISTA DO MP UBERLÂNDIA - COMARCA; UBERLANDIA-PJ-06PJ 10.736,08 1.073,61 0,00 0,00 0,00 0,00 0,00 3.088,78 14.898,47 1.299,07 2.021,06 0,00 0,00 3.320,13 11.578,34 31/10/2020
558 266100 CRISTIANE DE OLIVEIRA CASTRO OFICIAL DO MP BELO HORIZONTE - COMARCA; BH-14PJ DEFESA CONSUMIDOR-SECRETARIA 12.204,02 3.661,21 0,00 0,00 0,00 0,00 1.445,27 1.550,00 18.860,50 1.745,18 3.306,83 0,00 0,00 5.052,01 13.808,49 31/10/2020
559 329500 CRISTIANE DOS REIS SILVA OFICIAL DO MP ARAXÁ - COMARCA; ARAXA-PJ-04PJ 9.146,93 2.744,08 0,00 0,00 0,00 0,00 0,00 1.550,00 13.441,01 1.308,01 1.936,69 0,00 0,00 3.244,70 10.196,31 31/10/2020
560 301600 CRISTIANE GODINHO PIRES ANALISTA DO MP BETIM - COMARCA; BETIM-PJ-07PJ 16.112,82 4.833,85 0,00 0,00 0,00 0,00 0,00 1.550,00 22.496,67 2.304,13 4.257,34 0,00 0,00 6.561,47 15.935,20 31/10/2020
561 406100 CRISTIANE GONCALVES CHAVES ANALISTA DO MP BELO HORIZONTE - COMARCA; BH-14PJ DEFESA CONSUMIDOR-GAB 112PJ 13.011,52 3.903,46 0,00 0,00 0,00 0,00 0,00 1.550,00 18.464,98 1.860,65 3.270,58 0,00 0,00 5.131,23 13.333,75 31/10/2020
562 487600 CRISTIANE LOPES DE OLIVEIRA OFICIAL DO MP DIVINÓPOLIS - COMARCA; DIVINOPOLIS-PJ-03PJ 6.123,79 612,38 0,00 0,00 0,00 0,00 0,00 1.550,00 8.286,17 740,98 779,32 0,00 0,00 1.520,30 6.765,87 31/10/2020
563 502500 CRISTIANE MACIEL DE OLIVEIRA GOMES ANALISTA DO MP JUIZ DE FORA - COMARCA; JUIZ DE FORA-PJ-05PJ 10.069,62 1.006,96 0,00 0,00 0,00 0,00 0,00 2.319,39 13.395,97 1.218,42 1.841,63 0,00 0,00 3.060,05 10.335,92 31/10/2020
564 285500 CRISTIANE MAGALHAES LOURENCO ANALISTA DO MP BELO HORIZONTE - COMARCA; CENTRAL DE APOIO TECNICO-SETOR CONTABIL 16.750,82 5.025,25 0,00 0,00 0,00 0,00 0,00 1.550,00 23.326,07 2.395,37 4.408,20 0,00 0,00 6.803,57 16.522,50 31/10/2020
565 536500 CRISTIANE MICHELE DE SOUZA ANALISTA DO MP BARÃO DE COCAIS - COMARCA; BARAO DE COCAIS-PJ-UNPJ 8.436,53 843,65 0,00 0,00 0,00 0,00 0,00 2.319,39 11.599,57 1.020,82 1.297,69 0,00 0,00 2.318,51 9.281,06 31/10/2020
566 346600 CRISTIANE NOGUEIRA ANDRADE ANALISTA DO MP BELO HORIZONTE - COMARCA; CENTRAL DE APOIO TECNICO-SETOR CONTABIL 14.790,66 2.958,13 0,00 0,00 0,00 0,00 0,00 1.550,00 19.298,79 1.952,37 3.474,66 0,00 0,00 5.427,03 13.871,76 31/10/2020
567 234000 CRISTIANE OLIVEIRA TOSTES OFICIAL DO MP JUIZ DE FORA - COMARCA; JUIZ DE FORA-PJ-08PJ 13.011,52 3.903,46 0,00 0,00 0,00 0,00 0,00 2.319,39 19.234,37 1.860,65 3.270,58 0,00 0,00 5.131,23 14.103,14 31/10/2020
568 445800 CRISTIANE ORZIL COSTA OFICIAL DO MP SANTA LUZIA - COMARCA; SANTA LUZIA-PJ-05PJ 6.123,79 1.224,76 0,00 0,00 0,00 0,00 0,00 2.319,39 9.667,94 808,34 929,20 0,00 0,00 1.737,54 7.930,40 31/10/2020
569 616100 CRISTIANE PAES RODRIGUES MARCICANO ANALISTA DO MP CATAGUASES - COMARCA; CATAGUASES-PJ-05PJ 7.421,79 742,18 0,00 0,00 0,00 0,00 0,00 3.088,78 11.252,75 898,04 1.128,77 0,00 0,00 2.026,81 9.225,94 31/10/2020
570 612300 CRISTIANE RIBEIRO DOS REIS ARCANJO OFICIAL DO MP BELO HORIZONTE - COMARCA; DIRETORIA DE PAGAMENTO DE PESSOAL-DPAG 5.217,34 521,73 0,00 0,00 0,00 0,00 0,00 0,00 5.739,07 631,30 430,16 0,00 0,00 1.061,46 4.677,61 31/10/2020
571 257700 CRISTIANE RODRIGUES PAES NUNES ANALISTA DO MP BELO HORIZONTE - COMARCA; BH-22PJ PES COM DEF E IDOSOS-ORIENTACAO PSIC 16.750,82 5.025,25 0,00 0,00 0,00 0,00 0,00 2.319,39 24.095,46 2.395,37 4.408,20 0,00 0,00 6.803,57 17.291,89 31/10/2020
572 510800 CRISTIANE SANTOS FERNANDES ORNELES ANALISTA DO MP BELO HORIZONTE - COMARCA; COORD ESTADUAL DAS PJS DE HAB. E URBANISMO 10.069,62 1.006,96 0,00 0,00 0,00 0,00 0,00 1.550,00 12.626,58 1.218,42 1.841,63 0,00 0,00 3.060,05 9.566,53 31/10/2020
573 535701 CRISTIANE SANTOS MIRANDA ANALISTA DO MP BETIM - COMARCA; BETIM-PJ-12PJ 7.187,72 431,26 0,00 0,00 0,00 0,00 0,00 1.550,00 9.168,98 838,09 943,25 0,00 0,00 1.781,34 7.387,64 31/10/2020
574 536200 CRISTIANO DE OLIVEIRA ANALISTA DO MP CONCEIÇÃO DO MATO DENTRO - COMARCA; CONCEICAO DO MATO DENTRO-PJ-UNPJ 9.146,93 914,69 0,00 0,00 0,00 0,00 0,00 2.319,39 12.381,01 1.106,78 1.541,08 0,00 0,00 2.647,86 9.733,15 31/10/2020
575 477400 CRISTIANO SOARES ELEUTERIO ANALISTA DO MP BELO HORIZONTE - COMARCA; BH-17PJ PATRIMONIO PUBLICO-SECRETARIA 10.736,08 1.073,61 0,00 0,00 0,00 0,00 0,00 1.550,00 13.359,69 1.299,07 2.021,06 0,00 0,00 3.320,13 10.039,56 31/10/2020
576 449400 CRISTIANO TEIXEIRA RODRIGUES LANA ANALISTA DO MP BELO HORIZONTE - COMARCA; ASSESS TECNICO-JUR JUNTO AS PROC. DE JUST 10.069,62 2.013,92 0,00 0,00 0,00 0,00 0,00 1.550,00 13.633,54 1.329,19 2.088,09 0,00 0,00 3.417,28 10.216,26 31/10/2020
577 239400 CRISTINA DE FATIMA CRUZ E SILVA OFICIAL DO MP MONTE SANTO DE MINAS - COMARCA; MONTE SANTO DE MINAS-PJ-SECRETARIA 12.204,02 3.661,21 0,00 0,00 0,00 0,00 0,00 1.550,00 17.415,23 1.745,18 3.013,65 0,00 0,00 4.758,83 12.656,40 31/10/2020
578 544000 CRISTINA DE OLIVEIRA TERRA ANALISTA DO MP RIBEIRÃO DAS NEVES - COMARCA; RIBEIRAO DAS NEVES-PJ-09PJ 8.436,53 843,65 0,00 0,00 0,00 0,00 0,00 1.550,00 10.830,18 1.020,82 1.401,96 0,00 0,00 2.422,78 8.407,40 31/10/2020
579 356800 CRISTINA DE PINHO BARROSO OFICIAL DO MP SABINÓPOLIS - COMARCA; SABINOPOLIS-PJ-UNPJ 7.421,79 2.226,54 0,00 0,00 0,00 0,00 0,00 2.319,39 11.967,72 1.061,32 1.387,79 0,00 0,00 2.449,11 9.518,61 31/10/2020
580 649500 CRISTINA DO DIVINO ESPIRITO SANTOS OFICIAL DO MP DIVINÓPOLIS - COMARCA; DIVINOPOLIS-PJ-12PJ 4.665,64 279,94 0,00 0,00 0,00 0,00 0,00 1.550,00 6.495,58 544,01 311,57 0,00 0,00 855,58 5.640,00 31/10/2020
581 348201 CRISTINA MARIA DA SILVA ANALISTA DO MP UBERLÂNDIA - COMARCA; UBERLANDIA-PJ-20PJ 10.069,62 2.013,92 0,00 0,00 4.027,85 0,00 1.006,96 2.319,39 19.437,74 1.329,19 3.195,75 0,00 0,00 4.524,94 14.912,80 31/10/2020
582 434900 CRISTINA MELO DE MADUREIRA ANALISTA DO MP BELO HORIZONTE - COMARCA; BH-07PJ 01 TRIBUNAL JURI-SECRETARIA 12.601,30 2.520,26 0,00 0,00 0,00 0,00 0,00 1.550,00 16.671,56 1.663,37 2.831,64 0,00 0,00 4.495,01 12.176,55 31/10/2020
583 307700 CRISTINA TEIXEIRA MARQUES OFICIAL DO MP BELO HORIZONTE - COMARCA; CENTRAL DE APOIO TECNICO-SETOR CONTABIL 8.579,10 2.573,73 0,00 0,00 0,00 0,00 0,00 1.550,00 12.702,83 1.226,81 1.860,30 0,00 0,00 3.087,11 9.615,72 31/10/2020
584 265300 CRISTOVAO SANCHES DE MEDEIROS ANALISTA DO MP BELO HORIZONTE - COMARCA; DIRETORIA DE CONTABILIDADE 15.272,02 4.581,61 0,00 0,00 0,00 0,00 0,00 1.550,00 21.403,63 2.183,90 3.989,82 0,00 0,00 6.173,72 15.229,91 31/10/2020
585 349800 CROZEIR LUIZ DA SILVA OFICIAL DO MP UNAÍ - COMARCA; UNAI-PJ-SECRETARIA 8.579,10 1.715,82 0,00 0,00 0,00 0,00 0,00 1.550,00 11.844,92 1.132,44 1.598,18 0,00 0,00 2.730,62 9.114,30 31/10/2020
586 490500 CYNTHIA CRISTINA DE SOUZA OLIVEIRA VALENTE ANALISTA DO MP BELO HORIZONTE - COMARCA; BH-09PJ AUDITORIA MILITAR-SECRETARIA 10.069,62 1.006,96 0,00 0,00 0,00 0,00 0,00 1.550,00 12.626,58 1.218,42 1.841,63 0,00 0,00 3.060,05 9.566,53 31/10/2020
587 389800 CYNTHIA GARIGLIO DOS SANTOS OFICIAL DO MP PERDIZES - COMARCA; PERDIZES-PJ-SECRETARIA 6.323,20 1.264,64 0,00 0,00 0,00 0,00 648,23 2.319,39 10.555,46 905,97 990,01 0,00 0,00 1.895,98 8.659,48 31/10/2020
588 335101 CYNTHIA GONTIJO D ASSUNCAO ANALISTA DO MP BELO HORIZONTE - COMARCA; PROC. JUSTICA DIR. DIFUSOS E COLETIVOS-SEC 10.069,62 1.006,96 0,00 0,00 0,00 0,00 0,00 2.319,39 13.395,97 1.218,42 1.841,63 0,00 0,00 3.060,05 10.335,92 31/10/2020
589 154000 CYNTHIA LOPES DOS SANTOS LAGES ASSESSOR BELO HORIZONTE - COMARCA; PROCURADOR-GERAL DE JUSTICA- GABINETE 0,00 9.404,62 13.435,16 0,00 0,00 2.694,94 0,00 1.550,00 27.084,72 2.512,38 5.411,58 0,00 0,00 7.923,96 19.160,76 31/10/2020
590 269700 CYNTIA ROCHA CAVALCANTI OFICIAL DO MP UBERLÂNDIA - COMARCA; UBERLANDIA-PJ-06PJ 12.204,02 3.661,21 0,00 0,00 0,00 0,00 0,00 2.319,39 18.184,62 1.745,18 3.013,65 0,00 0,00 4.758,83 13.425,79 31/10/2020
591 278000 DAIRTON LOPES MARTINS FILHO COORDENADOR/ANALISTA BELO HORIZONTE - COMARCA; DIRETORIA DE SISTEMAS DE INFORMACAO 0,00 4.030,55 13.435,16 0,00 0,00 0,00 0,00 1.550,00 19.015,71 1.439,96 3.537,72 0,00 0,00 4.977,68 14.038,03 31/10/2020
592 392700 DALIANA CHAVES IBRAIM MARINHO OFICIAL DO MP ITAÚNA - COMARCA; ITAUNA-PJ-04PJ 6.961,05 1.392,21 0,00 0,00 0,00 0,00 0,00 1.550,00 9.903,26 918,86 1.175,10 0,00 0,00 2.093,96 7.809,30 31/10/2020
593 558101 DALLEY TASSIA SILVA ANALISTA DO MP MORADA NOVA DE MINAS - COMARCA; MORADA NOVA DE MINAS-PJ-UNPJ 8.170,49 817,05 0,00 0,00 2.995,85 0,00 0,00 3.088,78 15.072,17 988,63 2.049,92 0,00 0,00 3.038,55 12.033,62 31/10/2020
594 476700 DALTON DAUD ANALISTA DO MP ARAGUARI - COMARCA; ARAGUARI-PJ-05PJ 10.069,62 1.006,96 0,00 0,00 0,00 0,00 0,00 1.550,00 12.626,58 1.218,42 1.737,36 0,00 0,00 2.955,78 9.670,80 31/10/2020
595 426900 DANIEL ALVES DA SILVA OFICIAL DO MP BELO HORIZONTE - COMARCA; DIVISAO TRANSPORTES 6.123,79 1.224,76 0,00 0,00 0,00 0,00 0,00 1.550,00 8.898,55 808,34 824,92 0,00 0,00 1.633,26 7.265,29 31/10/2020
596 122000 DANIEL ANTONIO VIEIRA OFICIAL DO MP ENTRE-RIOS DE MINAS - COMARCA; ENTRE RIOS DE MINAS-PJ-SECRETARIA 10.069,62 8.055,69 0,00 0,00 0,00 0,00 0,00 450,00 18.575,31 1.993,78 3.358,26 0,00 0,00 5.352,04 13.223,27 31/10/2020
597 411000 DANIEL FERREIRA DA SILVA ANALISTA DO MP GOVERNADOR VALADARES - COMARCA; GOVERNADOR VALADARES-PJ-15PJ 12.204,02 3.661,21 0,00 0,00 0,00 0,00 906,60 3.088,78 19.860,61 1.844,90 3.027,00 0,00 0,00 4.871,90 14.988,71 31/10/2020
598 309000 DANIEL GOMES DOS SANTOS ANALISTA DO MP POÇOS DE CALDAS - COMARCA; POCOS DE CALDAS-PJ-03PJ 15.499,20 4.649,76 0,00 0,00 0,00 0,00 725,38 1.550,00 22.424,34 2.296,18 4.239,63 0,00 0,00 6.535,81 15.888,53 31/10/2020
599 554500 DANIEL GOMES PEREIRA OFICIAL DO MP NANUQUE - COMARCA; NANUQUE-PJ-02PJ 5.387,19 538,72 0,00 0,00 0,00 0,00 0,00 1.550,00 7.475,91 651,85 581,01 0,00 0,00 1.232,86 6.243,05 31/10/2020
600 453000 DANIEL GONCALVES PEREIRA ANALISTA DO MP UNAÍ - COMARCA; UNAI-PJ-02PJ 10.069,62 2.013,92 0,00 0,00 0,00 0,00 0,00 3.472,93 15.556,47 1.329,19 2.088,09 0,00 0,00 3.417,28 12.139,19 31/10/2020
601 495500 DANIEL GUIMARAES CABRAL OFICIAL DO MP BELO HORIZONTE - COMARCA; BH-17PJ PATRIMONIO PUBLICO-SECRETARIA 6.123,79 612,38 0,00 0,00 0,00 0,00 0,00 1.550,00 8.286,17 740,98 779,32 0,00 0,00 1.520,30 6.765,87 31/10/2020
602 442900 DANIEL GUIMARAES GONCALVES ANALISTA DO MP UBERLÂNDIA - COMARCA; UBERLANDIA-PJ-03PJ 12.204,02 2.440,80 0,00 0,00 0,00 0,00 0,00 1.550,00 16.194,82 1.610,93 2.714,96 0,00 0,00 4.325,89 11.868,93 31/10/2020
603 655900 DANIEL LUIZ DA SILVA ASSESSOR BELO HORIZONTE - COMARCA; DIV FISCAL ADM CONT TERCEIRIZACAO 0,00 0,00 3.076,28 0,00 0,00 0,00 0,00 1.550,00 4.626,28 474,92 200,40 0,00 0,00 675,32 3.950,96 31/10/2020
604 464600 DANIEL PIACENTINI STIVANIN ANALISTA DO MP ANDRADAS - COMARCA; ANDRADAS-PJ-02PJ 10.069,62 1.006,96 0,00 0,00 0,00 0,00 0,00 1.550,00 12.626,58 1.218,42 1.841,63 0,00 0,00 3.060,05 9.566,53 31/10/2020
605 417000 DANIEL QUEIROZ FERREIRA ANALISTA DO MP SÃO SEBASTIÃO DO PARAÍSO - COMARCA; SAO SEBASTIAO DO PARAISO-PJ-05PJ 12.204,02 2.440,80 0,00 0,00 0,00 0,00 0,00 1.550,00 16.194,82 1.610,93 2.714,96 0,00 0,00 4.325,89 11.868,93 31/10/2020
606 396700 DANIEL SILVA CARNEVALLI DIRETOR/ANALISTA BELO HORIZONTE - COMARCA; SUPERINTENDENCIA DE TECNOLOGIA DA INFORMACAO 0,00 3.482,78 17.413,92 0,00 0,00 0,00 0,00 2.319,39 23.216,09 1.717,52 4.390,03 0,00 54,14 6.161,69 17.054,40 31/10/2020
607 489300 DANIEL TABOZA ROCHA ANALISTA DO MP IPATINGA - COMARCA; IPATINGA-PJ-08PJ 10.069,62 1.006,96 0,00 0,00 0,00 0,00 0,00 2.319,39 13.395,97 1.218,42 1.841,63 0,00 0,00 3.060,05 10.335,92 31/10/2020
608 414100 DANIEL TARDELI VALADAO ANALISTA DO MP TRÊS CORACOES - COMARCA; TRES CORACOES-PJ-02PJ 12.204,02 2.440,80 0,00 0,00 0,00 0,00 0,00 3.088,78 17.733,60 1.610,93 2.506,41 0,00 0,00 4.117,34 13.616,26 31/10/2020
609 446601 DANIEL VIEIRA BUENO ANALISTA DO MP SÃO DOMINGOS DO PRATA - COMARCA; SAO DOMINGOS DO PRATA-PJ-UNPJ 8.170,49 490,23 0,00 0,00 0,00 0,00 0,00 2.319,39 10.980,11 952,68 1.198,21 0,00 0,00 2.150,89 8.829,22 31/10/2020
610 253200 DANIELA BATISTA LIMA BARBOSA ASSESSOR BELO HORIZONTE - COMARCA; CENTRAL DE APOIO TECN-SETOR DE MEIO AMBIENTE 0,00 1.540,90 5.136,32 0,00 0,00 0,00 0,00 1.550,00 8.227,22 713,09 1.073,27 0,00 0,00 1.786,36 6.440,86 31/10/2020
611 505800 DANIELA BORGES DE MATTOS RESENDE ANALISTA DO MP JUIZ DE FORA - COMARCA; JUIZ DE FORA-PJ-20PJ 10.069,62 1.006,96 0,00 0,00 0,00 0,00 0,00 2.319,39 13.395,97 1.218,42 1.841,63 0,00 0,00 3.060,05 10.335,92 31/10/2020
612 478000 DANIELA CARVALHO SOARES ANALISTA DO MP SÃO JOÃO DEL REI - COMARCA; SAO JOAO DEL REI-PJ-01PJ 10.069,62 1.006,96 0,00 0,00 0,00 0,00 0,00 1.550,00 12.626,58 1.218,42 1.841,63 0,00 0,00 3.060,05 9.566,53 31/10/2020
613 275900 DANIELA CHAGAS SODRE ANALISTA DO MP BELO HORIZONTE - COMARCA; CENTRAL DE APOIO TECNICO-SETOR CONTABIL 16.750,82 5.025,25 0,00 0,00 0,00 0,00 0,00 1.550,00 23.326,07 2.395,37 4.408,20 0,00 0,00 6.803,57 16.522,50 31/10/2020
614 234301 DANIELA CRUZ SOARES ANALISTA DO MP BELO HORIZONTE - COMARCA; LABORATORIO TECNOLOGIA INTELIGENCIA 17.413,92 5.224,18 0,00 0,00 0,00 0,00 0,00 1.550,00 24.188,10 2.490,19 4.671,32 0,00 0,00 7.161,51 17.026,59 31/10/2020
615 638000 DANIELA DE ALMEIDA BATISTA ANALISTA DO MP ANDRELÂNDIA - COMARCA; ANDRELANDIA-PJ-UNPJ 7.421,79 742,18 0,00 0,00 0,00 0,00 0,00 2.319,39 10.483,36 671,12 1.191,17 0,00 0,00 1.862,29 8.621,07 31/10/2020
616 301000 DANIELA DE ALMEIDA E OLIVEIRA ANALISTA DO MP BELO HORIZONTE - COMARCA; DIRETORIA DE SISTEMAS DE INFORMACAO 16.750,82 5.025,25 0,00 0,00 0,00 0,00 0,00 1.550,00 23.326,07 2.395,37 4.460,33 0,00 0,00 6.855,70 16.470,37 31/10/2020
617 296000 DANIELA DE AZEVEDO SILVA ANALISTA DO MP BRASÓPOLIS - COMARCA; BRASOPOLIS-PJ-UNPJ 16.112,82 4.833,85 0,00 0,00 0,00 0,00 1.092,26 1.550,00 23.588,93 2.424,28 4.524,67 0,00 0,00 6.948,95 16.639,98 31/10/2020
618 453500 DANIELA DE CASTRO SOUSA BARBOSA ANALISTA DO MP BELO HORIZONTE - COMARCA; BH-08PJ JUIZADO ESPECIAL-SECRETARIA 10.069,62 2.013,92 0,00 0,00 0,00 0,00 971,93 1.550,00 14.605,47 1.436,10 2.325,97 0,00 0,00 3.762,07 10.843,40 31/10/2020
619 506000 DANIELA DE OLIVEIRA CAVALIERI ANALISTA DO MP BELO HORIZONTE - COMARCA; BH-14PJ DEFESA CONSUMIDOR-GAB 005PJ 9.444,70 944,47 0,00 0,00 0,00 0,00 0,00 1.550,00 11.939,17 1.142,81 1.673,39 0,00 0,00 2.816,20 9.122,97 31/10/2020
620 546200 DANIELA DE VILHENA LEMES GONCALVES OFICIAL DO MP TRÊS CORACOES - COMARCA; TRES CORACOES-PJ-05PJ 5.217,34 521,73 0,00 0,00 1.913,02 0,00 0,00 1.550,00 9.202,09 631,30 957,08 0,00 0,00 1.588,38 7.613,71 31/10/2020
621 356400 DANIELA LEAL FERRAZ ANALISTA DO MP MONTES CLAROS - COMARCA; COORD REG PJ DEF EDUC DIR CRIANCA ADOL NORTE 14.324,23 2.864,85 0,00 0,00 0,00 0,00 0,00 1.550,00 18.739,08 1.890,80 3.337,67 0,00 0,00 5.228,47 13.510,61 31/10/2020
622 501000 DANIELA LOURENCO SANTOS DA SILVA GUIMARAES ANALISTA DO MP BELO HORIZONTE - COMARCA; BH-12PJ JUIZO CRIMINAL-GAB 095PJ 10.069,62 1.006,96 0,00 0,00 0,00 0,00 0,00 1.780,82 12.857,40 1.218,42 1.789,50 0,00 0,00 3.007,92 9.849,48 31/10/2020
623 195801 DANIELA MARIA DE OLIVEIRA QUEIROZ ANALISTA DO MP ARAGUARI - COMARCA; ARAGUARI-PJ-06PJ 12.601,30 5.040,52 0,00 0,00 0,00 0,00 0,00 1.550,00 19.191,82 1.940,60 3.448,48 0,00 0,00 5.389,08 13.802,74 31/10/2020
624 511400 DANIELA MARIA LARA DE OLIVEIRA ANALISTA DO MP BOA ESPERANÇA - COMARCA; BOA ESPERANCA-PJ-02PJ 10.069,62 1.006,96 0,00 0,00 0,00 0,00 946,24 2.319,39 14.342,21 1.322,51 2.021,09 0,00 0,00 3.343,60 10.998,61 31/10/2020
625 252101 DANIELA PAULA ALVES PENA ANALISTA DO MP CONTAGEM - COMARCA; CONTAGEM-PJ-APO TECNICO 13.011,52 5.204,61 0,00 0,00 0,00 0,00 0,00 1.550,00 19.766,13 2.003,77 3.589,04 0,00 0,00 5.592,81 14.173,32 31/10/2020
626 604700 DANIELA PEIXOTO NOGUEIRA COORDENADOR/OFICIAL BELO HORIZONTE - COMARCA; DIRET DE FORMACAO, APERFEIC. E POS-GRADUACAO 0,00 1.181,92 11.819,15 0,00 0,00 0,00 0,00 2.319,39 15.320,46 651,85 2.520,06 0,00 20,55 3.192,46 12.128,00 31/10/2020
627 429600 DANIELA PIMENTA NUNES MACHADO ANALISTA DO MP BELO HORIZONTE - COMARCA; BH-05PJ-JUÍZO SUCESSÕES-SEC 12.601,30 2.520,26 0,00 0,00 0,00 0,00 0,00 2.319,39 17.440,95 1.663,37 2.779,51 0,00 0,00 4.442,88 12.998,07 31/10/2020
628 662000 DANIELA RIBAS DE AVILA ASSESSOR I BELO HORIZONTE - COMARCA; DIRETORIA DE SEGURANCA 0,00 0,00 8.170,49 0,00 0,00 0,00 0,00 1.550,00 9.720,49 713,09 1.483,92 0,00 0,00 2.197,01 7.523,48 31/10/2020
629 462000 DANIELA SOUSA GOMES DO AMARAL ANALISTA DO MP BETIM - COMARCA; BETIM-PJ-04PJ 10.069,62 1.006,96 0,00 0,00 0,00 0,00 0,00 1.550,00 12.626,58 1.218,42 1.841,63 0,00 0,00 3.060,05 9.566,53 31/10/2020
630 427000 DANIELA TEIXEIRA DINIZ ANDRADE ANALISTA DO MP BELO HORIZONTE - COMARCA; DIRETORIA DE PROJETOS DE EDIFICACOES 10.069,62 2.013,92 0,00 0,00 0,00 0,00 0,00 1.550,00 13.633,54 1.329,19 2.035,95 0,00 0,00 3.365,14 10.268,40 31/10/2020
631 337200 DANIELA TOLEDO SENIUK ANALISTA DO MP BELO HORIZONTE - COMARCA; GABINETE DE PROCURADOR DE JUSTIÇA - SALA 412 13.011,52 3.903,46 0,00 0,00 0,00 0,00 0,00 1.550,00 18.464,98 1.860,65 3.270,58 0,00 0,00 5.131,23 13.333,75 31/10/2020
632 605600 DANIELE ALZIRA SILVA CABRAL MOREIRA OFICIAL DO MP BELO HORIZONTE - COMARCA; BH-10PJ EXECUÇÃO PENAL-SECRETARIA 5.387,19 538,72 0,00 0,00 0,00 0,00 0,00 2.319,39 8.245,30 651,85 581,01 0,00 0,00 1.232,86 7.012,44 31/10/2020
633 195500 DANIELE CHAVES FONSECA OFICIAL DO MP BELO HORIZONTE - COMARCA; ASSESSORIA ESPECIAL DO PGJ 14.324,23 5.729,69 0,00 0,00 0,00 0,00 0,00 1.550,00 21.603,92 2.205,93 4.038,84 0,00 0,00 6.244,77 15.359,15 31/10/2020
634 323400 DANIELE MEGALE SANTINI OFICIAL DO MP BELO HORIZONTE - COMARCA; ASSESS TECNICO-JUR JUNTO AS PROC. DE JUST 9.752,14 2.925,64 0,00 0,00 0,00 0,00 0,00 1.550,00 14.227,78 1.394,56 2.181,39 0,00 0,00 3.575,95 10.651,83 31/10/2020
635 357900 DANIELE REJANE PINTO VERSIEUX OFICIAL DO MP PEDRO LEOPOLDO - COMARCA; PEDRO LEOPOLDO-PJ-03PJ 8.858,43 1.771,69 0,00 0,00 3.543,37 0,00 183,74 1.550,00 15.907,23 1.189,52 2.751,76 0,00 0,00 3.941,28 11.965,95 31/10/2020
636 389500 DANIELE VASCONCELOS AMORIM PRADO OFICIAL DO MP SÃO SEBASTIÃO DO PARAÍSO - COMARCA; SAO SEBASTIAO DO PARAISO-PJ-04PJ 8.579,10 1.715,82 0,00 0,00 0,00 0,00 0,00 1.550,00 11.844,92 1.132,44 1.650,32 0,00 0,00 2.782,76 9.062,16 31/10/2020
637 629700 DANIELLA BASTOS MARTINS BICALHO OFICIAL DO MP GOVERNADOR VALADARES - COMARCA; GOVERNADOR VALADARES-PJ-16PJ 5.217,34 521,73 0,00 0,00 0,00 0,00 0,00 1.550,00 7.289,07 631,30 535,28 0,00 0,00 1.166,58 6.122,49 31/10/2020
638 265000 DANIELLE CASTANHEIRA SCALABRINI OFICIAL DO MP BELO HORIZONTE - COMARCA; JUNTA RECURSAL DO PROCON ESTADUAL 10.069,62 3.020,89 0,00 0,00 0,00 0,00 0,00 1.550,00 14.640,51 1.439,96 2.230,27 0,00 0,00 3.670,23 10.970,28 31/10/2020
639 490100 DANIELLE DE AVILA SILVA LOPES ANALISTA DO MP BELO HORIZONTE - COMARCA; PROC. JUSTICA DIR. DIFUSOS E COLETIVOS-SEC 10.069,62 3.020,89 0,00 0,00 0,00 0,00 0,00 3.088,78 16.179,29 1.439,96 2.334,54 0,00 0,00 3.774,50 12.404,79 31/10/2020
640 549600 DANIELLE GOMES LOPES RODRIGUES OFICIAL DO MP VESPASIANO - COMARCA; VESPASIANO-PJ-02PJ 5.387,19 538,72 0,00 0,00 0,00 0,00 0,00 1.550,00 7.475,91 651,85 581,01 0,00 0,00 1.232,86 6.243,05 31/10/2020
641 613000 DANIELLE SILVA OLIVEIRA FRANKLIN ASSESSOR/OFICIAL BELO HORIZONTE - COMARCA; DIRETORIA DE ORCAMENTO-DIOR/SPC 0,00 1.039,75 10.397,52 0,00 0,00 0,00 0,00 3.088,78 14.526,05 631,30 2.101,35 0,00 0,00 2.732,65 11.793,40 31/10/2020
642 380800 DANILLO RIBEIRO ANTUNES ANALISTA DO MP MONTES CLAROS - COMARCA; MONTES CLAROS-PJ-SECRETARIA 13.011,52 2.602,30 0,00 0,00 0,00 0,00 0,00 1.550,00 17.163,82 1.717,52 2.899,99 0,00 0,00 4.617,51 12.546,31 31/10/2020
643 453700 DANILO BOTELHO DE CARVALHO ASSESSOR/ANALISTA BELO HORIZONTE - COMARCA; SUPERINTENDENCIA DE FINANCAS 0,00 4.939,57 24.697,83 0,00 0,00 0,00 0,00 2.319,39 31.956,79 1.610,93 6.799,86 0,00 135,33 8.546,12 23.410,67 31/10/2020
644 391200 DANILO D'AVILA MENDES ANALISTA DO MP MONTES CLAROS - COMARCA; GAECO REGIONAL DE MONTES CLAROS 13.011,52 2.602,30 0,00 0,00 0,00 0,00 0,00 2.319,39 17.933,21 1.717,52 2.952,12 0,00 0,00 4.669,64 13.263,57 31/10/2020
645 494900 DANILO GAVIAO AVELINO DE MELLO ANALISTA DO MP POUSO ALEGRE - COMARCA; GAECO REGIONAL DE POUSO ALEGRE 10.069,62 1.006,96 0,00 0,00 0,00 0,00 0,00 2.319,39 13.395,97 1.218,42 1.841,63 0,00 0,00 3.060,05 10.335,92 31/10/2020
646 604300 DANILO NASCIMENTO SALGADO ANALISTA DO MP JANAÚBA - COMARCA; JANAUBA-PJ-01PJ 8.436,53 843,65 0,00 0,00 0,00 0,00 275,77 1.550,00 11.105,95 1.051,15 1.469,46 0,00 0,00 2.520,61 8.585,34 31/10/2020
647 298300 DANUZA MONICA DE SOUZA DINIZ ANALISTA DO MP BELO HORIZONTE - COMARCA; ASSESSORIA ESPECIAL DO PGJ 12.601,30 3.780,39 0,00 0,00 0,00 0,00 0,00 1.550,00 17.931,69 1.801,99 3.087,92 0,00 0,00 4.889,91 13.041,78 31/10/2020
648 398700 DARCY LUIZ MILEO GREGATTI OFICIAL DO MP LAMBARI - COMARCA; LAMBARI-PJ-SECRETARIA 8.436,53 1.687,31 0,00 0,00 0,00 0,00 0,00 1.550,00 11.673,84 1.113,62 1.608,45 0,00 0,00 2.722,07 8.951,77 31/10/2020
649 406200 DARIANA AUGUSTA DE TOLEDO PATROCINIO RUIZ COORDENADOR/OFICIAL BELO HORIZONTE - COMARCA; DIRETORIA GESTAO COMPRAS LICITACOES 0,00 2.687,03 13.435,16 0,00 0,00 0,00 0,00 1.550,00 17.672,19 1.132,44 3.227,98 0,00 87,94 4.448,36 13.223,83 31/10/2020
650 586901 DARIO VITORINO DE CARVALHO SILVA ASSESSOR BELO HORIZONTE - COMARCA; DIRETORIA DE SEGURANCA 0,00 0,00 17.413,92 0,00 0,00 0,00 0,00 1.550,00 18.963,92 713,09 3.973,73 0,00 0,00 4.686,82 14.277,10 31/10/2020
651 305000 DARLI LEITE DE OLIVEIRA OFICIAL DO MP ARAÇUAÍ - COMARCA; ARACUAI-PJ-01PJ 6.123,79 1.837,14 0,00 0,00 0,00 0,00 0,00 1.550,00 9.510,93 875,70 922,67 0,00 0,00 1.798,37 7.712,56 31/10/2020
652 122200 DAVID RIBEIRO DOS SANTOS ANALISTA DO MP BORDA DA MATA - COMARCA; BORDA DA MATA-PJ-UNPJ 18.820,14 15.056,11 0,00 0,00 0,00 3.997,19 0,00 1.550,00 39.423,44 3.726,39 8.446,61 0,00 0,00 12.173,00 27.250,44 31/10/2020
653 389400 DAWSON CANEDO MARQUES OFICIAL DO MP TRÊS CORACOES - COMARCA; TRES CORACOES-PJ-01PJ 8.579,10 1.715,82 0,00 0,00 0,00 0,00 0,00 1.550,00 11.844,92 1.132,44 960,62 0,00 0,00 2.093,06 9.751,86 31/10/2020
654 537200 DAYANE TEIXEIRA DE OLIVEIRA CASELLI ANALISTA DO MP BELO HORIZONTE - COMARCA; ASSESS TECNICO-JUR JUNTO AS PROC. DE JUST 7.421,79 445,31 0,00 0,00 0,00 0,00 0,00 1.550,00 9.417,10 865,38 1.056,11 0,00 0,00 1.921,49 7.495,61 31/10/2020
655 256100 DAYSE ROSALY PEREIRA BATISTA OFICIAL DO MP BELO HORIZONTE - COMARCA; BH-08PJ JUIZADO ESPECIAL-SECRETARIA 10.069,62 3.020,89 0,00 0,00 0,00 0,00 0,00 1.550,00 14.640,51 1.439,96 2.334,54 0,00 0,00 3.774,50 10.866,01 31/10/2020
656 311901 DEBORA APARECIDA DA SILVA ASSESSOR BELO HORIZONTE - COMARCA; BH-23PJ CIVEL-SETOR ATEND PUB 0,00 0,00 3.076,28 0,00 0,00 0,00 0,00 1.550,00 4.626,28 474,92 200,40 0,00 0,00 675,32 3.950,96 31/10/2020
657 194301 DEBORA APARECIDA DOS SANTOS ANALISTA DO MP UBERLÂNDIA - COMARCA; UBERLANDIA-PJ-SEC FAMILIA 16.750,82 6.700,33 0,00 0,00 0,00 0,00 0,00 1.550,00 25.001,15 2.579,63 4.818,17 0,00 0,00 7.397,80 17.603,35 31/10/2020
658 518800 DEBORA CARVALHO FIORATTO COORDENADOR/OFICIAL BELO HORIZONTE - COMARCA; DIRETORIA MATERIAIS E SERVICOS 0,00 1.343,52 13.435,16 0,00 0,00 0,00 0,00 2.319,39 17.098,07 815,74 2.969,93 0,00 0,00 3.785,67 13.312,40 31/10/2020
659 444900 DEBORA CLAUDIA PEREIRA ALVES ANALISTA DO MP BELO HORIZONTE - COMARCA; BH-08PJ JUIZADO ESPECIAL-SECRETARIA 10.069,62 2.013,92 0,00 0,00 0,00 0,00 0,00 1.550,00 13.633,54 1.329,19 2.088,09 0,00 0,00 3.417,28 10.216,26 31/10/2020
660 617700 DEBORA COMANDUCI SCHREIDER ANALISTA DO MP BICAS - COMARCA; BICAS-PJ-UNPJ 8.170,49 817,05 0,00 0,00 0,00 0,00 0,00 1.550,00 10.537,54 988,63 1.278,20 0,00 0,00 2.266,83 8.270,71 31/10/2020
661 555700 DEBORA CRISTINA BUITRAGO PEREIRA ANALISTA DO MP BELO HORIZONTE - COMARCA; DIRETORIA GESTAO CONTRATOS CONVENIOS 8.436,53 843,65 0,00 0,00 3.093,39 0,00 0,00 3.088,78 15.462,35 1.020,82 2.252,65 0,00 0,00 3.273,47 12.188,88 31/10/2020
662 513100 DEBORA CRISTINA PEREIRA DE OLIVEIRA ANALISTA DO MP BELO HORIZONTE - COMARCA; BH-23PJ CIVEL-SETOR JURIDICO 10.069,62 1.006,96 0,00 0,00 0,00 0,00 0,00 2.319,39 13.395,97 1.218,42 1.841,63 0,00 0,00 3.060,05 10.335,92 31/10/2020
663 612100 DEBORA DUARTE SILVA DE SOUZA OFICIAL DO MP RIBEIRÃO DAS NEVES - COMARCA; RIBEIRAO DAS NEVES-PJ-06PJ 5.217,34 1.565,20 0,00 0,00 0,00 0,00 0,00 1.550,00 8.332,54 746,08 686,39 0,00 0,00 1.432,47 6.900,07 31/10/2020
664 539700 DEBORA SALES CARVALHO ANALISTA DO MP PATOS DE MINAS - COMARCA; COORD REG PJ DEF EDU DIR CRI ADO AL PAR NOROE 8.436,53 843,65 0,00 0,00 0,00 0,00 0,00 1.550,00 10.830,18 1.020,82 1.401,96 0,00 0,00 2.422,78 8.407,40 31/10/2020
665 424100 DEBORA SANTOS E ALVES ANALISTA DO MP JANUÁRIA - COMARCA; JANUARIA-PJ-01PJ 12.601,30 2.520,26 0,00 0,00 0,00 0,00 0,00 3.088,78 18.210,34 1.663,37 2.831,64 0,00 0,00 4.495,01 13.715,33 31/10/2020
666 426301 DEBORA SCUCATO MACHADO SOARES OFICIAL DO MP ITABIRITO - COMARCA; ITABIRITO-PJ-01PJ 5.387,19 1.077,44 0,00 0,00 0,00 0,00 0,00 2.319,39 8.784,02 711,11 712,86 0,00 0,00 1.423,97 7.360,05 31/10/2020
667 678100 DEBORA SOUZA COSTA ASSESSOR PROMOTOR JUSTICA BOTELHOS - COMARCA; BOTELHOS-PJ-UNPJ 0,00 0,00 7.187,72 0,00 0,00 0,00 0,00 1.550,00 8.737,72 713,09 1.161,52 0,00 0,00 1.874,61 6.863,11 31/10/2020
668 550200 DEBORA TRINDADE LEITE ANALISTA DO MP MANHUAÇU - COMARCA; MANHUACU-PJ-05PJ 8.436,53 843,65 0,00 0,00 0,00 0,00 0,00 1.550,00 10.830,18 1.020,82 1.297,69 0,00 0,00 2.318,51 8.511,67 31/10/2020
669 438000 DEBORAH COSTA LAGE ANALISTA DO MP BELO HORIZONTE - COMARCA; PROC JUST RECURSOS ESP E EXTRAORD CRIMINAIS 12.601,30 2.520,26 0,00 0,00 0,00 0,00 0,00 1.550,00 16.671,56 1.663,37 2.831,64 0,00 0,00 4.495,01 12.176,55 31/10/2020
670 475700 DEBORAH LOBAO LACERDA ASSESSOR/OFICIAL BELO HORIZONTE - COMARCA; BH-17PJ PATRIMONIO PUBLICO-SECRETARIA 0,00 817,05 8.170,49 0,00 0,00 0,00 0,00 1.550,00 10.537,54 740,98 1.397,98 0,00 0,00 2.138,96 8.398,58 31/10/2020
671 678500 DEBORAH PESSOA DA SILVA GUEDES ASSESSOR PROCURADOR JUSTICA BELO HORIZONTE - COMARCA; GABINETE DE PROCURADOR DE JUSTIÇA - SALA 703 0,00 0,00 7.187,72 0,00 0,00 0,00 0,00 1.550,00 8.737,72 713,09 1.213,66 0,00 0,00 1.926,75 6.810,97 31/10/2020
672 613700 DEISER MARIA FERREIRA ROSCOE OFICIAL DO MP BELO HORIZONTE - COMARCA; DIVISAO FROTA 5.217,34 521,73 0,00 0,00 0,00 0,00 0,00 1.550,00 7.289,07 631,30 535,28 0,00 0,00 1.166,58 6.122,49 31/10/2020
673 551900 DEISY ROCHA DA SILVA ANALISTA DO MP CARMO DO PARANAÍBA - COMARCA; CARMO DO PARANAIBA-PJ-01PJ 8.436,53 843,65 0,00 0,00 0,00 0,00 0,00 1.550,00 10.830,18 1.020,82 1.401,96 0,00 0,00 2.422,78 8.407,40 31/10/2020
674 501900 DELI RAQUEL RODRIGUES ANALISTA DO MP ITUIUTABA - COMARCA; ITUIUTABA-PJ-04PJ 10.069,62 1.006,96 0,00 0,00 0,00 0,00 0,00 1.550,00 12.626,58 1.218,42 1.841,63 0,00 0,00 3.060,05 9.566,53 31/10/2020
675 378600 DELIANE LOPES VIEIRA BREIJAO ANALISTA DO MP JUIZ DE FORA - COMARCA; JUIZ DE FORA-PJ-12PJ 13.011,52 2.602,30 0,00 0,00 0,00 0,00 0,00 1.550,00 17.163,82 1.717,52 2.899,99 0,00 0,00 4.617,51 12.546,31 31/10/2020
676 487700 DENIA FERREIRA MAIA SILVA OFICIAL DO MP TRÊS CORACOES - COMARCA; TRES CORACOES-PJ-04PJ 6.123,79 612,38 0,00 0,00 0,00 0,00 0,00 2.319,39 9.055,56 740,98 675,04 0,00 0,00 1.416,02 7.639,54 31/10/2020
677 424800 DENIS APARECIDO CAMPOS DELFINO ANALISTA DO MP LUZ - COMARCA; LUZ-PJ-UNPJ 12.204,02 2.440,80 0,00 0,00 0,00 0,00 0,00 2.319,39 16.964,21 1.610,93 2.506,41 0,00 0,00 4.117,34 12.846,87 31/10/2020
678 381400 DENISE ANGELICA MELLO DE PAULA OFICIAL DO MP BELO HORIZONTE - COMARCA; BH-18PJ DIREITOS HUMANOS-SECRETARIA 8.579,10 1.715,82 0,00 0,00 0,00 0,00 0,00 2.319,39 12.614,31 1.132,44 1.650,32 0,00 0,00 2.782,76 9.831,55 31/10/2020
679 196300 DENISE DE ALMEIDA VILELA FURTADO OFICIAL DO MP BELO HORIZONTE - COMARCA; CENTRAL DE APOIO TECNICO-SECRETARIA 11.819,15 4.727,66 0,00 0,00 0,00 0,00 0,00 2.703,54 19.250,35 1.820,15 3.180,47 0,00 0,00 5.000,62 14.249,73 31/10/2020
680 336900 DENISE DE SOUSA MORAES SILVA OFICIAL DO MP MATEUS LEME - COMARCA; MATEUS LEME-PJ-02PJ 6.123,79 1.224,76 0,00 0,00 0,00 0,00 0,00 1.550,00 8.898,55 808,34 929,20 0,00 0,00 1.737,54 7.161,01 31/10/2020
681 271100 DENISE ELOY PEIXOTO OFICIAL DO MP BELO HORIZONTE - COMARCA; DIRETORIA DE INTELIGENCIA 12.204,02 3.661,21 0,00 0,00 0,00 0,00 0,00 1.550,00 17.415,23 1.745,18 3.013,65 0,00 0,00 4.758,83 12.656,40 31/10/2020
682 385400 DENISE FREITAS DE ASSIS ASSESSOR/OFICIAL CARATINGA - COMARCA; CARATINGA-PJ-SECRETARIA 0,00 2.079,50 10.397,52 0,00 0,00 0,00 0,00 1.550,00 14.027,02 1.044,50 2.274,58 0,00 0,00 3.319,08 10.707,94 31/10/2020
683 437100 DENISE NOGUEIRA MAGRI MENDES ANALISTA DO MP BELO HORIZONTE - COMARCA; LAB TECNOLOGIA CONTRA LAVAGEM DINHEIRO 12.601,30 3.780,39 0,00 0,00 0,00 0,00 0,00 1.550,00 17.931,69 1.801,99 2.983,65 0,00 0,00 4.785,64 13.146,05 31/10/2020
684 524700 DENISE RAMOS GUIMARAES OFICIAL DO MP BELO HORIZONTE - COMARCA; BH-07PJ 01 TRIBUNAL JURI-SECRETARIA 5.930,75 593,08 0,00 0,00 0,00 0,00 0,00 1.550,00 8.073,83 717,62 727,35 0,00 0,00 1.444,97 6.628,86 31/10/2020
685 239100 DENISE RIBEIRO DOS SANTOS CAETANO OFICIAL DO MP ITANHANDU - COMARCA; ITANHANDU-PJ-SECRETARIA 12.204,02 3.661,21 0,00 0,00 0,00 0,00 0,00 1.550,00 17.415,23 1.745,18 2.961,52 0,00 0,00 4.706,70 12.708,53 31/10/2020
686 325500 DENISE ROSA TORRES OFICIAL DO MP BELO HORIZONTE - COMARCA; DIRETORIA DE PESSOAL ADMINISTRATIVO - DPAD 10.069,62 3.020,89 0,00 0,00 0,00 0,00 0,00 1.550,00 14.640,51 1.439,96 2.301,05 0,00 121,79 3.862,80 10.777,71 31/10/2020
687 437200 DENISE VIVIANE DOS SANTOS ANALISTA DO MP BELO HORIZONTE - COMARCA; ASSESS TECNICA DA CORREGEDORIA-GERAL DO MP 10.736,08 2.147,22 0,00 0,00 0,00 0,00 0,00 2.703,54 15.586,84 1.417,16 2.179,55 0,00 0,00 3.596,71 11.990,13 31/10/2020
688 267900 DENISIA DE ALMEIDA SALES OFICIAL DO MP BELO HORIZONTE - COMARCA; BH-18PJ DIREITOS HUMANOS-SECRETARIA 9.146,93 2.744,08 0,00 0,00 0,00 0,00 0,00 1.550,00 13.441,01 1.308,01 1.988,83 0,00 0,00 3.296,84 10.144,17 31/10/2020
689 480300 DESIREE ARANTES FERREIRA GOUVEA OFICIAL DO MP PRATÁPOLIS - COMARCA; PRATAPOLIS-PJ-UNPJ 6.123,79 612,38 0,00 0,00 0,00 0,00 0,00 1.550,00 8.286,17 740,98 779,32 0,00 0,00 1.520,30 6.765,87 31/10/2020
690 355300 DEYSE CRISTINA MORAIS OFICIAL DO MP PASSOS - COMARCA; PASSOS-PJ-02PJ 8.579,10 1.715,82 0,00 0,00 0,00 0,00 0,00 1.550,00 11.844,92 1.132,44 1.650,32 0,00 0,00 2.782,76 9.062,16 31/10/2020
691 523700 DIANA CAMPOS RESENDE OFICIAL DO MP SÃO JOÃO DEL REI - COMARCA; SAO JOAO DEL REI-PJ-04PJ 6.741,63 3.370,82 0,00 0,00 0,00 0,00 0,00 1.550,00 11.662,45 1.112,37 1.553,52 0,00 0,00 2.665,89 8.996,56 31/10/2020
692 241900 DIANA CARDOSO MARTINS OFICIAL DO MP BELO HORIZONTE - COMARCA; CAO-CRIMINAL 8.858,43 2.657,53 0,00 0,00 0,00 0,00 592,32 1.550,00 13.658,28 1.331,91 2.094,14 0,00 0,00 3.426,05 10.232,23 31/10/2020
693 410100 DIANA GORDILHO SILVEIRA SENA ANALISTA DO MP BELO HORIZONTE - COMARCA; ASSESS TECNICO-JUR JUNTO AS PROC. DE JUST 12.601,30 2.520,26 0,00 0,00 0,00 0,00 0,00 1.550,00 16.671,56 1.663,37 2.831,64 0,00 0,00 4.495,01 12.176,55 31/10/2020
694 553000 DIANA MARIA MARQUES ANALISTA DO MP BETIM - COMARCA; BETIM-PJ-13PJ 8.436,53 843,65 0,00 0,00 0,00 0,00 0,00 1.550,00 10.830,18 1.020,82 1.349,83 0,00 0,00 2.370,65 8.459,53 31/10/2020
695 520000 DIARLE TOSTE DOS SANTOS ANALISTA DO MP RIO POMBA - COMARCA; RIO POMBA-PJ-UNPJ 10.069,62 1.006,96 0,00 0,00 0,00 0,00 0,00 1.550,00 12.626,58 1.218,42 1.214,75 0,00 0,00 2.433,17 10.193,41 31/10/2020
696 539800 DIEGO CAMARGOS RODRIGUES OFICIAL DO MP CONTAGEM - COMARCA; CONTAGEM-PJ-19PJ 5.387,19 538,72 0,00 0,00 1.975,30 0,00 543,21 7.475,91 15.920,33 651,85 1.124,21 0,00 0,00 1.776,06 14.144,27 31/10/2020
697 607300 DIEGO CERVEIRA DE SOUZA ANALISTA DO MP PATOS DE MINAS - COMARCA; COORD REG BACIAS PARACATU,URUCUIA E ABAETE 8.436,53 843,65 0,00 0,00 0,00 0,00 0,00 1.550,00 10.830,18 1.020,82 1.401,96 0,00 0,00 2.422,78 8.407,40 31/10/2020
698 669300 DIEGO DA CUNHA SOARES ASSESSOR ADMINISTRATIVO I BELO HORIZONTE - COMARCA; DIRET DE INFORMACAO E EXPEDICAO DE PROCESSOS 0,00 0,00 3.076,28 0,00 0,00 0,00 0,00 1.550,00 4.626,28 474,92 200,40 0,00 0,00 675,32 3.950,96 31/10/2020
699 446900 DIEGO DE FREITAS OFICIAL DO MP UBERABA - COMARCA; UBERABA-PJ-06PJ 7.421,79 1.484,36 0,00 0,00 0,00 0,00 0,00 1.550,00 10.456,15 979,68 1.310,42 0,00 0,00 2.290,10 8.166,05 31/10/2020
700 288800 DILENE NEPOMUCENO ALVES OFICIAL DO MP BELO HORIZONTE - COMARCA; DIRETORIA DE PESSOAL ADMINISTRATIVO - DPAD 10.069,62 3.020,89 0,00 0,00 0,00 0,00 0,00 1.550,00 14.640,51 1.439,96 2.334,54 0,00 0,00 3.774,50 10.866,01 31/10/2020
701 681200 DILLIANY PAULA LOPES SERRANO ASSESSOR PROMOTOR JUSTICA RESPLENDOR - COMARCA; RESPLENDOR-PJ-UNPJ 0,00 0,00 7.187,72 0,00 0,00 0,00 0,00 1.550,00 8.737,72 713,09 1.213,66 0,00 0,00 1.926,75 6.810,97 31/10/2020
702 270101 DILSON DO AMARAL ANALISTA DO MP RIO CASCA - COMARCA; RIO CASCA-PJ-UNPJ 8.436,53 843,65 0,00 0,00 0,00 0,00 0,00 1.550,00 10.830,18 1.020,82 1.401,96 0,00 0,00 2.422,78 8.407,40 31/10/2020
703 466000 DIMITRI GUDE MARCIAL ANALISTA DO MP NANUQUE - COMARCA; NANUQUE-PJ-02PJ 10.069,62 1.006,96 0,00 0,00 0,00 0,00 0,00 2.319,39 13.395,97 1.218,42 1.737,36 0,00 0,00 2.955,78 10.440,19 31/10/2020
704 516300 DINORA APARECIDA MACEDO BRANDAO ANALISTA DO MP BELO HORIZONTE - COMARCA; BH-19PJ SAUDE-SECRETARIA 150PJ 8.579,10 857,91 0,00 0,00 0,00 0,00 0,00 1.550,00 10.987,01 1.038,07 1.440,35 0,00 0,00 2.478,42 8.508,59 31/10/2020
705 511700 DIOGENES HENRIQUES PEREIRA LOURENCO ANALISTA DO MP CONTAGEM - COMARCA; CONTAGEM-PJ-25PJ 10.069,62 1.006,96 0,00 0,00 0,00 0,00 0,00 1.550,00 12.626,58 1.218,42 1.841,63 0,00 0,00 3.060,05 9.566,53 31/10/2020
706 604100 DIOGO CESAR DE OLIVEIRA HONORIO ASSESSOR PIUMHI - COMARCA; PIUMHI-PJ-02PJ 0,00 0,00 5.136,32 0,00 0,00 0,00 0,00 1.550,00 6.686,32 713,09 649,53 0,00 0,00 1.362,62 5.323,70 31/10/2020
707 387800 DIOGO FELIX DA SILVA OFICIAL DO MP CONSELHEIRO PENA - COMARCA; CONSELHEIRO PENA-PJ-01PJ 7.421,79 1.484,36 0,00 0,00 0,00 0,00 0,00 1.550,00 10.456,15 979,68 1.310,42 0,00 0,00 2.290,10 8.166,05 31/10/2020
708 259600 DIOGO MESQUITA MAIA ANALISTA DO MP BELO HORIZONTE - COMARCA; DIRET DE APOIO AS PROCURADORIAS DE JUSTICA 15.272,02 12.217,62 0,00 0,00 0,00 3.250,53 0,00 1.550,00 32.290,17 3.023,86 6.638,15 0,00 0,00 9.662,01 22.628,16 31/10/2020
709 386700 DIRCIMAR FERNANDES CARNEIRO OFICIAL DO MP VISCONDE DO RIO BRANCO - COMARCA; VISCONDE DO RIO BRANCO-PJ-03PJ 8.579,10 6.005,37 0,00 0,00 0,00 0,00 0,00 1.550,00 16.134,47 1.604,29 2.700,19 0,00 0,00 4.304,48 11.829,99 31/10/2020
710 113800 DIRSON APARECIDO GUIMARAES ASSESSOR BELO HORIZONTE - COMARCA; DIVISAO DE MANUTENCAO PREDIAL 0,00 4.622,69 5.136,32 0,00 3.253,00 0,00 536,75 11.309,01 24.857,77 713,09 2.815,34 0,00 0,00 3.528,43 21.329,34 31/10/2020
711 216700 DOMICIO VALDETE PEREIRA OFICIAL DO MP TEÓFILO OTONI - COMARCA; COORD REG PJ DEF EDU DIR CRIAN ADOL JEQUI MUC 14.324,23 5.729,69 0,00 0,00 0,00 0,00 0,00 1.550,00 21.603,92 2.205,93 3.934,56 0,00 0,00 6.140,49 15.463,43 31/10/2020
712 192701 DONIZETTI APARECIDO AMORIM ANALISTA DO MP PRATÁPOLIS - COMARCA; PRATAPOLIS-PJ-UNPJ 9.444,70 3.777,88 0,00 0,00 0,00 0,00 0,00 1.550,00 14.772,58 1.454,48 2.314,73 0,00 0,00 3.769,21 11.003,37 31/10/2020
713 558700 DORCILIA FATIMA DE OLIVEIRA OFICIAL DO MP DIVINÓPOLIS - COMARCA; DIVINOPOLIS-PJ-02PJ 5.387,19 538,72 0,00 0,00 0,00 0,00 0,00 1.550,00 7.475,91 651,85 528,87 0,00 0,00 1.180,72 6.295,19 31/10/2020
714 555300 DOUGLAS CUNHA DE SOUZA ANALISTA DO MP VARZEA DA PALMA - COMARCA; VARZEA DA PALMA-PJ-01PJ 8.436,53 843,65 0,00 0,00 0,00 0,00 0,00 1.550,00 10.830,18 1.020,82 1.401,96 0,00 0,00 2.422,78 8.407,40 31/10/2020
715 265900 DOUGLAS GOMES MOREIRA ANALISTA DO MP BELO HORIZONTE - COMARCA; CENTRAL DE APOIO TECNICO-SETOR DE ENGENHARIA 16.750,82 5.025,25 0,00 0,00 0,00 0,00 0,00 1.550,00 23.326,07 2.395,37 4.460,33 0,00 0,00 6.855,70 16.470,37 31/10/2020
716 241000 DOUGLAS MEIRELLES DE CASTRO OFICIAL DO MP CONCEIÇÃO DO RIO VERDE - COMARCA; CONCEICAO DO RIO VERDE-PJ-UNPJ 12.204,02 4.881,61 0,00 0,00 0,00 0,00 0,00 1.550,00 18.635,63 1.879,42 3.208,07 0,00 0,00 5.087,49 13.548,14 31/10/2020
717 534900 DOUGLAS SILVA E SOUZA ANALISTA DO MP CAMPOS GERAIS - COMARCA; CAMPOS GERAIS-PJ-UNPJ 8.436,53 843,65 0,00 0,00 0,00 0,00 0,00 1.550,00 10.830,18 1.020,82 1.349,83 0,00 0,00 2.370,65 8.459,53 31/10/2020
718 638900 DOUGLAS WALLAS CONCEICAO NEVES OFICIAL DO MP RIBEIRÃO DAS NEVES - COMARCA; RIBEIRAO DAS NEVES-PJ-SEC CIVEL 4.376,03 437,60 0,00 0,00 0,00 0,00 0,00 1.550,00 6.363,63 529,50 327,80 0,00 0,00 857,30 5.506,33 31/10/2020
719 146800 DUCINALVA AMARAL LOPES REIS OFICIAL DO MP PARAISÓPOLIS - COMARCA; PARAISOPOLIS-PJ-UNPJ 16.750,82 11.725,57 0,00 0,00 0,00 3.479,00 0,00 1.550,00 33.505,39 3.132,40 6.857,37 0,00 0,00 9.989,77 23.515,62 31/10/2020
720 122500 DUILIO CARLOS FERREIRA UTSCH OFICIAL DO MP CONCEIÇÃO DO MATO DENTRO - COMARCA; CONCEICAO DO MATO DENTRO-PJ-UNPJ 14.324,23 11.459,38 0,00 0,00 0,00 3.289,22 0,00 1.550,00 30.622,83 2.836,20 6.221,13 0,00 0,00 9.057,33 21.565,50 31/10/2020
721 201800 DULCINEIA ANDRE DE SOUZA OFICIAL DO MP JEQUITINHONHA - COMARCA; JEQUITINHONHA-PJ-SECRETARIA 14.324,23 5.729,69 0,00 0,00 0,00 0,00 0,00 1.550,00 21.603,92 2.205,93 3.830,29 0,00 0,00 6.036,22 15.567,70 31/10/2020
722 395800 DUVIDIER MEDIRCIO JUNIOR ANALISTA DO MP BELO HORIZONTE - COMARCA; CENTRAL DE APOIO TECNICO-SETOR DE ENGENHARIA 13.872,60 2.774,52 0,00 0,00 0,00 0,00 0,00 1.550,00 18.197,12 1.831,18 3.205,02 0,00 0,00 5.036,20 13.160,92 31/10/2020
723 604800 ECIA RAMILIS ISSA DE ABREU ANALISTA DO MP BRASÍLIA DE MINAS - COMARCA; BRASILIA DE MINAS-PJ-01PJ 8.436,53 843,65 0,00 0,00 0,00 0,00 0,00 1.550,00 10.830,18 1.020,82 1.401,96 0,00 0,00 2.422,78 8.407,40 31/10/2020
724 273000 EDELFINA APARECIDA GUIMARAES OFICIAL DO MP CACHOEIRA DE MINAS - COMARCA; CACHOEIRA DE MINAS-PJ-UNPJ 10.069,62 7.048,73 0,00 0,00 5.706,12 0,00 0,00 1.550,00 24.374,47 1.883,02 4.837,40 0,00 0,00 6.720,42 17.654,05 31/10/2020
725 523300 EDER DOS SANTOS PATRICIO ANALISTA DO MP NOVA SERRANA - COMARCA; NOVA SERRANA-PJ-03PJ 10.069,62 1.006,96 0,00 0,00 0,00 0,00 0,00 2.319,39 13.395,97 1.218,42 1.841,63 0,00 0,00 3.060,05 10.335,92 31/10/2020
726 356700 EDER JOSE PACHECO OFICIAL DO MP CAMPO BELO - COMARCA; CAMPO BELO-PJ-SECRETARIA 8.858,43 1.771,69 0,00 0,00 0,00 0,00 0,00 2.708,99 13.339,11 1.169,31 1.628,09 0,00 0,00 2.797,40 10.541,71 31/10/2020
727 507900 EDERSON SILVA LOPES OFICIAL DO MP BELO HORIZONTE - COMARCA; LABORATORIO TECNOLOGIA INTELIGENCIA 6.123,79 612,38 0,00 0,00 0,00 0,00 0,00 1.550,00 8.286,17 740,98 675,04 0,00 0,00 1.416,02 6.870,15 31/10/2020
728 296200 EDGARD GOULART MATOSINHO DE LAET JR ANALISTA DO MP GOVERNADOR VALADARES - COMARCA; GAECO REGIONAL DE GOVERNADOR VALADARES 15.272,02 4.581,61 0,00 0,00 0,00 0,00 0,00 1.550,00 21.403,63 2.183,90 3.885,54 0,00 0,00 6.069,44 15.334,19 31/10/2020
729 295000 EDILA MARIA DA SILVEIRA OFICIAL DO MP FORMIGA - COMARCA; FORMIGA-PJ-01PJ 8.579,10 2.573,73 0,00 0,00 0,00 0,00 0,00 1.550,00 12.702,83 1.226,81 1.860,30 0,00 0,00 3.087,11 9.615,72 31/10/2020
730 332300 EDILA MARILAC MIRANDA PRADO OFICIAL DO MP DIAMANTINA - COMARCA; COORD REG BACIAS RIOS JEQUITINHONHA E MUCURI 9.752,14 4.876,07 0,00 0,00 0,00 0,00 0,00 3.088,78 17.716,99 1.609,10 2.606,62 0,00 0,00 4.215,72 13.501,27 31/10/2020
731 376600 EDILANE CONSOLACAO ROSA NAZARETH ANALISTA DO MP BETIM - COMARCA; BETIM-PJ-10PJ 13.011,52 2.602,30 0,00 0,00 5.204,61 0,00 0,00 1.550,00 22.368,43 1.717,52 4.383,39 0,00 0,00 6.100,91 16.267,52 31/10/2020
732 301500 EDILENE APARECIDA DE CARVALHO ANALISTA DO MP BELO HORIZONTE - COMARCA; BH-02PJ FAMILIA-SECRETARIA 15.272,02 4.581,61 0,00 0,00 0,00 0,00 0,00 1.550,00 21.403,63 2.183,90 3.937,68 0,00 0,00 6.121,58 15.282,05 31/10/2020
733 309800 EDILZA DOS REIS OFICIAL DO MP UBERLÂNDIA - COMARCA; UBERLANDIA-PJ-03PJ 10.069,62 3.020,89 0,00 0,00 0,00 0,00 0,00 1.550,00 14.640,51 1.439,96 2.334,54 0,00 0,00 3.774,50 10.866,01 31/10/2020
734 200500 EDINEIA MARIA DE OLIVEIRA ANTUNES OFICIAL DO MP MONTES CLAROS - COMARCA; MONTES CLAROS-PJ-10PJ 14.324,23 5.729,69 0,00 0,00 0,00 0,00 0,00 1.550,00 21.603,92 2.205,93 4.038,84 0,00 0,00 6.244,77 15.359,15 31/10/2020
735 427700 EDISANGELA SOARES LOPES OFICIAL DO MP PIRAPORA - COMARCA; PIRAPORA-PJ-02PJ 6.123,79 1.224,76 0,00 0,00 0,00 0,00 0,00 1.550,00 8.898,55 808,34 929,20 0,00 0,00 1.737,54 7.161,01 31/10/2020
736 555400 EDISON MONTEIRO SAMPAIO NETO ANALISTA DO MP BELO HORIZONTE - COMARCA; BH-12PJ JUIZO CRIMINAL-GAB 094PJ 8.436,53 843,65 0,00 0,00 0,00 0,00 0,00 1.550,00 10.830,18 1.020,82 1.401,96 0,00 0,00 2.422,78 8.407,40 31/10/2020
737 517700 EDMILSON TADEU FERNANDES OFICIAL DO MP POUSO ALEGRE - COMARCA; GAECO REGIONAL DE POUSO ALEGRE 6.529,10 652,91 0,00 0,00 0,00 0,00 0,00 1.550,00 8.732,01 790,02 888,44 0,00 0,00 1.678,46 7.053,55 31/10/2020
738 358400 EDNA APARECIDA SILVA FERREIRA OFICIAL DO MP CORONEL FABRICIANO - COMARCA; CORONEL FABRICIANO-PJ-02PJ 8.858,43 1.771,69 0,00 0,00 0,00 0,00 0,00 1.550,00 12.180,12 1.169,31 1.628,09 0,00 0,00 2.797,40 9.382,72 31/10/2020
739 331800 EDNA MARCIA CAMILO DA SILVA OFICIAL DO MP SETE LAGOAS - COMARCA; SETE LAGOAS-PJ-SEC CRIMINAIS 10.069,62 3.020,89 0,00 0,00 0,00 0,00 0,00 1.550,00 14.640,51 1.439,96 2.282,40 0,00 0,00 3.722,36 10.918,15 31/10/2020
740 327900 EDRIEL SANTANA PEREIRA OFICIAL DO MP TUPACIGUARA - COMARCA; TUPACIGUARA-PJ-UNPJ 10.069,62 3.020,89 0,00 0,00 0,00 0,00 0,00 2.409,39 15.499,90 1.439,96 2.334,54 0,00 0,00 3.774,50 11.725,40 31/10/2020
741 482400 EDSON GARCIA OFICIAL DO MP MACHADO - COMARCA; MACHADO-PJ-02PJ 5.562,64 556,26 0,00 0,00 0,00 0,00 0,00 2.319,39 8.438,29 673,08 523,97 0,00 0,00 1.197,05 7.241,24 31/10/2020
742 225601 EDSON LABRE FILHO ANALISTA DO MP VARGINHA - COMARCA; VARGINHA-PJ-01PJ 15.272,02 4.581,61 0,00 0,00 0,00 0,00 0,00 1.550,00 21.403,63 2.183,90 3.937,68 0,00 0,00 6.121,58 15.282,05 31/10/2020
743 602700 EDSON NOGUEIRA BUENO OFICIAL DO MP PITANGUI - COMARCA; PITANGUI-PJ-02PJ 4.974,42 497,44 0,00 0,00 0,00 0,00 0,00 1.550,00 7.021,86 601,90 469,88 0,00 0,00 1.071,78 5.950,08 31/10/2020
744 414400 EDUARDO ABRANTES CAMPOS ANALISTA DO MP SÃO JOÃO DEL REI - COMARCA; SAO JOAO DEL REI-PJ-02PJ 12.601,30 2.520,26 0,00 0,00 0,00 0,00 872,77 1.550,00 17.544,33 1.759,38 3.045,25 0,00 0,00 4.804,63 12.739,70 31/10/2020
745 476800 EDUARDO ALVES DE MOURA ANALISTA DO MP UBERLÂNDIA - COMARCA; UBERLANDIA-PJ-02PJ 10.069,62 1.006,96 0,00 0,00 0,00 0,00 0,00 2.319,39 13.395,97 1.218,42 1.685,22 0,00 0,00 2.903,64 10.492,33 31/10/2020
746 390800 EDUARDO AMORIM PETTERSEN OFICIAL DO MP CARANGOLA - COMARCA; CARANGOLA-PJ-03PJ 7.912,85 1.582,57 0,00 0,00 0,00 0,00 0,00 2.319,39 11.814,81 1.044,50 1.454,64 0,00 0,00 2.499,14 9.315,67 31/10/2020
747 461600 EDUARDO ANTONIO DE ASSIS FARIA ASSESSOR BELO HORIZONTE - COMARCA; ASSESS EXECUTIVA DO CONSELHO SUPERIOR DO MP 0,00 0,00 8.170,49 0,00 0,00 0,00 0,00 2.319,39 10.489,88 713,09 1.379,65 0,00 0,00 2.092,74 8.397,14 31/10/2020
748 248800 EDUARDO DE CASTRO AMORIM ANALISTA DO MP BELO HORIZONTE - COMARCA; SUPERINTENDENCIA DE RECURSOS HUMANOS 18.103,37 5.431,01 0,00 0,00 0,00 0,00 0,00 1.550,00 25.084,38 2.588,78 4.890,68 0,00 0,00 7.479,46 17.604,92 31/10/2020
749 209100 EDUARDO DE SOUZA MAIA ANALISTA DO MP BELO HORIZONTE - COMARCA; ASSESS TECNICO-JUR JUNTO AS PROC. DE JUST 18.820,14 7.528,06 0,00 0,00 0,00 0,00 0,00 1.550,00 27.898,20 2.898,30 5.422,95 0,00 0,00 8.321,25 19.576,95 31/10/2020
750 633900 EDUARDO GONCALVES PIRES OFICIAL DO MP BELO HORIZONTE - COMARCA; BH-19PJ SAUDE-SECRETARIA 150PJ 5.217,34 1.565,20 0,00 0,00 0,00 0,00 0,00 1.550,00 8.332,54 746,08 790,67 0,00 0,00 1.536,75 6.795,79 31/10/2020
751 350500 EDUARDO GONCALVES RIBEIRO OFICIAL DO MP VESPASIANO - COMARCA; VESPASIANO-PJ-04PJ 8.170,49 1.634,10 0,00 0,00 0,00 0,00 0,00 1.550,00 11.354,59 1.078,50 1.530,31 0,00 0,00 2.608,81 8.745,78 31/10/2020
752 115800 EDUARDO HENRIQUE DE CAMPOS MAIA OFICIAL DO MP BELO HORIZONTE - COMARCA; DIV FISCAL ADM CONT TERCEIRIZACAO 15.272,02 7.636,01 0,00 0,00 0,00 0,00 0,00 1.550,00 24.458,03 2.519,88 4.580,97 0,00 0,00 7.100,85 17.357,18 31/10/2020
753 392600 EDUARDO HENRIQUE DOS SANTOS COSTA ELIAZAR OFICIAL DO MP MATOZINHOS - COMARCA; MATOZINHOS-PJ-01PJ 7.663,37 1.532,67 0,00 0,00 0,00 0,00 0,00 2.319,39 11.515,43 1.011,56 1.224,96 0,00 0,00 2.236,52 9.278,91 31/10/2020
754 407500 EDUARDO MASCARENHAS CURI AZEVEDO COORDENADOR/ANALISTA BELO HORIZONTE - COMARCA; CENTRO JORNALISMO 0,00 2.687,03 13.435,16 0,00 5.374,06 0,00 0,00 2.319,39 23.815,64 1.329,19 4.676,58 0,00 0,00 6.005,77 17.809,87 31/10/2020
755 601300 EDUARDO TRAD VIEIRA OFICIAL DO MP IBIRITÉ - COMARCA; IBIRITE-PJ-05PJ 4.974,42 497,44 0,00 0,00 0,00 0,00 0,00 1.550,00 7.021,86 601,90 469,88 0,00 0,00 1.071,78 5.950,08 31/10/2020
756 257600 EDUARDO VALADARES CABRAL ANALISTA DO MP BELO HORIZONTE - COMARCA; COORD DE INCLUSAO E MOBILIZACAO SOCIAIS 14.324,23 4.297,27 0,00 0,00 0,00 0,00 0,00 1.550,00 20.171,50 2.048,37 3.688,25 0,00 0,00 5.736,62 14.434,88 31/10/2020
757 545700 EDVAIR FERREIRA DE CARVALHO OFICIAL DO MP ARAGUARI - COMARCA; ARAGUARI-PJ-06PJ 4.974,42 497,44 0,00 0,00 0,00 0,00 0,00 1.550,00 7.021,86 601,90 374,30 0,00 0,00 976,20 6.045,66 31/10/2020
758 401700 EDWANIA AMORIM DO CARMO OFICIAL DO MP RIBEIRÃO DAS NEVES - COMARCA; RIBEIRAO DAS NEVES-PJ-03PJ 8.579,10 1.715,82 0,00 0,00 0,00 0,00 0,00 1.550,00 11.844,92 1.132,44 1.650,32 0,00 0,00 2.782,76 9.062,16 31/10/2020
759 303600 EFIGENIO SARAIVA LOPES ANALISTA DO MP BELO HORIZONTE - COMARCA; DIRETORIA DE PAGAMENTO DE PESSOAL-DPAG 16.750,82 5.025,25 0,00 0,00 0,00 0,00 0,00 1.550,00 23.326,07 2.395,37 4.356,06 0,00 0,00 6.751,43 16.574,64 31/10/2020
760 286000 ELAINE APARECIDA SILVA BERZOINI OFICIAL DO MP JUIZ DE FORA - COMARCA; JUIZ DE FORA-PJ-14PJ 10.069,62 3.020,89 0,00 0,00 0,00 0,00 0,00 1.550,00 14.640,51 1.439,96 2.334,54 0,00 0,00 3.774,50 10.866,01 31/10/2020
761 509000 ELAINE CANDIDA PONTES OFICIAL DO MP BELO HORIZONTE - COMARCA; BH-02PJ FAMILIA-SECRETARIA 7.187,72 718,77 0,00 0,00 0,00 0,00 0,00 1.550,00 9.456,49 869,71 1.065,75 0,00 0,00 1.935,46 7.521,03 31/10/2020
762 283601 ELAINE CRISTINA MEQUELINO DUARTE ANALISTA DO MP ALFENAS - COMARCA; ALFENAS-PJ-02PJ 13.011,52 2.602,30 0,00 0,00 0,00 0,00 0,00 1.550,00 17.163,82 1.717,52 2.847,85 0,00 0,00 4.565,37 12.598,45 31/10/2020
763 535500 ELAINE DE OLIVEIRA CAMPOS REIS OFICIAL DO MP RIBEIRÃO DAS NEVES - COMARCA; SEC PJ EXECUCAO PENAL RIBEIRAO NEVES 5.387,19 538,72 0,00 0,00 0,00 0,00 0,00 1.550,00 7.475,91 651,85 581,01 0,00 0,00 1.232,86 6.243,05 31/10/2020
764 455700 ELAINE DE OLIVEIRA CASTRO ANALISTA DO MP POMPÉU - COMARCA; POMPEU-PJ-UNPJ 10.069,62 1.006,96 0,00 0,00 0,00 0,00 0,00 2.319,39 13.395,97 1.218,42 1.789,50 0,00 0,00 3.007,92 10.388,05 31/10/2020
765 367200 ELAINE MUNIZ BARBOSA ANALISTA DO MP BELO HORIZONTE - COMARCA; DIRETORIA DE SISTEMAS DE INFORMACAO 14.324,23 2.864,85 0,00 0,00 0,00 0,00 0,00 2.319,39 19.508,47 1.890,80 3.285,53 0,00 0,00 5.176,33 14.332,14 31/10/2020
766 679200 ELAINE RIBEIRO CHAVES ASSESSOR PROCURADOR JUSTICA BELO HORIZONTE - COMARCA; GABINETE DE PROCURADOR DE JUSTIÇA - SALA 614 0,00 0,00 7.187,72 0,00 0,00 0,00 0,00 1.550,00 8.737,72 713,09 1.213,66 0,00 0,00 1.926,75 6.810,97 31/10/2020
767 176900 ELAINE RIBEIRO TAVEIRA OFICIAL DO MP BELO HORIZONTE - COMARCA; DIRETORIA DE PESSOAL ADMINISTRATIVO - DPAD 11.819,15 4.727,66 0,00 0,00 0,00 0,00 0,00 1.550,00 18.096,81 1.820,15 3.180,47 0,00 0,00 5.000,62 13.096,19 31/10/2020
768 496200 ELAINE SABRINA MOREIRA SCHUWARTEN ANALISTA DO MP CORONEL FABRICIANO - COMARCA; CORONEL FABRICIANO-PJ-04PJ 10.069,62 1.006,96 0,00 0,00 0,00 0,00 0,00 1.550,00 12.626,58 1.218,42 1.841,63 0,00 0,00 3.060,05 9.566,53 31/10/2020
769 489200 ELAINE VICENTINO GARCIA ANALISTA DO MP BELO HORIZONTE - COMARCA; CENTRAL DE APOIO TECNICO-SETOR CONTABIL 10.069,62 3.020,89 0,00 0,00 0,00 0,00 0,00 1.550,00 14.640,51 1.439,96 2.230,27 0,00 0,00 3.670,23 10.970,28 31/10/2020
770 244500 ELCI ALVES DE SOUZA ASSESSOR BELO HORIZONTE - COMARCA; CAO-CONFLITOS AGRARIOS-SECRETARIA 0,00 1.540,90 5.136,32 0,00 0,00 0,00 0,00 1.550,00 8.227,22 713,09 1.021,14 0,00 0,00 1.734,23 6.492,99 31/10/2020
771 472500 ELCI VAZ DE OLIVEIRA FILHO ANALISTA DO MP PIUMHI - COMARCA; PIUMHI-PJ-02PJ 10.069,62 5.034,81 0,00 0,00 0,00 0,00 0,00 1.550,00 16.654,43 1.661,49 2.827,45 0,00 0,00 4.488,94 12.165,49 31/10/2020
772 385200 ELCI VIANA REIS OFICIAL DO MP RIO PARDO DE MINAS - COMARCA; RIO PARDO DE MINAS-PJ-SECRETARIA 8.579,10 3.431,64 0,00 0,00 0,00 0,00 0,00 1.550,00 13.560,74 1.321,18 2.070,27 0,00 0,00 3.391,45 10.169,29 31/10/2020
773 289801 ELCIO JOSE DOS SANTOS ASSESSOR/ANALISTA BELO HORIZONTE - COMARCA; DIVISAO DE SERVICOS 0,00 2.520,26 12.601,30 0,00 0,00 0,00 0,00 1.550,00 16.671,56 1.329,19 2.923,54 0,00 0,00 4.252,73 12.418,83 31/10/2020
774 319600 ELEN TULER DE ALBERGARIA ANALISTA DO MP BELO HORIZONTE - COMARCA; BH-19PJ SAUDE-SECRETARIA 130PJ 13.435,16 5.374,06 0,00 0,00 0,00 0,00 0,00 1.550,00 20.359,22 2.069,01 3.734,20 0,00 0,00 5.803,21 14.556,01 31/10/2020
775 151000 ELI LOURENCO RIBEIRO AGENTE DO MP BELO HORIZONTE - COMARCA; BH-19PJ SAUDE-SECRETARIA 130PJ 10.736,08 5.368,04 0,00 0,00 0,00 0,00 0,00 1.550,00 17.654,12 1.771,45 2.370,82 0,00 0,00 4.142,27 13.511,85 31/10/2020
776 205500 ELIANA ALVES DE SOUSA OFICIAL DO MP GOVERNADOR VALADARES - COMARCA; GOVERNADOR VALADARES-PJ-07PJ 9.146,93 3.658,77 0,00 0,00 0,00 0,00 0,00 1.550,00 14.355,70 1.408,63 2.264,83 0,00 0,00 3.673,46 10.682,24 31/10/2020
777 628800 ELIANA APARECIDA PEREIRA ANALISTA DO MP CAMBUÍ - COMARCA; CAMBUI-PJ-02PJ 7.421,79 742,18 0,00 0,00 0,00 0,00 0,00 1.550,00 9.713,97 898,04 1.076,63 0,00 0,00 1.974,67 7.739,30 31/10/2020
778 301700 ELIANA DA SILVEIRA ANALISTA DO MP BELO HORIZONTE - COMARCA; BH-13ª PJ JUÍZO DE TÓXICOS-SECRETARIA 14.790,66 4.437,20 0,00 0,00 0,00 0,00 0,00 1.550,00 20.777,86 2.115,06 3.836,66 0,00 0,00 5.951,72 14.826,14 31/10/2020
779 251500 ELIANA DE LIMA MILAGRES FONSECA ANALISTA DO MP CONTAGEM - COMARCA; CONTAGEM-PJ-16PJ 14.790,66 4.437,20 0,00 0,00 0,00 0,00 0,00 1.550,00 20.777,86 2.115,06 3.732,39 0,00 0,00 5.847,45 14.930,41 31/10/2020
780 503900 ELIANA DIAS DUTRA FERREIRA OFICIAL DO MP GOVERNADOR VALADARES - COMARCA; GOVERNADOR VALADARES-PJ-10PJ 7.421,79 742,18 0,00 0,00 0,00 0,00 0,00 0,00 8.163,97 898,04 1.024,50 0,00 0,00 1.922,54 6.241,43 31/10/2020
781 413900 ELIANA PINTO DE OLIVEIRA NEVES ANALISTA DO MP CAMPO BELO - COMARCA; CAMPO BELO-PJ-04PJ 12.204,02 2.440,80 0,00 0,00 0,00 0,00 0,00 2.319,39 16.964,21 1.610,93 2.714,96 0,00 0,00 4.325,89 12.638,32 31/10/2020
782 228200 ELIANA RODRIGUES DA CUNHA PINHEIRO OFICIAL DO MP BELO HORIZONTE - COMARCA; DIRETORIA DE PROJETOS DE EDIFICACOES 12.204,02 3.661,21 0,00 0,00 0,00 2.023,95 0,00 1.550,00 19.439,18 1.745,18 3.493,58 0,00 0,00 5.238,76 14.200,42 31/10/2020
783 386600 ELIANA SABINO CHAVES PESSOA ANALISTA DO MP CARATINGA - COMARCA; CARATINGA-PJ-06PJ 12.601,30 8.820,91 0,00 0,00 0,00 0,00 0,00 1.550,00 22.972,21 2.356,44 4.321,59 0,00 0,00 6.678,03 16.294,18 31/10/2020
784 677500 ELIANA SILVA ANDRADE ASSESSOR PROMOTOR JUSTICA TRÊS CORACOES - COMARCA; TRES CORACOES-PJ-06PJ 0,00 0,00 7.187,72 0,00 0,00 0,00 0,00 1.550,00 8.737,72 713,09 1.213,66 0,00 0,00 1.926,75 6.810,97 31/10/2020
785 297400 ELIANE AUGUSTA RIBEIRO COSTA ANALISTA DO MP CONSELHEIRO LAFAIETE - COMARCA; CONSELHEIRO LAFAIETE-PJ-05PJ 16.750,82 5.025,25 0,00 0,00 0,00 0,00 0,00 1.550,00 23.326,07 2.395,37 4.356,06 0,00 0,00 6.751,43 16.574,64 31/10/2020
786 510600 ELIANE CAROLINA MAIA ANALISTA DO MP IGARAPÉ - COMARCA; IGARAPE-PJ-03PJ 10.069,62 1.006,96 0,00 0,00 0,00 0,00 0,00 1.550,00 12.626,58 1.218,42 1.685,22 0,00 0,00 2.903,64 9.722,94 31/10/2020
787 269300 ELIANE EDLAMAR ROCHA OFICIAL DO MP PEDRO LEOPOLDO - COMARCA; PEDRO LEOPOLDO-PJ-02PJ 9.444,70 2.833,41 0,00 0,00 0,00 0,00 0,00 1.550,00 13.828,11 1.350,59 2.083,57 0,00 0,00 3.434,16 10.393,95 31/10/2020
788 262600 ELIANE FERREIRA SOARES ASSESSOR BELO HORIZONTE - COMARCA; BH-18PJ DIREITOS HUMANOS-SECRETARIA 0,00 2.054,53 5.136,32 0,00 0,00 0,00 0,00 1.550,00 8.740,85 713,09 1.162,39 0,00 0,00 1.875,48 6.865,37 31/10/2020
789 204400 ELIANE GLAUCE DE QUEIROS MAIA OFICIAL DO MP GUANHÃES - COMARCA; GUANHAES-PJ-02PJ 14.324,23 5.729,69 0,00 0,00 0,00 0,00 0,00 1.550,00 21.603,92 2.205,93 4.038,84 0,00 0,00 6.244,77 15.359,15 31/10/2020
790 91800 ELIANE KAPLER ALVES OFICIAL DO MP BELO HORIZONTE - COMARCA; DIVISAO DE CONTROLE IMOBILIARIO 18.820,14 9.410,07 0,00 0,00 0,00 0,00 0,00 1.550,00 29.780,21 3.105,32 5.935,71 0,00 0,00 9.041,03 20.739,18 31/10/2020
791 334200 ELIANE MARCIA DE OLIVEIRA BRITO OFICIAL DO MP BELO HORIZONTE - COMARCA; BH-08PJ JUIZADO ESPECIAL-SECRETARIA 6.123,79 1.837,14 0,00 0,00 0,00 0,00 0,00 1.550,00 9.510,93 875,70 1.079,08 0,00 0,00 1.954,78 7.556,15 31/10/2020
792 365900 ELIANE MARIA DE OLIVEIRA FERREIRA OFICIAL DO MP SETE LAGOAS - COMARCA; SETE LAGOAS-PJ-SEC CRIMINAIS 9.146,93 4.573,47 0,00 0,00 0,00 0,00 0,00 1.550,00 15.270,40 1.509,24 2.488,71 0,00 0,00 3.997,95 11.272,45 31/10/2020
793 320600 ELIANE STADLER DE SOUZA OFICIAL DO MP FRANCISCO SÁ - COMARCA; FRANCISCO SA-PJ-SECRETARIA 8.858,43 1.771,69 0,00 0,00 0,00 0,00 0,00 1.550,00 12.180,12 1.169,31 1.680,23 0,00 0,00 2.849,54 9.330,58 31/10/2020
794 448900 ELIAS PEREIRA OTONI ASSESSOR BELO HORIZONTE - COMARCA; BH-18PJ DIREITOS HUMANOS-SECRETARIA 0,00 0,00 5.136,32 0,00 0,00 0,00 0,00 1.550,00 6.686,32 713,09 545,25 0,00 0,00 1.258,34 5.427,98 31/10/2020
795 495400 ELICA SOUZA GASPARONI MATTOS OFICIAL DO MP UBÁ - COMARCA; UBA-PJ-06PJ 7.421,79 742,18 0,00 0,00 0,00 0,00 0,00 1.550,00 9.713,97 898,04 1.128,77 0,00 0,00 2.026,81 7.687,16 31/10/2020
796 86600 ELIENE FERREIRA DA SILVA OFICIAL DO MP BELO HORIZONTE - COMARCA; BH-22PJ PES COM DEF E IDOSOS-SECRETARIA 21.145,12 14.801,58 0,00 0,00 0,00 4.134,88 0,00 1.550,00 41.631,58 3.900,84 8.726,34 484,48 0,00 13.111,66 28.519,92 31/10/2020
797 183800 ELIENE MARIA CUNHA OFICIAL DO MP BELO HORIZONTE - COMARCA; DIRETORIA DE PESSOAL ADMINISTRATIVO - DPAD 14.790,66 5.916,26 0,00 0,00 0,00 0,00 0,00 1.550,00 22.256,92 2.277,76 4.146,52 0,00 0,00 6.424,28 15.832,64 31/10/2020
798 172300 ELINA APARECIDA SILVA ASSESSOR BELO HORIZONTE - COMARCA; BH-19PJ SAUDE-SECRETARIA 130PJ 0,00 1.230,51 3.076,28 0,00 0,00 0,00 0,00 1.550,00 5.856,79 659,71 346,65 0,00 0,00 1.006,36 4.850,43 31/10/2020
799 492501 ELINE CAMPOS DA FONSECA CUNHA ANALISTA DO MP PONTE NOVA - COMARCA; PONTE NOVA-PJ-02PJ 8.858,43 885,84 0,00 0,00 0,00 0,00 0,00 1.550,00 11.294,27 1.071,87 1.515,55 0,00 0,00 2.587,42 8.706,85 31/10/2020
800 618900 ELISA MOURA VIEIRA MARCATTI OFICIAL DO MP BELO HORIZONTE - COMARCA; BH-23PJ CIVEL-SEC EXP CIVEIS 5.217,34 521,73 0,00 0,00 0,00 0,00 0,00 2.319,39 8.058,46 631,30 535,28 0,00 0,00 1.166,58 6.891,88 31/10/2020
801 256500 ELISABETE NOGUEIRA ANALISTA DO MP RIBEIRÃO DAS NEVES - COMARCA; SEC PJ EXECUCAO PENAL RIBEIRAO NEVES 14.324,23 7.162,12 0,00 0,00 0,00 0,00 0,00 1.550,00 23.036,35 2.363,50 4.233,01 0,00 0,00 6.596,51 16.439,84 31/10/2020
802 355000 ELISANGELA DARLANTONI RIBEIRO OFICIAL DO MP ARAXÁ - COMARCA; ARAXA-PJ-05PJ 8.436,53 1.687,31 0,00 0,00 0,00 0,00 0,00 1.550,00 11.673,84 1.113,62 1.556,31 0,00 0,00 2.669,93 9.003,91 31/10/2020
803 604400 ELISANGELA DEMASI FERREIRA MOREIRA ANALISTA DO MP CABO VERDE - COMARCA; CABO VERDE-PJ-UNPJ 8.436,53 843,65 0,00 0,00 0,00 0,00 0,00 1.550,00 10.830,18 1.020,82 1.401,96 0,00 0,00 2.422,78 8.407,40 31/10/2020
804 323800 ELISANGELA GONCALVES DE JESUS OFICIAL DO MP BELO HORIZONTE - COMARCA; BH-09PJ AUDITORIA MILITAR-SECRETARIA 9.146,93 2.744,08 0,00 0,00 0,00 0,00 0,00 1.550,00 13.441,01 1.308,01 1.988,83 0,00 0,00 3.296,84 10.144,17 31/10/2020
805 507400 ELISANGELA MIGUEL DA ROCHA SILVA ASSESSOR BELO HORIZONTE - COMARCA; CGMP-DIVIS DE APOIO FISC ORIENTACAO FUNCIONAL 0,00 0,00 3.076,28 0,00 0,00 0,00 0,00 2.319,39 5.395,67 474,92 171,97 0,00 0,00 646,89 4.748,78 31/10/2020
806 261400 ELISANGELA REZENDE MENDES OFICIAL DO MP POUSO ALEGRE - COMARCA; POUSO ALEGRE-PJ-05PJ 9.752,14 2.925,64 0,00 0,00 0,00 0,00 0,00 1.550,00 14.227,78 1.394,56 2.233,53 0,00 0,00 3.628,09 10.599,69 31/10/2020
807 534100 ELISANGELA ROSINE SILVA OFICIAL DO MP UBERABA - COMARCA; UBERABA-PJ-06PJ 4.974,42 497,44 0,00 0,00 0,00 0,00 0,00 1.550,00 7.021,86 601,90 469,88 0,00 0,00 1.071,78 5.950,08 31/10/2020
808 634300 ELIUDE GRACA DAMASIO ROSARIO FRANCELINO OFICIAL DO MP BELO HORIZONTE - COMARCA; BH-18PJ VIOLENCIA DOMESTICA-SECRETARIA 4.376,03 437,60 0,00 0,00 0,00 0,00 0,00 2.319,39 7.133,02 529,50 327,80 0,00 0,00 857,30 6.275,72 31/10/2020
809 461700 ELIZABETH ALEIXO DA PAZ ANALISTA DO MP JUIZ DE FORA - COMARCA; JUIZ DE FORA-PJ-18PJ 10.069,62 1.006,96 0,00 0,00 0,00 0,00 0,00 1.550,00 12.626,58 1.218,42 1.841,63 0,00 0,00 3.060,05 9.566,53 31/10/2020
810 227300 ELIZABETH COIMBRA FELIX ASSESSOR/OFICIAL BELO HORIZONTE - COMARCA; DIRETORIA DE PAGAMENTO DE PESSOAL-DPAG 12.601,30 5.040,52 2.520,26 0,00 0,00 0,00 0,00 1.550,00 21.712,08 1.940,60 4.037,27 0,00 0,00 5.977,87 15.734,21 31/10/2020
811 354800 ELIZABETH DOS REIS OFICIAL DO MP BELO HORIZONTE - COMARCA; DIVISAO DE MATERIAIS 9.146,93 1.829,39 0,00 0,00 0,00 0,00 0,00 1.550,00 12.526,32 1.207,40 1.764,96 0,00 0,00 2.972,36 9.553,96 31/10/2020
812 612000 ELIZABETH MARIA DE QUEIROZ TANIGUCHI OFICIAL DO MP BELO HORIZONTE - COMARCA; SUPERINTENDENCIA DE RECURSOS HUMANOS 4.817,57 481,76 0,00 0,00 0,00 0,00 0,00 1.550,00 6.849,33 582,93 427,65 0,00 0,00 1.010,58 5.838,75 31/10/2020
813 452800 ELIZANGELA MARIA DAVI OFICIAL DO MP ARCOS - COMARCA; ARCOS-PJ-01PJ 6.123,79 1.224,76 0,00 0,00 0,00 0,00 0,00 1.550,00 8.898,55 808,34 877,06 0,00 0,00 1.685,40 7.213,15 31/10/2020
814 496300 ELIZANGELA MARQUES PINTO COELHO OFICIAL DO MP BELO HORIZONTE - COMARCA; DIRETORIA DE PESSOAL ADMINISTRATIVO - DPAD 7.421,79 742,18 0,00 0,00 0,00 0,00 0,00 1.550,00 9.713,97 898,04 1.128,77 0,00 0,00 2.026,81 7.687,16 31/10/2020
815 422500 ELIZETE FORTES DA CUNHA ANALISTA DO MP RIBEIRÃO DAS NEVES - COMARCA; RIBEIRAO DAS NEVES-PJ-07PJ 12.601,30 2.520,26 0,00 0,00 5.040,52 0,00 0,00 1.550,00 21.712,08 1.663,37 4.165,65 0,00 0,00 5.829,02 15.883,06 31/10/2020
816 506100 ELLEM CRISTINA ROCHA FONSECA BOWEN ANALISTA DO MP GOVERNADOR VALADARES - COMARCA; COORD REG PJ DEF EDU DIR CRIANCA ADOL RIODOCE 10.069,62 1.006,96 0,00 0,00 0,00 0,00 0,00 1.550,00 12.626,58 1.218,42 1.841,63 0,00 0,00 3.060,05 9.566,53 31/10/2020
817 468200 ELLEN CRISTINA BERNARDES DARE ANALISTA DO MP TRÊS PONTAS - COMARCA; TRES PONTAS-PJ-02PJ 10.069,62 1.006,96 0,00 0,00 0,00 0,00 0,00 1.550,00 12.626,58 1.218,42 1.789,50 0,00 0,00 3.007,92 9.618,66 31/10/2020
818 418800 ELLEN CRISTINA DE QUEIROZ FERREIRA ANALISTA DO MP BELO HORIZONTE - COMARCA; CENTRAL DE APOIO TECNICO-SETOR CONTABIL 12.204,02 2.440,80 0,00 0,00 0,00 0,00 0,00 2.319,39 16.964,21 1.610,93 2.714,96 0,00 0,00 4.325,89 12.638,32 31/10/2020
819 328401 ELLEN CRISTINA FERREIRA MORAIS MONTEIRO ANALISTA DO MP CAMANDUCAIA - COMARCA; CAMANDUCAIA-PJ-UNPJ 12.204,02 2.440,80 0,00 0,00 0,00 0,00 0,00 1.550,00 16.194,82 1.610,93 2.610,69 0,00 0,00 4.221,62 11.973,20 31/10/2020
820 556100 ELLEN CRISTINE BIANCHIN DA SILVA OFICIAL DO MP SÃO GONÇALO DO SAPUCAÍ - COMARCA; SAO GONCALO DO SAPUCAI-PJ-02PJ 4.974,42 497,44 0,00 0,00 1.823,95 0,00 0,00 1.550,00 8.845,81 601,90 919,33 0,00 0,00 1.521,23 7.324,58 31/10/2020
821 447100 ELLEN ROSANA DE MACEDO BORGES OFICIAL DO MP UBERLÂNDIA - COMARCA; UBERLANDIA-PJ-17PJ 7.663,37 1.532,67 0,00 0,00 0,00 0,00 0,00 1.550,00 10.746,04 1.011,56 1.381,37 0,00 0,00 2.392,93 8.353,11 31/10/2020
822 477700 ELMA JACOB OFICIAL DO MP BELO HORIZONTE - COMARCA; COORD DE GABINETE DO PGJ 7.421,79 5.195,26 0,00 0,00 0,00 1.497,98 0,00 1.550,00 15.665,03 1.387,88 2.600,33 0,00 0,00 3.988,21 11.676,82 31/10/2020
823 123300 ELMA PAULA DOS SANTOS COELHO OFICIAL DO MP BELO HORIZONTE - COMARCA; BH-19PJ SAUDE-SECRETARIA 130PJ 16.750,82 15.075,74 0,00 0,00 0,00 3.765,01 0,00 1.550,00 37.141,57 3.500,92 7.882,94 0,00 0,00 11.383,86 25.757,71 31/10/2020
824 356500 ELOISA CARDOSO SILVA FRANCA OFICIAL DO MP PEÇANHA - COMARCA; PECANHA-PJ-SECRETARIA 6.123,79 1.224,76 0,00 0,00 0,00 0,00 0,00 1.550,00 8.898,55 808,34 772,79 0,00 0,00 1.581,13 7.317,42 31/10/2020
825 251901 ELOISA COSTA E SILVA ANALISTA DO MP SANTOS DUMONT - COMARCA; SANTOS DUMONT-PJ-02PJ 10.069,62 3.020,89 0,00 0,00 0,00 0,00 0,00 2.319,39 15.409,90 1.439,96 2.282,40 0,00 0,00 3.722,36 11.687,54 31/10/2020
826 400400 ELOIZA MARIA FERRI PIRES DA SILVA OFICIAL DO MP BELO HORIZONTE - COMARCA; ASSESSORIA TECNICA DO PROCON-MG 7.663,37 1.532,67 0,00 0,00 0,00 0,00 337,19 5.228,42 14.761,65 1.011,56 1.329,23 0,00 0,00 2.340,79 12.420,86 31/10/2020
827 258000 ELSO CECIANO PALMEIRA COORDENADOR/OFICIAL BELO HORIZONTE - COMARCA; DIRET DE PESSOAL DO MINISTERIO PUBLICO - DPMP 11.085,56 7.759,89 2.836,60 0,00 0,00 0,00 463,09 1.550,00 23.695,14 2.073,00 4.650,48 0,00 0,00 6.723,48 16.971,66 31/10/2020
828 206900 ELVIRA RITA DOS SANTOS ANALISTA DO MP BELO HORIZONTE - COMARCA; CENTRAL DE APOIO TECNICO-SETOR CONTABIL 18.820,14 7.528,06 0,00 0,00 0,00 3.093,88 0,00 1.550,00 30.992,08 2.898,30 6.376,40 0,00 0,00 9.274,70 21.717,38 31/10/2020
829 506800 ELVIS FERREIRA DA SILVA ANALISTA DO MP BELO HORIZONTE - COMARCA; DIRETORIA DE SISTEMAS DE INFORMACAO 10.069,62 1.006,96 0,00 0,00 0,00 0,00 0,00 2.319,39 13.395,97 1.218,42 1.685,22 0,00 0,00 2.903,64 10.492,33 31/10/2020
830 602400 ELZA MARIA MOREIRA MUNIZ ANALISTA DO MP RIO PARANAÍBA - COMARCA; RIO PARANAIBA-PJ-UNPJ 8.436,53 843,65 0,00 0,00 0,00 0,00 0,00 1.550,00 10.830,18 1.020,82 1.349,83 0,00 0,00 2.370,65 8.459,53 31/10/2020
831 368401 ELZIRA SIMOES DOS SANTOS ASSESSOR BELO HORIZONTE - COMARCA; ASSESSORIA DE COMUNICACAO INTEGRADA 0,00 3.433,94 11.446,46 0,00 0,00 0,00 0,00 1.550,00 16.430,40 713,09 3.329,15 0,00 0,00 4.042,24 12.388,16 31/10/2020
832 437400 EMANOELLE DA SILVA RODRIGUES OFICIAL DO MP UNAÍ - COMARCA; UNAI-PJ-03PJ 6.961,05 696,11 0,00 0,00 0,00 0,00 0,00 3.088,78 10.745,94 842,29 952,59 0,00 0,00 1.794,88 8.951,06 31/10/2020
833 458900 EMANUELLE CONRAD SILVA FREDERICO NAVES ANALISTA DO MP ALFENAS - COMARCA; ALFENAS-PJ-05PJ 12.204,02 1.220,40 0,00 0,00 0,00 0,00 0,00 2.319,39 15.743,81 1.476,69 2.364,13 0,00 0,00 3.840,82 11.902,99 31/10/2020
834 284100 EMERSON MAGNO ALMEIDA PEDROSA DA FONSECA ANALISTA DO MP BELO HORIZONTE - COMARCA; CENTRAL DE APOIO TECNICO-SETOR CONTABIL 16.750,82 5.025,25 0,00 0,00 0,00 0,00 0,00 1.550,00 23.326,07 2.395,37 2.982,31 0,00 0,00 5.377,68 17.948,39 31/10/2020
835 179900 EMERSON MORAIS DIAS OFICIAL DO MP BELO HORIZONTE - COMARCA; SUPERINTENDÊNCIA DE ENGENHARIA E ARQUITETURA 14.790,66 5.916,26 0,00 0,00 0,00 0,00 0,00 1.550,00 22.256,92 2.277,76 4.198,66 0,00 0,00 6.476,42 15.780,50 31/10/2020
836 488700 EMERSON SIQUEIRA DE SOUSA TEIXEIRA ANALISTA DO MP TARUMIRIM - COMARCA; TARUMIRIM-PJ-UNPJ 10.069,62 1.006,96 0,00 0,00 0,00 0,00 221,53 1.550,00 12.848,11 1.242,79 1.739,44 0,00 0,00 2.982,23 9.865,88 31/10/2020
837 194200 EMILIA ALVES FERREIRA RAMOS OFICIAL DO MP UBERLÂNDIA - COMARCA; UBERLANDIA-PJ-SEC FAMILIA 9.146,93 3.658,77 0,00 0,00 0,00 0,00 0,00 1.550,00 14.355,70 1.408,63 2.264,83 0,00 0,00 3.673,46 10.682,24 31/10/2020
838 679500 EMILY DIAS LEMOS E SILVA ASSESSOR PROCURADOR JUSTICA BELO HORIZONTE - COMARCA; GABINETE DE PROCURADOR DE JUSTIÇA - SALA 706 0,00 0,00 7.187,72 0,00 0,00 0,00 0,00 3.370,89 10.558,61 713,09 1.109,39 0,00 0,00 1.822,48 8.736,13 31/10/2020
839 620700 EMILY FONTANA DE SIQUEIRA ANALISTA DO MP BELO HORIZONTE - COMARCA; BH-18PJ VIOLENCIA DOMESTICA-SECRETARIA 8.170,49 817,05 0,00 0,00 0,00 0,00 0,00 2.319,39 11.306,93 988,63 1.278,20 0,00 0,00 2.266,83 9.040,10 31/10/2020
840 297000 ENEIDA SOARES COSTA MELO ANALISTA DO MP PIUMHI - COMARCA; PIUMHI-PJ-01PJ 16.750,82 5.025,25 0,00 0,00 0,00 0,00 0,00 1.550,00 23.326,07 2.395,37 4.460,33 0,00 0,00 6.855,70 16.470,37 31/10/2020
841 276000 ENEZIO RODRIGUES DE SOUZA FILHO OFICIAL DO MP UBERLÂNDIA - COMARCA; UBERLANDIA-PJ-10PJ 10.069,62 3.020,89 0,00 0,00 0,00 0,00 0,00 1.550,00 14.640,51 1.439,96 2.334,54 0,00 0,00 3.774,50 10.866,01 31/10/2020
842 387700 ENI MARIA DOS REIS OFICIAL DO MP POUSO ALEGRE - COMARCA; POUSO ALEGRE-PJ-07PJ 8.579,10 1.715,82 0,00 0,00 0,00 0,00 377,48 5.667,97 16.340,37 1.132,44 1.650,32 0,00 0,00 2.782,76 13.557,61 31/10/2020
843 605100 ENIA MAIA ASSESSOR/OFICIAL BELO HORIZONTE - COMARCA; DIRETORIA DE ORCAMENTO-DIOR/SPC 0,00 1.039,75 10.397,52 0,00 0,00 0,00 0,00 1.550,00 12.987,27 651,85 2.090,42 0,00 19,08 2.761,35 10.225,92 31/10/2020
844 612200 ENILDO GOMES MEIRA FILHO ANALISTA DO MP MATOZINHOS - COMARCA; MATOZINHOS-PJ-02PJ 8.170,49 817,05 0,00 0,00 0,00 0,00 0,00 2.319,39 11.306,93 988,63 1.173,93 0,00 0,00 2.162,56 9.144,37 31/10/2020
845 553700 ENIVALDO NOVATO PUBLIO ANALISTA DO MP DIVINÓPOLIS - COMARCA; DIVINOPOLIS-PJ-09PJ 8.436,53 843,65 0,00 0,00 0,00 0,00 0,00 1.550,00 10.830,18 1.020,82 1.349,83 0,00 0,00 2.370,65 8.459,53 31/10/2020
846 680600 ENZO JOSE FERES SOUZA JABER ASSESSOR PROMOTOR JUSTICA NOVO CRUZEIRO - COMARCA; NOVO CRUZEIRO-PJ-SECRETARIA 0,00 0,00 7.187,72 0,00 0,00 0,00 0,00 1.550,00 8.737,72 713,09 1.213,66 0,00 0,00 1.926,75 6.810,97 31/10/2020
847 417300 ERIC BARATTI DA SILVA ANALISTA DO MP UBERLÂNDIA - COMARCA; UBERLANDIA-PJ-07PJ 10.069,62 2.013,92 0,00 0,00 0,00 0,00 0,00 1.550,00 13.633,54 1.329,19 2.088,09 0,00 0,00 3.417,28 10.216,26 31/10/2020
848 637600 ERIC DA ROCHA CHEHUEN ANALISTA DO MP LIMA DUARTE - COMARCA; LIMA DUARTE-PJ-UNPJ 7.421,79 742,18 0,00 0,00 0,00 0,00 0,00 1.550,00 9.713,97 671,12 1.191,17 0,00 0,00 1.862,29 7.851,68 31/10/2020
849 398900 ERIC TEIXEIRA SILVA OFICIAL DO MP UBERLÂNDIA - COMARCA; UBERLANDIA-PJ-SEC CIVEIS CRIMINAIS 8.436,53 1.687,31 0,00 0,00 0,00 0,00 0,00 1.550,00 11.673,84 1.113,62 1.608,45 0,00 0,00 2.722,07 8.951,77 31/10/2020
850 274200 ERICA DE SOUZA ANDRADE OFICIAL DO MP CURVELO - COMARCA; CURVELO-PJ-03PJ 10.069,62 3.020,89 0,00 0,00 0,00 0,00 0,00 1.550,00 14.640,51 1.439,96 2.282,40 0,00 0,00 3.722,36 10.918,15 31/10/2020
851 225700 ERICA GOMES DO COUTO OFICIAL DO MP BELO HORIZONTE - COMARCA; BH-21PJ TUTELA FUNDACOES-SECRETARIA 13.011,52 3.903,46 0,00 0,00 0,00 0,00 0,00 2.319,39 19.234,37 1.860,65 3.270,58 0,00 0,00 5.131,23 14.103,14 31/10/2020
852 632600 ERICA LEONOR MARTINS OFICIAL DO MP RESENDE COSTA - COMARCA; RESENDE COSTA-PJ-UNPJ 4.817,57 481,76 0,00 0,00 0,00 0,00 0,00 1.550,00 6.849,33 582,93 427,65 0,00 0,00 1.010,58 5.838,75 31/10/2020
853 524800 ERICA MACHADO DA COSTA E SOUZA ANALISTA DO MP BELO HORIZONTE - COMARCA; PROC JUST RECURSOS ESP E EXTRAORD CRIMINAIS 10.069,62 1.006,96 0,00 0,00 0,00 0,00 0,00 1.550,00 12.626,58 1.218,42 1.841,63 0,00 0,00 3.060,05 9.566,53 31/10/2020
854 249500 ERICA RODRIGUES ANDRADE OFICIAL DO MP SÃO FRANCISCO - COMARCA; SAO FRANCISCO-PJ-02PJ 8.858,43 2.657,53 0,00 0,00 0,00 0,00 0,00 1.550,00 13.065,96 1.266,76 1.897,03 0,00 0,00 3.163,79 9.902,17 31/10/2020
855 260800 ERICA VIANA GIARDINI DE OLIVEIRA OFICIAL DO MP BELO HORIZONTE - COMARCA; DIRETORIA GESTAO COMPRAS LICITACOES 10.069,62 3.020,89 0,00 0,00 0,00 0,00 0,00 1.550,00 14.640,51 1.439,96 2.334,54 0,00 0,00 3.774,50 10.866,01 31/10/2020
856 299800 ERICH DOUGLAS RIBEIRO GARCIA ANALISTA DO MP BELO HORIZONTE - COMARCA; CENTRAL DE APOIO TECNICO-SETOR CONTABIL 15.272,02 4.581,61 0,00 0,00 0,00 0,00 0,00 1.550,00 21.403,63 2.183,90 3.989,82 0,00 0,00 6.173,72 15.229,91 31/10/2020
857 365000 ERICK EDUARDO JOSE DA SILVA OFICIAL DO MP SANTOS DUMONT - COMARCA; SANTOS DUMONT-PJ-02PJ 6.123,79 1.224,76 0,00 0,00 0,00 0,00 0,00 1.550,00 8.898,55 808,34 929,20 0,00 0,00 1.737,54 7.161,01 31/10/2020
858 688900 ERICK FERDINANN SANTOS GOMES ASSESSOR PROMOTOR JUSTICA OURO PRETO - COMARCA; OURO PRETO-PJ-04PJ 0,00 0,00 7.187,72 0,00 0,00 0,00 2.395,91 2.400,00 11.983,63 713,09 1.982,54 0,00 0,00 2.695,63 9.288,00 31/10/2020
859 227400 ERIKA DE LAET GOULART BOECHAT ASSESSOR/OFICIAL BELO HORIZONTE - COMARCA; ASSESSORIA ESPECIAL DO PGJ 13.011,52 3.903,46 2.520,26 0,00 0,00 0,00 0,00 1.550,00 20.985,24 1.860,65 3.911,52 0,00 0,00 5.772,17 15.213,07 31/10/2020
860 681300 ERIKA FERNANDA ELISEU FERREIRA ASSESSOR PROCURADOR JUSTICA BELO HORIZONTE - COMARCA; GABINETE DE PROCURADOR DE JUSTIÇA - SALA 407 0,00 0,00 7.187,72 0,00 0,00 0,00 0,00 1.550,00 8.737,72 713,09 1.213,66 0,00 0,00 1.926,75 6.810,97 31/10/2020
861 285100 ERIKA FERREIRA DA SILVA OFICIAL DO MP JUIZ DE FORA - COMARCA; JUIZ DE FORA-PJ-11PJ 10.069,62 3.020,89 0,00 0,00 0,00 0,00 0,00 1.550,00 14.640,51 1.439,96 2.334,54 0,00 0,00 3.774,50 10.866,01 31/10/2020
862 420100 ERIKA JEANINE VERSIANI DE CASTRO ANALISTA DO MP BELO HORIZONTE - COMARCA; COORD ESTADUAL DE DEFESA DA EDUCACAO 12.601,30 2.520,26 0,00 0,00 0,00 0,00 0,00 1.550,00 16.671,56 1.663,37 2.831,64 0,00 0,00 4.495,01 12.176,55 31/10/2020
863 677100 ERIKA LAYS CARDOSO FERNANDES ASSESSOR PROMOTOR JUSTICA GRAO MOGOL - COMARCA; GRAO MOGOL-PJ-UNPJ 0,00 0,00 7.187,72 0,00 0,00 0,00 0,00 1.550,00 8.737,72 713,09 1.213,66 0,00 0,00 1.926,75 6.810,97 31/10/2020
864 606900 ERIKA MARIA BARBOSA ANALISTA DO MP BELO HORIZONTE - COMARCA; CAO-SAUDE 7.663,37 766,34 0,00 0,00 0,00 0,00 0,00 1.550,00 9.979,71 927,27 1.141,67 0,00 0,00 2.068,94 7.910,77 31/10/2020
865 491000 ERIKA ROCHA PEREIRA E SILVA COORDENADOR/ANALISTA BELO HORIZONTE - COMARCA; DIR GOVERNANCA TECNOLOGIA INFORMACAO 0,00 1.343,52 13.435,16 0,00 0,00 0,00 0,00 1.550,00 16.328,68 1.218,42 2.859,71 0,00 0,00 4.078,13 12.250,55 31/10/2020
866 283201 ERIKA STEHLING COORDENADOR/ANALISTA BELO HORIZONTE - COMARCA; CENTRAL DE APOIO TECNICO-SETOR DE ENGENHARIA 10.069,62 1.006,96 2.363,83 0,00 0,00 0,00 0,00 1.550,00 14.990,41 1.218,42 2.491,69 0,00 0,00 3.710,11 11.280,30 31/10/2020
867 254000 ERLANDIA DA SILVA MENDES OFICIAL DO MP IPATINGA - COMARCA; IPATINGA-PJ-03PJ 12.204,02 4.881,61 0,00 0,00 0,00 0,00 0,00 1.550,00 18.635,63 1.879,42 3.155,94 0,00 0,00 5.035,36 13.600,27 31/10/2020
868 208600 ERNANE JOSE DA COSTA ANALISTA DO MP BELO HORIZONTE - COMARCA; CENTRAL DE APOIO TECNICO-SETOR MEDICO 18.820,14 15.056,11 0,00 0,00 0,00 0,00 0,00 1.550,00 35.426,25 3.726,39 7.421,85 0,00 0,00 11.148,24 24.278,01 31/10/2020
869 260600 ERNANI CALDEIRA DE ANDRADE ANALISTA DO MP BELO HORIZONTE - COMARCA; CENTRAL DE APOIO TECNICO-SETOR CONTABIL 18.820,14 5.646,04 0,00 0,00 0,00 0,00 0,00 1.550,00 26.016,18 2.691,28 5.118,74 0,00 0,00 7.810,02 18.206,16 31/10/2020
870 348500 ERNILANDIA DE OLIVEIRA DIAS OFICIAL DO MP MONTES CLAROS - COMARCA; MONTES CLAROS-PJ-16PJ 8.579,10 1.715,82 0,00 0,00 0,00 0,00 0,00 1.550,00 11.844,92 1.132,44 1.650,32 0,00 0,00 2.782,76 9.062,16 31/10/2020
871 199300 ERTON PORTINARI DE ANDRADE OFICIAL DO MP SETE LAGOAS - COMARCA; SETE LAGOAS-PJ-05PJ 14.324,23 5.729,69 0,00 0,00 0,00 0,00 0,00 1.550,00 21.603,92 2.205,93 3.934,56 0,00 0,00 6.140,49 15.463,43 31/10/2020
872 618800 ESLY DE CARLA AYALLA BARBOSA MENDES OFICIAL DO MP NOVA LIMA - COMARCA; NOVA LIMA-PJ-SECRETARIA 4.817,57 481,76 0,00 0,00 0,00 0,00 0,00 1.550,00 6.849,33 582,93 427,65 0,00 0,00 1.010,58 5.838,75 31/10/2020
873 537000 ESTANISLAU CORREIA ALMEIDA JUNIOR OFICIAL DO MP UBERLÂNDIA - COMARCA; UBERLANDIA-PJ-25PJ 5.387,19 538,72 0,00 0,00 0,00 0,00 0,00 1.550,00 7.475,91 651,85 581,01 0,00 0,00 1.232,86 6.243,05 31/10/2020
874 326900 ESTER ALICE PIMENTA OFICIAL DO MP BELO HORIZONTE - COMARCA; COORD DE INCLUSAO E MOBILIZACAO SOCIAIS 9.444,70 2.833,41 0,00 0,00 0,00 0,00 0,00 1.550,00 13.828,11 1.350,59 2.135,71 0,00 0,00 3.486,30 10.341,81 31/10/2020
875 503700 ESTHER GONCALVES FONSECA ANALISTA DO MP BELO HORIZONTE - COMARCA; CENTRO PUBLICIDADE E DESIGN GRAFICO 8.579,10 857,91 0,00 0,00 0,00 0,00 0,00 1.550,00 10.987,01 1.038,07 1.440,35 0,00 0,00 2.478,42 8.508,59 31/10/2020
876 475600 ETIENE DE FATIMA OLIVEIRA PEREIRA ANALISTA DO MP PATROCÍNIO - COMARCA; PATROCINIO-PJ-04PJ 10.069,62 1.006,96 0,00 0,00 0,00 0,00 0,00 1.550,00 12.626,58 1.218,42 1.737,36 0,00 0,00 2.955,78 9.670,80 31/10/2020
877 428800 EUGENIA RODRIGUES TRAJANO BORGES ANALISTA DO MP UBERABA - COMARCA; UBERABA-PJ-08PJ 12.204,02 2.440,80 0,00 0,00 0,00 0,00 0,00 2.319,39 16.964,21 1.610,93 2.714,96 0,00 0,00 4.325,89 12.638,32 31/10/2020
878 272700 EUGENIO DE BARCELOS FILHO OFICIAL DO MP FRUTAL - COMARCA; FRUTAL-PJ-03PJ 8.579,10 2.573,73 0,00 0,00 0,00 0,00 0,00 1.550,00 12.702,83 1.226,81 1.808,16 0,00 0,00 3.034,97 9.667,86 31/10/2020
879 254100 EULALIA ALVES MIRANDA LUCAS OFICIAL DO MP ALMENARA - COMARCA; ALMENARA-PJ-02PJ 11.085,56 3.325,67 0,00 0,00 0,00 0,00 724,71 1.550,00 16.685,94 1.664,95 2.730,89 0,00 0,00 4.395,84 12.290,10 31/10/2020
880 615500 EUNICE BARBOSA PINTO OFICIAL DO MP OURO PRETO - COMARCA; OURO PRETO-PJ-03PJ 5.217,34 1.043,47 0,00 0,00 0,00 0,00 0,00 1.550,00 7.810,81 688,69 662,97 0,00 0,00 1.351,66 6.459,15 31/10/2020
881 641200 EUNICE ELVIRA DA SILVA MATOS OFICIAL DO MP BELO HORIZONTE - COMARCA; BH-14PJ DEFESA CONSUMIDOR-SECRETARIA 4.376,03 262,56 0,00 0,00 0,00 0,00 0,00 1.550,00 6.188,59 510,24 292,75 0,00 0,00 802,99 5.385,60 31/10/2020
882 557900 EURIPEDES JOSUE PERES OFICIAL DO MP IBIÁ - COMARCA; IBIA-PJ-UNPJ 4.974,42 497,44 0,00 0,00 0,00 0,00 0,00 1.550,00 7.021,86 601,90 469,88 0,00 0,00 1.071,78 5.950,08 31/10/2020
883 225800 EURO CESAR VIEIRA BARBOSA ANALISTA DO MP BELO HORIZONTE - COMARCA; BH-17PJ PATRIMONIO PUBLICO-SECRETARIA 18.820,14 7.528,06 0,00 0,00 0,00 0,00 0,00 1.550,00 27.898,20 2.898,30 5.475,09 0,00 0,00 8.373,39 19.524,81 31/10/2020
884 199400 EUSTAQUIO ADAILTON LIMA E SILVA OFICIAL DO MP MANGA - COMARCA; MANGA-PJ-01PJ 14.324,23 10.026,96 0,00 0,00 0,00 0,00 0,00 1.550,00 25.901,19 2.678,63 4.882,05 0,00 0,00 7.560,68 18.340,51 31/10/2020
885 548000 EVA VILMA LEAO REIS JULIO OFICIAL DO MP BELO HORIZONTE - COMARCA; BH-07PJ 01 TRIBUNAL JURI-SECRETARIA 5.387,19 1.616,16 0,00 0,00 0,00 0,00 0,00 1.550,00 8.553,35 770,37 844,71 0,00 0,00 1.615,08 6.938,27 31/10/2020
886 517000 EVALDO SENA COSTA FILHO ANALISTA DO MP CONTAGEM - COMARCA; CONTAGEM-PJ-15PJ 10.069,62 3.020,89 0,00 0,00 0,00 0,00 0,00 1.550,00 14.640,51 1.439,96 2.178,13 0,00 0,00 3.618,09 11.022,42 31/10/2020
887 217500 EVELANGE LEAO RABELO ASSESSOR BELO HORIZONTE - COMARCA; COORD EST DEF DIR FAM PESSOAS DEFICI IDOSOS 0,00 1.230,51 3.076,28 0,00 0,00 0,00 0,00 1.550,00 5.856,79 656,58 436,95 0,00 0,00 1.093,53 4.763,26 31/10/2020
888 679600 EVERTON BARBOSA DA SILVA ASSESSOR PROCURADOR JUSTICA BELO HORIZONTE - COMARCA; GABINETE DE PROCURADOR DE JUSTIÇA - SALA 513 0,00 0,00 7.187,72 0,00 0,00 0,00 0,00 1.550,00 8.737,72 713,09 1.213,66 0,00 0,00 1.926,75 6.810,97 31/10/2020
889 540400 EVIE SARAMELLA DE RESENDE OFICIAL DO MP BARBACENA - COMARCA; BARBACENA-PJ-05PJ 5.387,19 538,72 0,00 0,00 1.975,30 0,00 0,00 1.550,00 9.451,21 651,85 1.124,21 0,00 0,00 1.776,06 7.675,15 31/10/2020
890 469000 EWERTON CARDOSO DE SA RODRIGUES ANALISTA DO MP CAMPO BELO - COMARCA; CAMPO BELO-PJ-01PJ 10.069,62 1.006,96 0,00 0,00 0,00 0,00 0,00 2.319,39 13.395,97 1.218,42 1.737,36 0,00 0,00 2.955,78 10.440,19 31/10/2020
891 368900 FABIANA BARBOSA SIQUEIRA OFICIAL DO MP BELO HORIZONTE - COMARCA; CAO-ORDEM ECONOMICA E TRIBUTARIA-SECRETARIA 8.858,43 1.771,69 0,00 0,00 0,00 0,00 0,00 1.550,00 12.180,12 1.169,31 1.680,23 0,00 0,00 2.849,54 9.330,58 31/10/2020
892 273800 FABIANA CARNEIRO AMORIM COORDENADOR/OFICIAL BELO HORIZONTE - COMARCA; BH-23PJ CIVEL-COORD ADM CIVEL 10.736,08 3.220,82 2.363,83 0,00 0,00 0,00 0,00 1.550,00 17.870,73 1.535,26 3.090,58 0,00 0,00 4.625,84 13.244,89 31/10/2020
893 519300 FABIANA DE OLIVEIRA LOUREIRO ANALISTA DO MP BELO HORIZONTE - COMARCA; BH-09PJ AUDITORIA MILITAR-SECRETARIA 10.069,62 1.006,96 0,00 0,00 0,00 0,00 0,00 1.550,00 12.626,58 1.218,42 1.841,63 0,00 0,00 3.060,05 9.566,53 31/10/2020
894 363400 FABIANA DOURADO DUPIN VIEGAS ANALISTA DO MP BELO HORIZONTE - COMARCA; GABINETE DE PROCURADOR DE JUSTIÇA - SALA 705 14.790,66 2.958,13 0,00 0,00 0,00 0,00 0,00 1.550,00 19.298,79 1.952,37 3.422,52 0,00 0,00 5.374,89 13.923,90 31/10/2020
895 410800 FABIANA DUARTE QUITITE ANALISTA DO MP BELO HORIZONTE - COMARCA; BH-15PJ M AMB PAT HIST CULT-GAB 116PJ 12.601,30 2.520,26 0,00 0,00 0,00 0,00 0,00 1.550,00 16.671,56 1.663,37 2.831,64 0,00 0,00 4.495,01 12.176,55 31/10/2020
896 419500 FABIANA EULALIA DOS SANTOS ANALISTA DO MP SÃO JOÃO DEL REI - COMARCA; SAO JOAO DEL REI-PJ-01PJ 12.601,30 2.520,26 0,00 0,00 0,00 0,00 777,72 1.550,00 17.449,28 1.748,92 3.021,99 0,00 0,00 4.770,91 12.678,37 31/10/2020
897 376300 FABIANA MATTOSO LEMOS ANALISTA DO MP BELO HORIZONTE - COMARCA; BH-21PJ TUTELA FUNDACOES-SECRETARIA 13.011,52 2.602,30 0,00 0,00 0,00 0,00 0,00 1.550,00 17.163,82 1.717,52 2.952,12 0,00 0,00 4.669,64 12.494,18 31/10/2020
898 331500 FABIANA PACHECO OFICIAL DO MP GUAXUPÉ - COMARCA; GUAXUPE-PJ-01PJ 9.146,93 2.744,08 0,00 0,00 0,00 0,00 0,00 2.319,39 14.210,40 1.308,01 1.936,69 0,00 0,00 3.244,70 10.965,70 31/10/2020
899 510700 FABIANA PEREIRA SANTOS BORGES ANALISTA DO MP BELO HORIZONTE - COMARCA; DIRETORIA DE SISTEMAS DE INFORMACAO 10.069,62 1.006,96 0,00 0,00 0,00 0,00 0,00 2.319,39 13.395,97 1.218,42 1.789,50 0,00 0,00 3.007,92 10.388,05 31/10/2020
900 181700 FABIANA SOUZA FERREIRA OFICIAL DO MP BELO HORIZONTE - COMARCA; BH-19PJ SAUDE-SECRETARIA 150PJ 6.123,79 2.449,52 0,00 0,00 0,00 0,00 0,00 1.550,00 10.123,31 943,06 1.124,68 0,00 0,00 2.067,74 8.055,57 31/10/2020
901 272900 FABIANA STOCKLER LEITE OFICIAL DO MP LAJINHA - COMARCA; LAJINHA-PJ-SECRETARIA 10.069,62 5.034,81 0,00 0,00 0,00 0,00 0,00 2.319,39 17.423,82 1.661,49 2.723,17 0,00 0,00 4.384,66 13.039,16 31/10/2020
902 225500 FABIANE DE FATIMA PORTELLA ANALISTA DO MP BELO HORIZONTE - COMARCA; BH-18PJ DIREITOS HUMANOS-SECRETARIA 18.820,14 5.646,04 0,00 0,00 0,00 0,00 0,00 1.550,00 26.016,18 2.691,28 5.118,74 0,00 0,00 7.810,02 18.206,16 31/10/2020
903 433800 FABIANE DINIZ MATTOS ANALISTA DO MP BELO HORIZONTE - COMARCA; BH-23PJ INFRACIONAL-ASS JURIDICA 12.601,30 2.520,26 0,00 0,00 0,00 0,00 2.333,16 3.088,78 20.543,50 1.920,02 3.402,68 0,00 0,00 5.322,70 15.220,80 31/10/2020
904 455000 FABIANO CARVALHO DA SILVA ANALISTA DO MP LAVRAS - COMARCA; LAVRAS-PJ-05PJ 10.069,62 1.006,96 0,00 0,00 3.692,19 0,00 0,00 1.550,00 16.318,77 1.218,42 2.856,99 0,00 0,00 4.075,41 12.243,36 31/10/2020
905 498800 FABIANO FURTADO PESSOA COELHO ANALISTA DO MP BELO HORIZONTE - COMARCA; DIRETORIA DE REDES E BANCOS DE DADOS 10.069,62 1.006,96 0,00 0,00 0,00 0,00 0,00 1.550,00 12.626,58 1.218,42 1.789,50 0,00 0,00 3.007,92 9.618,66 31/10/2020
906 663000 FABIANO MARQUES CORREA ASSESSOR BELO HORIZONTE - COMARCA; DIRETORIA DE SUPORTE E MANUTENCAO 0,00 0,00 5.136,32 0,00 0,00 0,00 0,00 1.550,00 6.686,32 713,09 649,53 0,00 0,00 1.362,62 5.323,70 31/10/2020
907 394600 FABIANO PALHARES SILVA ANALISTA DO MP BELO HORIZONTE - COMARCA; CENTRAL DE APOIO TECN-SETOR DE MEIO AMBIENTE 13.011,52 2.602,30 0,00 0,00 0,00 0,00 0,00 1.550,00 17.163,82 1.717,52 2.899,99 0,00 0,00 4.617,51 12.546,31 31/10/2020
908 676600 FABIANO RESENDE VELOSO ASSESSOR PROCURADOR JUSTICA BELO HORIZONTE - COMARCA; GABINETE DE PROCURADOR DE JUSTIÇA - SALA 1002 0,00 0,00 7.187,72 0,00 0,00 0,00 0,00 1.550,00 8.737,72 713,09 1.213,66 0,00 0,00 1.926,75 6.810,97 31/10/2020
909 444400 FABIANO SARAIVA MEDEIROS ANALISTA DO MP BETIM - COMARCA; BETIM-PJ-11PJ 12.204,02 2.440,80 0,00 0,00 0,00 0,00 0,00 2.319,39 16.964,21 1.610,93 2.610,69 0,00 0,00 4.221,62 12.742,59 31/10/2020
910 408700 FABIANO SOARES PORTILHO ANALISTA DO MP VIÇOSA - COMARCA; VICOSA-PJ-02PJ 12.601,30 2.520,26 0,00 0,00 0,00 0,00 0,00 1.550,00 16.671,56 1.663,37 2.831,64 0,00 0,00 4.495,01 12.176,55 31/10/2020
911 442600 FABIO CARVALHO VIEIRA ANALISTA DO MP MONTES CLAROS - COMARCA; MONTES CLAROS-PJ-06PJ 9.444,70 1.888,94 0,00 0,00 0,00 0,00 0,00 1.550,00 12.883,64 1.246,70 1.904,55 0,00 0,00 3.151,25 9.732,39 31/10/2020
912 240101 FABIO JUNQUEIRA DE ASSIS FONSECA OFICIAL DO MP BELO HORIZONTE - COMARCA; BH-17PJ PATRIMONIO PUBLICO-SECRETARIA 7.912,85 1.582,57 0,00 0,00 0,00 0,00 0,00 1.550,00 11.045,42 1.044,50 1.454,64 0,00 0,00 2.499,14 8.546,28 31/10/2020
913 271500 FABIO LUIZ VIEIRA OFICIAL DO MP SANTA VITÓRIA - COMARCA; SANTA VITORIA-PJ-UNPJ 10.069,62 3.020,89 0,00 0,00 0,00 0,00 0,00 1.656,22 14.746,73 1.439,96 2.230,27 0,00 0,00 3.670,23 11.076,50 31/10/2020
914 213100 FABIO PRATES GONCALVES ASSESSOR BELO HORIZONTE - COMARCA; CENTRO CERIMONIAL 0,00 4.159,01 10.397,52 0,00 0,00 0,00 0,00 2.319,39 16.875,92 713,09 3.083,67 0,00 0,00 3.796,76 13.079,16 31/10/2020
915 436700 FABIO SANTIAGO DE CARVALHO OFICIAL DO MP POÇO FUNDO - COMARCA; POCO FUNDO-PJ-UNPJ 7.912,85 1.582,57 0,00 0,00 0,00 0,00 0,00 1.550,00 11.045,42 1.044,50 1.454,64 0,00 0,00 2.499,14 8.546,28 31/10/2020
916 208400 FABIOLA DE SOUSA CARDOSO ASSESSOR/ANALISTA BELO HORIZONTE - COMARCA; ASSESS TECNICA DA CORREGEDORIA-GERAL DO MP 18.820,14 7.528,06 2.520,26 0,00 0,00 0,00 0,00 1.550,00 30.418,46 2.898,30 6.272,43 0,00 0,00 9.170,73 21.247,73 31/10/2020
917 392200 FABIOLA LEROY COSTA ANALISTA DO MP ESMERALDAS - COMARCA; ESMERALDAS-PJ-01PJ 10.069,62 2.013,92 0,00 0,00 0,00 0,00 0,00 2.319,39 14.402,93 1.329,19 2.088,09 0,00 0,00 3.417,28 10.985,65 31/10/2020
918 409000 FABIOLA MONTEIRO DE CARVALHO CASTRO ANALISTA DO MP BOM SUCESSO - COMARCA; BOM SUCESSO-PJ-UNPJ 10.736,08 2.147,22 0,00 0,00 0,00 0,00 0,00 1.550,00 14.433,30 1.417,16 2.283,83 0,00 0,00 3.700,99 10.732,31 31/10/2020
919 525800 FABRICIA ALVES DANTAS OFICIAL DO MP MONTES CLAROS - COMARCA; MONTES CLAROS-PJ-01PJ 6.741,63 674,16 0,00 0,00 0,00 0,00 0,00 1.550,00 8.965,79 815,74 841,38 0,00 0,00 1.657,12 7.308,67 31/10/2020
920 263400 FABRICIA PINTO TEIXEIRA SANTIAGO OFICIAL DO MP BELO HORIZONTE - COMARCA; CAO-FUNDACOES-SECRETARIA 12.204,02 3.661,21 0,00 0,00 0,00 0,00 0,00 1.550,00 17.415,23 1.745,18 2.909,38 0,00 0,00 4.654,56 12.760,67 31/10/2020
921 420800 FABRICIO BERNARDES DE OLIVEIRA OFICIAL DO MP ITURAMA - COMARCA; ITURAMA-PJ-02PJ 7.912,85 1.582,57 0,00 0,00 0,00 0,00 0,00 1.550,00 11.045,42 1.044,50 1.402,51 0,00 0,00 2.447,01 8.598,41 31/10/2020
922 474000 FABRICIO DE FREITAS SALES ANALISTA DO MP MONTES CLAROS - COMARCA; COORD REG PATRI PUB ORD TRIB-NORTE MINAS 10.069,62 1.006,96 0,00 0,00 0,00 0,00 0,00 1.550,00 12.626,58 1.218,42 1.841,63 0,00 0,00 3.060,05 9.566,53 31/10/2020
923 510100 FABRICIO FURTADO ASSIS DO CARMO ANALISTA DO MP BELO HORIZONTE - COMARCA; SERVICO MEDICO-DEPTO PERIC MEDICA SAUDE OCUP 10.069,62 1.006,96 0,00 0,00 0,00 0,00 963,51 2.319,39 14.359,48 1.218,42 2.106,60 0,00 0,00 3.325,02 11.034,46 31/10/2020
924 519600 FABRICIO GONTIJO SALVATI ANALISTA DO MP JUIZ DE FORA - COMARCA; JUIZ DE FORA-CAO ESPECIALIZADO-SECRETARIA 10.069,62 1.006,96 0,00 0,00 0,00 0,00 0,00 1.550,00 12.626,58 1.218,42 1.841,63 0,00 0,00 3.060,05 9.566,53 31/10/2020
925 637400 FABRICIO HENRIQUE DA SILVA PASSOS ASSESSOR/ANALISTA BELO HORIZONTE - COMARCA; CENTRO PUBLICIDADE E DESIGN GRAFICO 0,00 1.039,75 10.397,52 0,00 3.812,42 0,00 4.343,84 1.550,00 21.143,53 988,63 4.246,35 0,00 0,00 5.234,98 15.908,55 31/10/2020
926 428200 FABRICIO ORZIL VIANA ANALISTA DO MP SANTA LUZIA - COMARCA; SANTA LUZIA-PJ-04PJ 10.069,62 2.013,92 0,00 0,00 4.027,85 0,00 659,46 1.550,00 18.320,85 1.401,73 3.357,15 0,00 0,00 4.758,88 13.561,97 31/10/2020
927 455600 FABRICIO PAIVA DA ROCHA ANALISTA DO MP SÃO JOÃO DEL REI - COMARCA; SAO JOAO DEL REI-PJ-06PJ 10.069,62 1.006,96 0,00 0,00 0,00 0,00 0,00 2.319,39 13.395,97 1.218,42 1.789,50 0,00 0,00 3.007,92 10.388,05 31/10/2020
928 511500 FABRICIO RENE CARDOSO DE PADUA ANALISTA DO MP SÃO SEBASTIÃO DO PARAÍSO - COMARCA; SAO SEBASTIAO DO PARAISO-PJ-03PJ 10.069,62 1.006,96 0,00 0,00 0,00 0,00 406,14 5.980,63 17.463,35 1.218,42 1.841,63 0,00 0,00 3.060,05 14.403,30 31/10/2020
929 496100 FABRICIO RESENDE GONCALVES OFICIAL DO MP ENTRE-RIOS DE MINAS - COMARCA; ENTRE RIOS DE MINAS-PJ-UNPJ 6.741,63 674,16 0,00 0,00 0,00 0,00 0,00 2.319,39 9.735,18 815,74 945,65 0,00 0,00 1.761,39 7.973,79 31/10/2020
930 650300 FABRICIO ROBERTO AZEVEDO OFICIAL DO MP NOVA SERRANA - COMARCA; NOVA SERRANA-PJ-04PJ 4.238,09 254,29 0,00 0,00 0,00 0,00 0,00 1.550,00 6.042,38 494,16 263,47 0,00 0,00 757,63 5.284,75 31/10/2020
931 514900 FADUA MARIA DRUMOND CHEQUER ANALISTA DO MP DIVINÓPOLIS - COMARCA; DIVINOPOLIS-PJ-12PJ 10.069,62 1.006,96 0,00 0,00 0,00 0,00 0,00 3.088,78 14.165,36 1.218,42 1.737,36 0,00 0,00 2.955,78 11.209,58 31/10/2020
932 282500 FANNY FERREIRA MELO OFICIAL DO MP ARAXÁ - COMARCA; ARAXA-PJ-03PJ 8.436,53 2.530,96 0,00 0,00 0,00 0,00 0,00 1.550,00 12.517,49 1.206,42 1.814,93 0,00 0,00 3.021,35 9.496,14 31/10/2020
933 540100 FATIMA CRISTINA POVOA DA COSTA ASSESSOR/OFICIAL BELO HORIZONTE - COMARCA; BH-18PJ VIOLENCIA DOMESTICA-SECRETARIA 0,00 3.119,26 10.397,52 0,00 0,00 860,70 0,00 1.550,00 15.927,48 770,37 2.847,44 0,00 0,00 3.617,81 12.309,67 31/10/2020
934 382800 FATIMA DE OLIVEIRA COELHO E SILVA OFICIAL DO MP BELO HORIZONTE - COMARCA; DIRETORIA DE ADMINISTRACAO FINANCEIRA 6.529,10 1.958,73 0,00 0,00 0,00 0,00 0,00 1.550,00 10.037,83 933,66 1.155,90 0,00 0,00 2.089,56 7.948,27 31/10/2020
935 398601 FELIPE ANTONIO HORTA DE PAULA ANALISTA DO MP BELO HORIZONTE - COMARCA; PROC. JUSTICA DIR. DIFUSOS E COLETIVOS-SEC 8.436,53 843,65 0,00 0,00 0,00 0,00 0,00 1.550,00 10.830,18 1.020,82 1.401,96 0,00 0,00 2.422,78 8.407,40 31/10/2020
936 430900 FELIPE BOY VIEIRA ANALISTA DO MP BELO HORIZONTE - COMARCA; DIRETORIA DE SEGURANCA 11.085,56 2.217,11 0,00 0,00 0,00 0,00 0,00 1.550,00 14.852,67 1.463,29 2.386,47 0,00 0,00 3.849,76 11.002,91 31/10/2020
937 631700 FELIPE DE MORAIS SIMOES COELHO ANALISTA DO MP BELO HORIZONTE - COMARCA; BH-18PJ VIOLENCIA DOMESTICA-SECRETARIA 7.421,79 742,18 0,00 0,00 0,00 0,00 0,00 1.550,00 9.713,97 898,04 1.128,77 0,00 0,00 2.026,81 7.687,16 31/10/2020
938 549100 FELIPE FERNANDES ALVIM ANALISTA DO MP LAJINHA - COMARCA; LAJINHA-PJ-UNPJ 8.436,53 843,65 0,00 0,00 0,00 0,00 497,19 1.550,00 11.327,37 1.075,51 1.523,65 0,00 0,00 2.599,16 8.728,21 31/10/2020
939 487300 FELIPE FERNANDES SILVEIRA ASSESSOR BELO HORIZONTE - COMARCA; DIVISAO DE MANUTENCAO PREDIAL 0,00 0,00 3.076,28 0,00 1.025,43 0,00 0,00 1.550,00 5.651,71 474,92 430,51 0,00 0,00 905,43 4.746,28 31/10/2020
940 620100 FELIPE GOMES DE AZEVEDO ASSESSOR/OFICIAL BELO HORIZONTE - COMARCA; DIVISAO DE SERVICOS 0,00 817,05 8.170,49 0,00 0,00 0,00 0,00 1.550,00 10.537,54 582,93 1.431,62 0,00 37,40 2.051,95 8.485,59 31/10/2020
941 601600 FELIPE RODRIGUES DE SIQUEIRA ANALISTA DO MP BELO HORIZONTE - COMARCA; BH-02PJ FAMILIA-SECRETARIA 8.436,53 843,65 0,00 0,00 0,00 0,00 477,30 1.550,00 11.307,48 1.073,32 1.173,93 0,00 0,00 2.247,25 9.060,23 31/10/2020
942 628900 FELIX FERNANDO JUNIO VIEIRA ANALISTA DO MP CAETÉ - COMARCA; CAETE-PJ-02PJ 8.170,49 817,05 0,00 0,00 0,00 0,00 0,00 1.550,00 10.537,54 988,63 1.278,20 0,00 0,00 2.266,83 8.270,71 31/10/2020
943 544500 FELLIPE LEMOS MARCONDES BUENO ANALISTA DO MP SÃO SEBASTIÃO DO PARAÍSO - COMARCA; SAO SEBASTIAO DO PARAISO-PJ-04PJ 8.436,53 843,65 0,00 0,00 0,00 0,00 0,00 1.550,00 10.830,18 1.020,82 1.401,96 0,00 0,00 2.422,78 8.407,40 31/10/2020
944 688500 FELLIPE TADEU DE ANDRADE RAMOS ASSESSOR PROCURADOR JUSTICA BELO HORIZONTE - COMARCA; GABINETE DE PROCURADOR DE JUSTIÇA - SALA 907 0,00 0,00 7.187,72 0,00 0,00 0,00 2.395,91 2.400,00 11.983,63 713,09 1.982,54 0,00 0,00 2.695,63 9.288,00 31/10/2020
945 612600 FERNANDA ADRIANA DE PAULA GUIDO ANALISTA DO MP PARACATU - COMARCA; PARACATU-PJ-02PJ 8.170,49 817,05 0,00 0,00 0,00 0,00 0,00 2.319,39 11.306,93 988,63 1.330,34 0,00 0,00 2.318,97 8.987,96 31/10/2020
946 508400 FERNANDA AGANETTI MATTOS DE OLIVEIRA ANALISTA DO MP BELO HORIZONTE - COMARCA; BH-07PJ 02 TRIBUNAL DO JURI-GAB 061PJ 10.069,62 1.006,96 0,00 0,00 0,00 0,00 0,00 3.088,78 14.165,36 1.218,42 1.841,63 0,00 0,00 3.060,05 11.105,31 31/10/2020
947 453600 FERNANDA ALBERNAZ RABELO ANALISTA DO MP BELO HORIZONTE - COMARCA; GABINETE DE PROCURADOR DE JUSTIÇA - SALA 616 10.069,62 1.006,96 0,00 0,00 0,00 0,00 0,00 1.550,00 12.626,58 1.218,42 1.841,63 0,00 0,00 3.060,05 9.566,53 31/10/2020
948 255600 FERNANDA ALINA DE ALMEIDA ANDRADE OFICIAL DO MP BELO HORIZONTE - COMARCA; LABORATORIO TECNOLOGIA INTELIGENCIA 9.146,93 2.744,08 0,00 0,00 0,00 0,00 0,00 1.550,00 13.441,01 1.308,01 2.040,97 0,00 0,00 3.348,98 10.092,03 31/10/2020
949 443200 FERNANDA ALMEIDA LOPES ANALISTA DO MP CONTAGEM - COMARCA; CONTAGEM-PJ-23PJ 12.204,02 2.440,80 0,00 0,00 0,00 0,00 0,00 3.088,78 17.733,60 1.610,93 2.610,69 0,00 0,00 4.221,62 13.511,98 31/10/2020
950 281100 FERNANDA ANANIAS MEIRA ANALISTA DO MP BELO HORIZONTE - COMARCA; BH-23PJ INFRACIONAL-ASS JURIDICA 15.272,02 4.581,61 0,00 0,00 0,00 0,00 1.021,08 1.550,00 22.424,71 2.296,22 4.239,72 0,00 0,00 6.535,94 15.888,77 31/10/2020
951 539000 FERNANDA BARBOSA ALVES ANALISTA DO MP UBERABA - COMARCA; UBERABA-PJ-04PJ 8.436,53 843,65 0,00 0,00 0,00 0,00 0,00 2.319,39 11.599,57 1.020,82 1.401,96 0,00 0,00 2.422,78 9.176,79 31/10/2020
952 451200 FERNANDA BLOISE PRADO OFICIAL DO MP BELO HORIZONTE - COMARCA; DIVISAO DE MATERIAIS 7.421,79 1.484,36 0,00 0,00 0,00 0,00 0,00 1.550,00 10.456,15 979,68 1.310,42 0,00 0,00 2.290,10 8.166,05 31/10/2020
953 427900 FERNANDA BRAGA CARNEIRO BICALHO ANALISTA DO MP PEÇANHA - COMARCA; PECANHA-PJ-SECRETARIA 10.069,62 2.013,92 0,00 0,00 0,00 0,00 0,00 2.319,39 14.402,93 1.329,19 2.035,95 0,00 0,00 3.365,14 11.037,79 31/10/2020
954 507100 FERNANDA CABRINI VAZ MOTA ANALISTA DO MP BELO HORIZONTE - COMARCA; BH-14PJ DEFESA CONSUMIDOR-GAB 005PJ 10.069,62 1.006,96 0,00 0,00 0,00 0,00 0,00 2.319,39 13.395,97 1.218,42 1.841,63 0,00 0,00 3.060,05 10.335,92 31/10/2020
955 259800 FERNANDA CALZAVARA DE SOUSA COORDENADOR/OFICIAL BELO HORIZONTE - COMARCA; DIRET DE FORMACAO, APERFEIC. E POS-GRADUACAO 12.204,02 3.661,21 2.687,03 967,03 0,00 0,00 2.173,10 2.319,39 24.011,78 1.745,18 3.655,47 0,00 159,94 5.560,59 18.451,19 31/10/2020
956 494400 FERNANDA CAMPOS BARATA OFICIAL DO MP JUIZ DE FORA - COMARCA; JUIZ DE FORA-PJ-08PJ 5.562,64 556,26 0,00 0,00 0,00 0,00 0,00 1.550,00 7.668,90 673,08 628,24 0,00 0,00 1.301,32 6.367,58 31/10/2020
957 555600 FERNANDA CAROLINE RIBEIRO ANALISTA DO MP BELO HORIZONTE - COMARCA; DIRETORIA GESTAO CONTRATOS CONVENIOS 8.436,53 843,65 0,00 0,00 0,00 0,00 0,00 1.550,00 10.830,18 1.020,82 1.393,11 0,00 32,19 2.446,12 8.384,06 31/10/2020
958 294500 FERNANDA COSTA FLORES OFICIAL DO MP PARÁ DE MINAS - COMARCA; PARA DE MINAS-PJ-04PJ 10.069,62 3.020,89 0,00 0,00 0,00 0,00 0,00 1.550,00 14.640,51 1.439,96 2.334,54 0,00 0,00 3.774,50 10.866,01 31/10/2020
959 344500 FERNANDA CRISTINA DE SOUZA PAZ ASSESSOR BELO HORIZONTE - COMARCA; CENTRAL DE APOIO TECN-SETOR DE MEIO AMBIENTE 0,00 0,00 5.136,32 0,00 0,00 0,00 0,00 1.550,00 6.686,32 713,09 545,25 0,00 0,00 1.258,34 5.427,98 31/10/2020
960 538100 FERNANDA CRISTINA DOS SANTOS ROSA OFICIAL DO MP RIBEIRÃO DAS NEVES - COMARCA; RIBEIRAO DAS NEVES-PJ-09PJ 5.387,19 1.616,16 0,00 0,00 0,00 0,00 0,00 1.550,00 8.553,35 770,37 844,71 0,00 0,00 1.615,08 6.938,27 31/10/2020
961 337800 FERNANDA CRISTINA ROLAND CLIMACO MENDES COORDENADOR/OFICIAL BELO HORIZONTE - COMARCA; DIRETORIA DE PAGAMENTO DE PESSOAL-DPAG 0,00 4.030,55 13.435,16 0,00 0,00 0,00 0,00 1.550,00 19.015,71 1.535,26 3.494,43 0,00 44,69 5.074,38 13.941,33 31/10/2020
962 545400 FERNANDA CUNHA GUIMARAES ANALISTA DO MP BELO HORIZONTE - COMARCA; COORD EST DEF DIR FAM PESSOAS DEFICI IDOSOS 8.436,53 843,65 0,00 0,00 0,00 0,00 0,00 1.550,00 10.830,18 1.020,82 1.401,96 0,00 0,00 2.422,78 8.407,40 31/10/2020
963 429801 FERNANDA CUNHA PINHEIRO DA SILVA ANALISTA DO MP BELO HORIZONTE - COMARCA; ASSESSORIA DE COMUNICACAO INTEGRADA 10.069,62 1.006,96 0,00 0,00 0,00 0,00 0,00 1.550,00 12.626,58 1.218,42 1.789,50 0,00 0,00 3.007,92 9.618,66 31/10/2020
964 408000 FERNANDA DAS NEVES RAMOS ANALISTA DO MP BELO HORIZONTE - COMARCA; CENTRAL DE APOIO TECNICO-SETOR CONTABIL 12.601,30 2.520,26 0,00 0,00 0,00 0,00 0,00 2.319,39 17.440,95 1.663,37 2.831,64 0,00 0,00 4.495,01 12.945,94 31/10/2020
965 496000 FERNANDA DE ALMEIDA VIANA ANALISTA DO MP BELO HORIZONTE - COMARCA; PROC JUST RECURSOS ESP E EXTRAORD CRIMINAIS 10.069,62 1.006,96 0,00 0,00 0,00 0,00 0,00 2.319,39 13.395,97 1.218,42 1.789,50 0,00 0,00 3.007,92 10.388,05 31/10/2020
966 266700 FERNANDA DE CASTRO LUCAS COORDENADOR/OFICIAL BELO HORIZONTE - COMARCA; DIRET DE DESENV DE RECURSOS HUMANOS-DDRH 12.204,02 3.661,21 2.687,03 0,00 0,00 0,00 0,00 2.319,39 20.871,65 1.745,18 3.656,47 0,00 159,94 5.561,59 15.310,06 31/10/2020
967 433200 FERNANDA DE FIGUEIREDO NORTE ANALISTA DO MP BELO HORIZONTE - COMARCA; ASSESS JUR DO CONS SUPERIOR DO MINISTERIO PUB 12.601,30 2.520,26 0,00 0,00 5.040,52 0,00 0,00 2.319,39 22.481,47 1.663,37 4.113,51 0,00 0,00 5.776,88 16.704,59 31/10/2020
968 419200 FERNANDA DE MIRANDA MARTINS SIMOES ANALISTA DO MP UBERLÂNDIA - COMARCA; UBERLANDIA-PJ-17PJ 12.601,30 2.520,26 0,00 0,00 0,00 0,00 0,00 2.319,39 17.440,95 1.663,37 2.831,64 0,00 0,00 4.495,01 12.945,94 31/10/2020
969 441400 FERNANDA DE MORAIS PINTO ANALISTA DO MP BELO HORIZONTE - COMARCA; PROC. JUSTICA DIR. DIFUSOS E COLETIVOS-SEC 12.204,02 2.440,80 0,00 0,00 0,00 0,00 0,00 1.550,00 16.194,82 1.610,93 2.714,96 0,00 0,00 4.325,89 11.868,93 31/10/2020
970 432200 FERNANDA DE MOURA GUIMARAES ANALISTA DO MP BELO HORIZONTE - COMARCA; BH-26 CRIME CONT CRIAN ADOL-SECRETARIA 12.204,02 2.440,80 0,00 0,00 0,00 0,00 0,00 2.319,39 16.964,21 1.610,93 2.714,96 0,00 0,00 4.325,89 12.638,32 31/10/2020
971 461800 FERNANDA DE OLIVEIRA SANTOS ANALISTA DO MP JUIZ DE FORA - COMARCA; JUIZ DE FORA-PJ-21PJ 10.069,62 1.006,96 0,00 0,00 0,00 0,00 0,00 2.319,39 13.395,97 1.218,42 1.841,63 0,00 0,00 3.060,05 10.335,92 31/10/2020
972 432500 FERNANDA DE PAULA PINTO ANALISTA DO MP BELO HORIZONTE - COMARCA; PROC JUST RECURSOS ESP E EXTRAORD CRIMINAIS 12.204,02 2.440,80 0,00 0,00 0,00 0,00 0,00 1.550,00 16.194,82 1.610,93 2.714,96 0,00 0,00 4.325,89 11.868,93 31/10/2020
973 431600 FERNANDA DIAS BARBOSA PEREIRA ANALISTA DO MP OURO BRANCO - COMARCA; OURO BRANCO-PJ-UNPJ 12.204,02 2.440,80 0,00 0,00 0,00 0,00 0,00 2.319,39 16.964,21 1.610,93 2.610,69 0,00 0,00 4.221,62 12.742,59 31/10/2020
974 162200 FERNANDA FERNANDES MONTEIRO ASSESSOR BELO HORIZONTE - COMARCA; BH-12PJ JUIZO CRIMINAL-SECRETARIA 0,00 2.054,53 5.136,32 0,00 0,00 0,00 0,00 1.550,00 8.740,85 713,09 1.162,39 0,00 0,00 1.875,48 6.865,37 31/10/2020
975 512800 FERNANDA FERREIRA BARBOSA MOREIRA ANALISTA DO MP IPATINGA - COMARCA; IPATINGA-PJ-05PJ 10.069,62 1.006,96 0,00 0,00 0,00 0,00 0,00 2.319,39 13.395,97 1.218,42 1.841,63 0,00 0,00 3.060,05 10.335,92 31/10/2020
976 329200 FERNANDA GABRIEL GUZELLA OFICIAL DO MP BELO HORIZONTE - COMARCA; DIRET DE PLANOS PROJETOS E PROGRAMAS INST 9.444,70 2.833,41 0,00 0,00 0,00 0,00 0,00 1.550,00 13.828,11 1.350,59 2.135,71 0,00 0,00 3.486,30 10.341,81 31/10/2020
977 324200 FERNANDA GEORGIA NEVES ZAHAN OFICIAL DO MP IPANEMA - COMARCA; IPANEMA-PJ-SECRETARIA 8.436,53 5.905,57 0,00 0,00 0,00 0,00 0,00 1.550,00 15.892,10 1.577,63 2.640,87 0,00 0,00 4.218,50 11.673,60 31/10/2020
978 548200 FERNANDA GONCALVES DE CARVALHO ZUZA OFICIAL DO MP TUPACIGUARA - COMARCA; TUPACIGUARA-PJ-UNPJ 4.974,42 497,44 0,00 0,00 0,00 0,00 0,00 1.550,00 7.021,86 601,90 469,88 0,00 0,00 1.071,78 5.950,08 31/10/2020
979 355400 FERNANDA HELENA BASQUES OFICIAL DO MP SABARÁ - COMARCA; SABARA-PJ-01PJ 8.858,43 1.771,69 0,00 0,00 0,00 0,00 457,07 1.550,00 12.637,19 1.219,59 1.844,23 0,00 0,00 3.063,82 9.573,37 31/10/2020
980 454800 FERNANDA IATAROLA BARBOSA DIAS ANALISTA DO MP BARBACENA - COMARCA; BARBACENA-PJ-05PJ 10.397,52 1.039,75 0,00 0,00 0,00 0,00 0,00 1.550,00 12.987,27 1.258,10 1.877,77 0,00 0,00 3.135,87 9.851,40 31/10/2020
981 515500 FERNANDA LILIANE MARUGEIRO ANALISTA DO MP BELO HORIZONTE - COMARCA; BH-18PJ VIOLENCIA DOMESTICA-SECRETARIA 10.069,62 1.006,96 0,00 0,00 0,00 0,00 0,00 2.319,39 13.395,97 1.218,42 1.789,50 0,00 0,00 3.007,92 10.388,05 31/10/2020
982 392900 FERNANDA MAGALHAES SILVA ANALISTA DO MP BELO HORIZONTE - COMARCA; CENTRO JORNALISMO 13.011,52 2.602,30 0,00 0,00 0,00 0,00 0,00 1.550,00 17.163,82 1.717,52 2.952,12 0,00 0,00 4.669,64 12.494,18 31/10/2020
983 409200 FERNANDA MAIA SANTIAGO CARDOSO ANALISTA DO MP PIRAPORA - COMARCA; PIRAPORA-PJ-02PJ 10.069,62 2.013,92 0,00 0,00 0,00 0,00 0,00 2.396,33 14.479,87 1.329,19 2.088,09 0,00 0,00 3.417,28 11.062,59 31/10/2020
984 556500 FERNANDA OTERO COSTA ANALISTA DO MP BELO HORIZONTE - COMARCA; ASSESS TECNICO-JUR JUNTO AS PROC. DE JUST 9.146,93 914,69 0,00 0,00 0,00 0,00 517,44 1.550,00 12.129,06 1.163,70 1.719,86 0,00 0,00 2.883,56 9.245,50 31/10/2020
985 615300 FERNANDA PATRICIA RIBEIRO MOTA OFICIAL DO MP UBERABA - COMARCA; UBERABA-PJ-05PJ 4.817,57 481,76 0,00 0,00 0,00 0,00 0,00 1.550,00 6.849,33 582,93 427,65 0,00 0,00 1.010,58 5.838,75 31/10/2020
986 619800 FERNANDA PINTO PEREIRA ANALISTA DO MP UBERLÂNDIA - COMARCA; UBERLANDIA-PJ-20PJ 8.170,49 817,05 0,00 0,00 0,00 0,00 0,00 2.319,39 11.306,93 988,63 1.278,20 0,00 0,00 2.266,83 9.040,10 31/10/2020
987 412900 FERNANDA PORTELA ROSA ANALISTA DO MP BELO HORIZONTE - COMARCA; BH-08PJ JUIZADO ESPECIAL-SECRETARIA 12.601,30 2.520,26 0,00 0,00 0,00 0,00 0,00 2.319,39 17.440,95 1.663,37 2.831,64 0,00 0,00 4.495,01 12.945,94 31/10/2020
988 274301 FERNANDA QUEIROZ PARREIRA ANALISTA DO MP PATOS DE MINAS - COMARCA; GAECO REGIONAL DE PATOS DE MINAS 10.069,62 1.006,96 0,00 0,00 0,00 0,00 0,00 1.550,00 12.626,58 1.218,42 1.841,63 0,00 0,00 3.060,05 9.566,53 31/10/2020
989 467900 FERNANDA QUEIROZ SIMOES GANNAM ANALISTA DO MP SÃO LOURENÇO - COMARCA; SAO LOURENCO-PJ-02PJ 10.069,62 1.006,96 0,00 0,00 0,00 0,00 0,00 2.319,39 13.395,97 1.218,42 1.789,50 0,00 0,00 3.007,92 10.388,05 31/10/2020
990 681000 FERNANDA ROCHA DE MATOS TEIXEIRA ASSESSOR PROMOTOR JUSTICA PIRANGA - COMARCA; PIRANGA-PJ-UNPJ 0,00 0,00 7.187,72 0,00 0,00 0,00 0,00 2.575,85 9.763,57 713,09 1.161,52 0,00 0,00 1.874,61 7.888,96 31/10/2020
991 255500 FERNANDA SIMOES LOPES MENDES ANALISTA DO MP BELO HORIZONTE - COMARCA; BH-17PJ PATRIMONIO PUBLICO-SECRETARIA 17.413,92 5.224,18 0,00 0,00 0,00 0,00 0,00 1.550,00 24.188,10 2.490,19 4.567,04 0,00 0,00 7.057,23 17.130,87 31/10/2020
992 481700 FERNANDA VIANA FROES DA SILVA OFICIAL DO MP GOVERNADOR VALADARES - COMARCA; GOVERNADOR VALADARES-PJ-09PJ 7.421,79 742,18 0,00 0,00 0,00 0,00 0,00 1.550,00 9.713,97 898,04 1.128,77 0,00 0,00 2.026,81 7.687,16 31/10/2020
993 123900 FERNANDO ANTONIO FARIA DE ABREU DIRETOR/ANALISTA BELO HORIZONTE - COMARCA; SUPERINTENDÊNCIA DE ENGENHARIA E ARQUITETURA 26.471,31 23.824,17 4.875,89 0,00 0,00 3.900,84 0,00 1.550,00 60.622,21 3.900,84 8.882,75 19.709,15 0,00 32.492,74 28.129,47 31/10/2020
994 416900 FERNANDO APARECIDO DA SILVA ANALISTA DO MP BOM DESPACHO - COMARCA; BOM DESPACHO-PJ-02PJ 12.204,02 8.542,81 0,00 0,00 6.915,61 0,00 0,00 450,00 28.112,44 2.282,15 6.005,95 0,00 0,00 8.288,10 19.824,34 31/10/2020
995 380500 FERNANDO BONES COSTA OFICIAL DO MP BELO HORIZONTE - COMARCA; DIVISAO DE MATERIAIS 6.123,79 1.224,76 0,00 0,00 0,00 0,00 0,00 1.550,00 8.898,55 808,34 929,20 0,00 0,00 1.737,54 7.161,01 31/10/2020
996 500100 FERNANDO CEZAR PINTO OFICIAL DO MP SANTA LUZIA - COMARCA; SANTA LUZIA-PJ-04PJ 7.421,79 742,18 0,00 0,00 0,00 0,00 0,00 1.550,00 9.713,97 898,04 1.076,12 0,00 0,00 1.974,16 7.739,81 31/10/2020
997 346100 FERNANDO EUSTAQUIO CAMPOS UTSCH MOREIRA ANALISTA DO MP BELO HORIZONTE - COMARCA; DIRETORIA DE SISTEMAS DE INFORMACAO 14.790,66 2.958,13 0,00 0,00 0,00 0,00 0,00 1.550,00 19.298,79 1.952,37 3.370,38 0,00 0,00 5.322,75 13.976,04 31/10/2020
998 103500 FERNANDO LUIZ DA SILVA JUNIOR OFICIAL DO MP BELO HORIZONTE - COMARCA; DIVISAO DE ATENDIMENTO E CONSULTA JURIDICA 18.820,14 9.410,07 0,00 0,00 0,00 0,00 517,55 7.196,04 35.943,80 3.105,32 6.039,98 0,00 0,00 9.145,30 26.798,50 31/10/2020
999 287300 FERNANDO MARCIO ALVES MARTINS OFICIAL DO MP LEOPOLDINA - COMARCA; LEOPOLDINA-PJ-01PJ 7.912,85 2.373,86 0,00 0,00 0,00 0,00 0,00 1.550,00 11.836,71 1.131,54 1.491,90 0,00 0,00 2.623,44 9.213,27 31/10/2020
1000 262200 FERNANDO MARCIO RESENDE PEREIRA OFICIAL DO MP BELO HORIZONTE - COMARCA; DIR ESTRUTURA E PROCESSOS ORGANIZACIONAIS 10.069,62 3.020,89 0,00 0,00 0,00 1.551,10 0,00 1.550,00 16.191,61 1.439,96 2.730,53 0,00 0,00 4.170,49 12.021,12 31/10/2020
1001 472900 FERNANDO RODRIGUES DE FREITAS ANALISTA DO MP BELO HORIZONTE - COMARCA; BH-15PJ M AMB PAT HIST CULT-ASS TECNICA 10.069,62 1.006,96 0,00 0,00 0,00 0,00 0,00 1.550,00 12.626,58 1.218,42 1.841,63 0,00 0,00 3.060,05 9.566,53 31/10/2020
1002 421400 FERNANDO TEODORO MACIEL ANALISTA DO MP SANTA VITÓRIA - COMARCA; SANTA VITORIA-PJ-UNPJ 10.736,08 2.147,22 0,00 0,00 0,00 0,00 0,00 2.319,39 15.202,69 1.417,16 2.179,55 0,00 0,00 3.596,71 11.605,98 31/10/2020
1003 446300 FERNANDO VITOR DE OLIVEIRA ANALISTA DO MP MONTES CLAROS - COMARCA; COORD REG BACIA RIOS VERDE GRANDE E PARDO 12.204,02 2.440,80 0,00 0,00 0,00 0,00 0,00 1.550,00 16.194,82 1.610,93 2.714,96 0,00 0,00 4.325,89 11.868,93 31/10/2020
1004 639300 FILIPE ALMEIDA RODRIGUES ANALISTA DO MP TIMÓTEO - COMARCA; TIMOTEO-PJ-04PJ 7.421,79 742,18 0,00 0,00 0,00 0,00 0,00 1.550,00 9.713,97 898,04 1.128,77 0,00 0,00 2.026,81 7.687,16 31/10/2020
1005 398400 FLAVIA ALVARES GUIMARAES COORDENADOR/OFICIAL BELO HORIZONTE - COMARCA; CGMP-DIVIS DE APOIO FISC ORIENTACAO FUNCIONAL 0,00 2.363,83 11.819,15 0,00 0,00 0,00 0,00 1.550,00 15.732,98 1.113,62 2.660,94 0,00 35,12 3.809,68 11.923,30 31/10/2020
1006 398200 FLAVIA ALVES DE ASSUNCAO RODRIGUES ANALISTA DO MP DIVINÓPOLIS - COMARCA; COORD REG DO MA DA BACIA DO ALTO SAO FRANC 12.204,02 2.440,80 0,00 0,00 0,00 0,00 0,00 2.319,39 16.964,21 1.610,93 2.662,82 0,00 0,00 4.273,75 12.690,46 31/10/2020
1007 318500 FLAVIA BEATRIZ NUNES CRUZ VIEIRA ANALISTA DO MP BARBACENA - COMARCA; BARBACENA-PJ-SECRETARIA 15.272,02 4.581,61 0,00 0,00 0,00 0,00 0,00 1.550,00 21.403,63 2.183,90 3.885,54 0,00 0,00 6.069,44 15.334,19 31/10/2020
1008 496500 FLAVIA CARAM BORLIDO ANALISTA DO MP BELO HORIZONTE - COMARCA; DIRETORIA GESTAO CONTRATOS CONVENIOS 11.085,56 1.108,56 0,00 0,00 0,00 0,00 0,00 1.550,00 13.744,12 1.341,35 2.115,15 0,00 0,00 3.456,50 10.287,62 31/10/2020
1009 534800 FLAVIA CONDE SOARES ANALISTA DO MP BELO HORIZONTE - COMARCA; BH-13PJ JUÍZO DE TÓXICOS-ASSESSORIA JURIDICA 8.436,53 843,65 0,00 0,00 0,00 0,00 0,00 1.550,00 10.830,18 1.020,82 1.401,96 0,00 0,00 2.422,78 8.407,40 31/10/2020
1010 219500 FLAVIA CRISTINA ANCELMO OFICIAL DO MP BELO HORIZONTE - COMARCA; CAO-DH CONT EXT ATIV POLIC E AP COMUNIT 10.069,62 3.020,89 0,00 0,00 0,00 0,00 0,00 1.550,00 14.640,51 1.439,96 2.334,54 0,00 0,00 3.774,50 10.866,01 31/10/2020
1011 329600 FLAVIA CRISTINA DE MATOS XAVIER ANALISTA DO MP UBERABA - COMARCA; UBERABA-PJ-15PJ 15.272,02 4.581,61 0,00 0,00 6.617,88 0,00 0,00 1.550,00 28.021,51 2.183,90 5.705,46 0,00 0,00 7.889,36 20.132,15 31/10/2020
1012 207600 FLAVIA DE ANDRADE MANCINI ANALISTA DO MP BELO HORIZONTE - COMARCA; ASSESSORIA JURIDICO-ADMINISTRATIVA 18.820,14 7.528,06 0,00 0,00 0,00 0,00 0,00 1.550,00 27.898,20 2.898,30 5.422,95 0,00 0,00 8.321,25 19.576,95 31/10/2020
1013 402801 FLAVIA MARIA DE RESENDE NASCIMENTO ANALISTA DO MP SÃO JOÃO DEL REI - COMARCA; SAO JOAO DEL REI-PJ-04PJ 10.069,62 1.006,96 0,00 0,00 0,00 0,00 0,00 2.319,39 13.395,97 1.218,42 1.841,63 0,00 0,00 3.060,05 10.335,92 31/10/2020
1014 437500 FLAVIA MARIA TORRES MARCHETTI ANALISTA DO MP BELO HORIZONTE - COMARCA; BH-18PJ VIOLENCIA DOMESTICA-SECRETARIA 10.736,08 2.147,22 0,00 0,00 0,00 0,00 0,00 1.550,00 14.433,30 1.417,16 2.179,55 0,00 0,00 3.596,71 10.836,59 31/10/2020
1015 386000 FLAVIA NEVES BRIGIDO ASSESSOR/OFICIAL BELO HORIZONTE - COMARCA; PROMOT ESTADUAL DE DEF PATRI CULT E TUR DE MG 0,00 2.079,50 10.397,52 0,00 0,00 0,00 0,00 2.319,39 14.796,41 1.113,62 2.243,94 0,00 35,12 3.392,68 11.403,73 31/10/2020
1016 488600 FLAVIA PEREIRA COSTA ANALISTA DO MP BELO HORIZONTE - COMARCA; CENTRAL DE APOIO TECNICO 10.069,62 1.006,96 0,00 0,00 0,00 0,00 0,00 2.319,39 13.395,97 1.218,42 1.841,63 0,00 0,00 3.060,05 10.335,92 31/10/2020
1017 365400 FLAVIA PEREIRA DA SILVA AMARAL OFICIAL DO MP BELO HORIZONTE - COMARCA; BH-15PJ M AMB PAT HIST CULT-GAB 115PJ 9.444,70 1.888,94 0,00 0,00 0,00 0,00 0,00 1.550,00 12.883,64 1.246,70 1.904,55 0,00 0,00 3.151,25 9.732,39 31/10/2020
1018 515400 FLAVIA RODRIGUES DE OLIVEIRA E SILVA PAIVA ANALISTA DO MP CARATINGA - COMARCA; CARATINGA-PJ-05PJ 10.069,62 1.006,96 0,00 0,00 0,00 0,00 0,00 1.550,00 12.626,58 1.218,42 1.685,22 0,00 0,00 2.903,64 9.722,94 31/10/2020
1019 621600 FLAVIA SARMENTO RODRIGUES ANALISTA DO MP BELO HORIZONTE - COMARCA; DIV FISCAL ADM CONT TERCEIRIZACAO 8.170,49 817,05 0,00 0,00 0,00 0,00 0,00 1.550,00 10.537,54 988,63 1.330,34 0,00 0,00 2.318,97 8.218,57 31/10/2020
1020 535800 FLAVIA SILVA VALADAO OFICIAL DO MP TRÊS CORACOES - COMARCA; TRES CORACOES-PJ-02PJ 4.974,42 497,44 0,00 0,00 0,00 0,00 0,00 1.550,00 7.021,86 601,90 417,74 0,00 0,00 1.019,64 6.002,22 31/10/2020
1021 515300 FLAVIA VIEIRA OLIVEIRA GOMES ANALISTA DO MP BELO HORIZONTE - COMARCA; ASSESS TECNICO-JUR JUNTO AS PROC. DE JUST 10.069,62 1.006,96 0,00 0,00 0,00 0,00 0,00 5.980,63 17.057,21 1.218,42 1.841,63 0,00 0,00 3.060,05 13.997,16 31/10/2020
1022 377500 FLAVIANA GONCALVES DE OLIVEIRA ANALISTA DO MP IPATINGA - COMARCA; IPATINGA-PJ-02PJ 13.011,52 2.602,30 0,00 0,00 0,00 0,00 0,00 1.550,00 17.163,82 1.717,52 2.952,12 0,00 0,00 4.669,64 12.494,18 31/10/2020
1023 273100 FLAVIANE DOS SANTOS CASTRO OFICIAL DO MP CAXAMBU - COMARCA; CAXAMBU-PJ-SECRETARIA 10.069,62 3.020,89 0,00 0,00 0,00 0,00 1.153,19 6.786,20 21.029,90 1.514,01 2.395,03 0,00 0,00 3.909,04 17.120,86 31/10/2020
1024 310600 FLAVIANE NAVES ALCANTARA OFICIAL DO MP BELO HORIZONTE - COMARCA; COMB CRIMES PRAT POR AG POL MUN-SECRETARIA 10.736,08 3.220,82 0,00 0,00 0,00 0,00 0,00 1.550,00 15.506,90 1.535,26 2.546,59 0,00 0,00 4.081,85 11.425,05 31/10/2020
1025 378201 FLAVIANE RIBEIRO BORGES FERNANDES OFICIAL DO MP SÃO GONÇALO DO SAPUCAÍ - COMARCA; SAO GONCALO DO SAPUCAI-PJ-02PJ 5.562,64 556,26 0,00 0,00 2.039,63 0,00 0,00 1.550,00 9.708,53 673,08 1.189,14 0,00 0,00 1.862,22 7.846,31 31/10/2020
1026 455800 FLAVIO ANTONIO RIBEIRO OFICIAL DO MP BELO HORIZONTE - COMARCA; GRUPO ESP PROM JUST DEF PROB ADM PAT PUB 6.123,79 612,38 0,00 0,00 0,00 0,00 0,00 1.550,00 8.286,17 740,98 779,32 0,00 0,00 1.520,30 6.765,87 31/10/2020
1027 458200 FLAVIO AUGUSTO BRAGA SOARES ANALISTA DO MP BELO HORIZONTE - COMARCA; DIVISAO DE CONTROLE IMOBILIARIO 12.204,02 1.220,40 0,00 0,00 0,00 0,00 0,00 1.550,00 14.974,42 1.476,69 2.416,27 0,00 0,00 3.892,96 11.081,46 31/10/2020
1028 516500 FLAVIO AUGUSTO RODRIGUES CORREA ANALISTA DO MP BELO HORIZONTE - COMARCA; COORD REG BACIAS RIO VELHAS E PARAOPEBA 10.069,62 1.006,96 0,00 0,00 0,00 0,00 0,00 2.319,39 13.395,97 1.218,42 1.841,63 0,00 0,00 3.060,05 10.335,92 31/10/2020
1029 84300 FLAVIO DE FARIA BELTRAO OFICIAL DO MP BELO HORIZONTE - COMARCA; DIRETORIA DE ADMINISTRACAO FINANCEIRA 23.757,25 19.005,81 0,00 0,00 0,00 0,00 0,00 1.550,00 44.313,06 3.900,84 7.810,02 7.300,84 0,00 19.011,70 25.301,36 31/10/2020
1030 266600 FLAVIO GUIMARAES LANA ANALISTA DO MP BELO HORIZONTE - COMARCA; CENTRAL DE APOIO TECN-SETOR DE MEIO AMBIENTE 12.601,30 3.780,39 0,00 0,00 0,00 0,00 0,00 1.550,00 17.931,69 1.801,99 3.140,06 0,00 0,00 4.942,05 12.989,64 31/10/2020
1031 552600 FLAVIO HENRIQUE EVARISTO GOMES ASSESSOR/ANALISTA BELO HORIZONTE - COMARCA; DIRETORIA DE SUPORTE E MANUTENCAO 0,00 1.039,75 10.397,52 0,00 0,00 0,00 1.336,56 2.319,39 15.093,22 1.020,82 2.362,07 0,00 0,00 3.382,89 11.710,33 31/10/2020
1032 640000 FLAVIO HENRIQUE PEREIRA VELOSO OFICIAL DO MP BELO HORIZONTE - COMARCA; DIVISÃO DE FISCALIZAÇÃO DAS RELAÇÕES DE CONSU 4.376,03 262,56 0,00 0,00 0,00 0,00 1.445,27 1.550,00 7.633,86 510,24 663,39 0,00 0,00 1.173,63 6.460,23 31/10/2020
1033 241500 FLAVIO HENRIQUE SILVA MARTINS LAGE OFICIAL DO MP BELO HORIZONTE - COMARCA; CAO-CRIANCAS E ADOLESCENTES-SECRETARIA 10.069,62 4.027,85 0,00 0,00 0,00 0,00 0,00 1.550,00 15.647,47 1.550,72 2.581,00 0,00 0,00 4.131,72 11.515,75 31/10/2020
1034 86700 FLAVIO LUCAS TOMAZ AGENTE DO MP BELO HORIZONTE - COMARCA; DIVISÃO DE FISCALIZAÇÃO DAS RELAÇÕES DE CONSU 8.170,49 5.719,35 0,00 0,00 0,00 0,00 1.445,27 1.550,00 16.885,11 1.527,88 1.899,97 0,00 0,00 3.427,85 13.457,26 31/10/2020
1035 407200 FLAVIO LUCIO MONTEIRO PENA ANALISTA DO MP BELO HORIZONTE - COMARCA; CENTRO JORNALISMO 10.069,62 2.013,92 0,00 0,00 0,00 0,00 0,00 3.088,78 15.172,32 1.329,19 2.088,09 0,00 0,00 3.417,28 11.755,04 31/10/2020
1036 451700 FLAVIO MAGALHAES PEREIRA ANALISTA DO MP BELO HORIZONTE - COMARCA; BH-12PJ JUIZO CRIMINAL-GAB 098PJ 10.069,62 2.013,92 0,00 0,00 0,00 0,00 0,00 2.319,39 14.402,93 1.329,19 2.088,09 0,00 0,00 3.417,28 10.985,65 31/10/2020
1037 481500 FLAVIO NEVES GUELBER DE MACEDO OFICIAL DO MP SÃO JOÃO NEPOMUCENO - COMARCA; SAO JOAO NEPOMUCENO-PJ-02PJ 6.123,79 612,38 0,00 0,00 0,00 0,00 0,00 1.550,00 8.286,17 740,98 779,32 0,00 0,00 1.520,30 6.765,87 31/10/2020
1038 547500 FRANCELINO MOREIRA DA SILVA ANALISTA DO MP BELO HORIZONTE - COMARCA; BH-10PJ EXECUÇÃO PENAL-SECRETARIA 8.436,53 843,65 0,00 0,00 0,00 0,00 0,00 3.472,93 12.753,11 1.020,82 1.401,96 0,00 0,00 2.422,78 10.330,33 31/10/2020
1039 278100 FRANCIANE MARY DE SOUZA ANALISTA DO MP BELO HORIZONTE - COMARCA; BH-12PJ JUIZO CRIMINAL-GAB 102PJ 16.750,82 5.025,25 0,00 0,00 0,00 0,00 0,00 1.550,00 23.326,07 2.395,37 4.460,33 0,00 0,00 6.855,70 16.470,37 31/10/2020
1040 646500 FRANCIELLE CAROLINE PEREIRA DOS SANTOS ASSESSOR BELO HORIZONTE - COMARCA; CENT DE ATENDIMENTO E ORIENTACAO DE PESSOAL 0,00 0,00 3.076,28 0,00 0,00 0,00 0,00 2.319,39 5.395,67 474,92 115,09 0,00 0,00 590,01 4.805,66 31/10/2020
1041 192501 FRANCIELLE REIS DE OLIVEIRA ANALISTA DO MP PASSOS - COMARCA; PASSOS-PJ-04PJ 16.750,82 5.025,25 0,00 0,00 0,00 0,00 0,00 1.550,00 23.326,07 2.395,37 4.356,06 0,00 0,00 6.751,43 16.574,64 31/10/2020
1042 645100 FRANCIELY CRISTINA COSTA TARQUINIO ASSESSOR BELO HORIZONTE - COMARCA; CHEFIA DE GABINETE 0,00 0,00 5.136,32 0,00 0,00 0,00 0,00 1.550,00 6.686,32 713,09 649,53 0,00 0,00 1.362,62 5.323,70 31/10/2020
1043 523600 FRANCINE MOURA LIMIRIO OFICIAL DO MP UBERABA - COMARCA; UBERABA-PJ-02PJ 6.741,63 674,16 0,00 0,00 0,00 0,00 0,00 1.550,00 8.965,79 815,74 945,65 0,00 0,00 1.761,39 7.204,40 31/10/2020
1044 467200 FRANCINI RENNO ANALISTA DO MP CASSIA - COMARCA; CASSIA-PJ-01PJ 10.069,62 1.006,96 0,00 0,00 0,00 0,00 0,00 1.550,00 12.626,58 1.218,42 1.841,63 0,00 0,00 3.060,05 9.566,53 31/10/2020
1045 189300 FRANCIS BERNARDO DO NASCIMENTO OFICIAL DO MP VARGINHA - COMARCA; VARGINHA-PJ-05PJ 14.790,66 5.916,26 0,00 0,00 0,00 0,00 0,00 2.319,39 23.026,31 2.277,76 4.094,38 0,00 0,00 6.372,14 16.654,17 31/10/2020
1046 207800 FRANCISCO CAMPOS PIRES DE MORAIS ANALISTA DO MP BELO HORIZONTE - COMARCA; CENTRAL DE APOIO TECN-SETOR DE MEIO AMBIENTE 18.820,14 7.528,06 0,00 0,00 0,00 0,00 0,00 1.550,00 27.898,20 2.898,30 5.527,23 0,00 0,00 8.425,53 19.472,67 31/10/2020